     2.10           OBSERVATION DATA    G (GPS)             RINEX VERSION / TYPE
teqc 2005May6 SOPAC 20050707 00:39:40UTC                    PGM / RUN BY / DATE
Linux 2.4.20-8|Pentium IV|gcc|Linux|486/DX+                 COMMENT
BIT 2 OF LLI FLAGS DATA COLLECTED UNDER A/S CONDITION       COMMENT
HPGN D CA 01 KD                                             MARKER NAME
01KD                                                        MARKER NUMBER
Ben Russell                                                 OBSERVER / AGENCY
0220247417 TRIMBLE 5700 2.01                                REC # / TYPE / VERS
12237011 TRM41249.00 NONE                                   ANT # / TYPE
 -2717728.0000 -4060535.0000  4086092.0000                  APPROX POSITION XYZ
        2.0000        0.0000        0.0000                  ANTENNA: DELTA H/E/N
     1     1                                                WAVELENGTH FACT L1/2
     6    L1    L2    C1    P2    P1    D1                  # / TYPES OF OBSERV
    15.0000                                                 INTERVAL
Northern California Height Modernization 2004               COMMENT
                                                            COMMENT
SOPAC - Scripps Orbit and Permanent Array Center            COMMENT
IGPP - Institute of Geophysics and Planetary Physics        COMMENT
SIO - Scripps Institution of Oceanography                   COMMENT
UCSD - University of California, San Diego                  COMMENT
                                                            COMMENT
email: archive@gpsmail.ucsd.edu                             COMMENT
ftp://garner.ucsd.edu                                       COMMENT
http://sopac.ucsd.edu                                       COMMENT
                                                            COMMENT
                                                            COMMENT
Approximate Lat, Lon : 40.094, -123.794                     COMMENT
                                                            COMMENT
SNR is mapped to RINEX snr flag value [0-9]                 COMMENT
L1 & L2: 2-19 dBHz = 1, 20-27 dBHz = 2, 28-31 dBHz = 3      COMMENT
32-35 dBHz = 4, 36-38 dBHz = 5, 39-41 dBHz = 6              COMMENT
42-44 dBHz = 7, 45-48 dBHz = 8, >= 49 dBHz = 9              COMMENT
  2004     9    14    14    42    0.0000000     GPS         TIME OF FIRST OBS
                                                            END OF HEADER
 04  9 14 14 42  0.0000000  0  7G 1G11G14G15G19G22G25
   -123339.45358    -74218.37154  22132816.8524   22132814.7814

   -103148.05559    -63416.55955  21861989.1174   21861985.5084
     37842.30559
     17995.04356                  20878069.5084   20878066.7774

    103901.24658     54453.42253  23016102.4384   23016101.1844

     62501.93058     31475.84454  23152464.7034   23152461.1254
     51552.37558
     25448.08654                  22711937.1484   22711932.8444

   -128691.56658    -77650.28954  22080729.2114   22080726.6454

 04  9 14 14 42 15.0000000  0  7G 1G11G14G15G19G22G25
   -173864.77748   -113588.76244  22123202.6254   22123200.6684
      3368.3554
   -145815.58648    -96663.99245  21853869.7814   21853866.6414
      2844.5024
     53487.10948     30185.78146  20881046.6024   20881043.3324
     -1042.9874
    146494.44547     87642.88343  23024206.7974   23024207.0084
     -2839.5474
     88289.25447     51569.82843  23157372.0704   23157368.5394
     -1719.1554
     73125.86748     42258.57044  22716042.0234   22716038.4024
     -1438.2334
   -181697.28548   -118953.43044  22070642.3284   22070640.0784
      3533.7154
 04  9 14 14 42 30.0000000  0  7G 1G11G14G15G19G22G25
   -224140.12548   -152764.35944  22113635.4224   22113633.3984
      3351.6904
   -188204.75849   -129694.53545  21845803.5864   21845800.0664
      2825.9454
     69386.42249     42574.84446  20884072.2584   20884068.9614
     -1059.9544
    189315.88748    121010.16843  23032355.9224   23032355.4774
     -2854.7634
    114319.66048     71853.21944  23162325.6724   23162321.8364
     -1735.3604
     94909.03548     59232.42244  22720187.4064   22720183.4774
     -1452.2114
   -234447.97348   -160057.87944  22060604.4304   22060601.9694
      3516.7134
 04  9 14 14 42 45.0000000  0  7G 1G11G14G15G19G22G25
   -274124.81649   -191713.47744  22104123.5944   22104121.8984
      3332.3134
   -230274.83249   -162476.41845  21837797.6484   21837794.6524
      2804.6724
     85580.52349     55193.60546  20887154.0004   20887150.6564
     -1079.6074
    232405.78148    154586.68443  23040555.1564   23040555.3284
     -2872.6604
    140633.10548     92357.19144  23167332.5554   23167329.2584
     -1754.2304
    116942.41448     76401.27044  22724380.3134   22724376.1684
     -1468.8924
   -286902.77348   -200931.74644  22050622.1334   22050619.8914
      3496.9874
 04  9 14 14 43  0.0000000  0  7G 1G11G14G15G19G22G25
   -323805.68449   -230425.85244  22094669.6414   22094668.0084
      3312.0584
   -272012.56249   -194999.33245  21829855.2734   21829852.3754
      2782.5154
    102082.21549     68052.05946  20890294.0554   20890290.8284
     -1100.1134
    275776.97348    188382.34843  23048809.3984   23048808.1524
     -2891.4134
    167242.35948    113091.64844  23172396.4844   23172392.6804
     -1773.9504
    139239.03548     93775.22344  22728623.6804   22728619.9414
     -1486.4414
   -339048.38348   -241564.69544  22040699.5554   22040696.9534
      3476.3744
 04  9 14 14 43 15.0000000  0  7G 1G11G14G15G19G22G25
   -373181.32049   -268900.37544  22085274.3364   22085272.2384
      3291.7094
   -313416.42649   -227262.09845  21821976.2114   21821973.2664
      2760.2584
    118892.65249     81151.07846  20893493.0314   20893489.8444
     -1120.6964
    319430.48848    222398.02043  23057115.9844   23057115.4924
     -2910.2344
    194148.39148    134057.35544  23177516.7584   23177512.6454
     -1793.7354
    161800.23448    111355.35244  22732916.4144   22732913.4344
     -1504.0804
   -390883.15248   -281955.42644  22030835.5314   22030832.8484
      3455.6514
 04  9 14 14 43 30.0000000  0  7G 1G11G14G15G19G22G25
   -422257.19549   -307141.32044  22075935.0864   22075933.7814
      3271.7254
   -354491.57449   -259268.72345  21814159.9924   21814156.9964
      2738.3434
    136005.85549     94486.03546  20896749.2734   20896746.1954
     -1140.8804
    363360.48047    256629.12943  23065475.7194   23065475.1214
     -2928.6664
    221345.26248    155249.67644  23182692.0784   23182688.0784
     -1813.1254
    184620.51248    129137.33644  22737259.2814   22737255.4494
     -1521.3524
   -442412.40248   -322108.09444  22021029.2974   22021027.7074
      3435.2834
 04  9 14 14 43 45.0000000  0  7G 1G11G14G15G19G22G25
   -471039.96949   -345153.87944  22066652.0084   22066650.4804
      3252.1854
   -395244.64149   -291024.37545  21806405.0704   21806401.7114
      2716.8714
    153414.99249    108051.57846  20900062.4454   20900059.5394
     -1160.6094
    407559.95347    291070.21543  23073886.5784   23073886.5434
     -2946.6324
    248825.87548    176663.12943  23187921.0784   23187917.6254
     -1832.0414
    207692.97348    147115.82844  22741649.3914   22741646.9924
     -1538.1644
   -493642.47748   -362027.63344  22011280.8594   22011278.7154
      3415.3384
 04  9 14 14 44  0.0000000  0  7G 1G11G14G15G19G22G25
   -519540.31248   -382946.35544  22057422.9064   22057420.7934
      3233.3564
   -435686.04349   -322537.16445  21798709.0864   21798706.0394
      2696.0934
    171109.03949    121839.13746  20903429.3204   20903426.2664
     -1179.6034
    452017.80948    325712.64543  23082346.7814   23082346.1764
     -2963.8574
    276579.07048    198288.96143  23193202.4224   23193198.4694
     -1850.2134
    231006.94148    165282.49244  22746085.7894   22746082.9224
     -1554.2654
   -544583.68748   -401722.09044  22001587.0944   22001584.2774
      3396.0814
 04  9 14 14 44 15.0000000  0  7G 1G11G14G15G19G22G25
   -567765.80948   -420524.67244  22048245.1724   22048243.7854
      3215.0334
   -475823.23849   -353812.91845  21791071.3054   21791068.2814
      2675.8134
    189079.98449    135842.44946  20906848.8984   20906846.1484
     -1198.0634
    496726.14848    360550.25443  23090854.3054   23090854.0664
     -2980.5564
    304596.75448    220120.89843  23198534.2664   23198530.0744
     -1867.8464
    254554.56348    183631.27344  22750567.7734   22750563.4694
     -1569.8414
   -595243.47748   -441197.23444  21991947.1024   21991944.3054
      3377.3194
 04  9 14 14 44 30.0000000  0  7G 1G11G14G15G19G22G25
   -615726.06248   -457896.30144  22039118.9694   22039117.5124
      3197.3504
   -515665.66849   -384858.97745  21783489.6094   21783486.3324
      2656.1624
    207317.84049    150053.75046  20910319.6484   20910316.8364
     -1215.8574
    541675.08248    395575.33243  23099408.1174   23099407.4614
     -2996.5964
    332868.87148    242151.09043  23203914.0004   23203910.3054
     -1884.8084
    278326.22748    202154.62144  22755091.1484   22755087.3874
     -1584.7784
   -645631.17249   -480460.39145  21982358.7584   21982356.0944
      3359.1804
 04  9 14 14 44 45.0000000  0  7G 1G11G14G15G19G22G25
   -663428.04349   -495066.68044  22030041.7194   22030040.2624
      3180.1324
   -555220.23049   -415680.73445  21775962.8754   21775959.4184
      2636.9714
    225815.34449    164467.37146  20913839.4304   20913836.4774
     -1233.1674
    586857.18448    430782.11343  23108005.4064   23108005.6604
     -3012.1404
    361388.00448    264373.77343  23209341.5314   23209337.7584
     -1901.2764
    302314.81348    220847.00044  22759655.6094   22759652.0744
     -1599.2394
   -695753.68448   -519516.89545  21972820.6484   21972818.5824
      3341.5014
 04  9 14 14 45  0.0000000  0  7G 1G11G14G15G19G22G25
   -710880.60248   -532042.69944  22021011.7344   22021010.3164
      3163.5044
   -594495.47349   -446284.83645  21768488.9224   21768485.4694
      2618.3494
    244563.32449    179076.17646  20917407.2734   20917404.4064
     -1249.8654
    632263.25848    466163.39542  23116646.6334   23116646.2974
     -3027.0724
    390144.76248    286781.60944  23214813.6954   23214810.2544
     -1917.1174
    326511.51248    239701.51644  22764259.7344   22764257.1334
     -1613.1134
   -745619.58649   -558373.44545  21963331.5474   21963329.4694
      3324.3934
 04  9 14 14 45 15.0000000  0  7G 1G11G14G15G19G22G25
   -758090.80949   -568829.87944  22012028.0554   22012026.2274
      3147.3474
   -633498.38349   -476676.71945  21761066.5084   21761063.6024
      2600.1944
    263554.39149    193874.40646  20921020.9774   20921018.0594
     -1266.0714
    677885.83248    501713.39843  23125328.2424   23125327.9804
     -3041.5054
    419131.61748    309368.74244  23220329.5864   23220325.6844
     -1932.4574
    350909.04748    258712.54744  22768903.0944   22768899.6214
     -1626.5024
   -795235.80548   -597035.43445  21953889.5234   21953887.5354
      3307.7484
 04  9 14 14 45 30.0000000  0  7G 1G11G14G15G19G22G25
   -805066.02748   -605433.94944  22003088.8754   22003087.4384
      3131.6814
   -672236.17649   -506862.01645  21753695.4384   21753692.0594
      2582.5204
    282780.80949    208856.00446  20924680.1644   20924676.6884
     -1281.7614
    723717.24248    537426.12943  23134049.5944   23134049.4454
     -3055.4274
    448340.79748    332129.11343  23225887.8444   23225883.8914
     -1947.2794
    375499.96948    277874.26244  22773582.7664   22773579.1024
     -1639.3954
   -844609.33248   -635508.30945  21944494.6724   21944492.7034
      3291.5684
 04  9 14 14 45 45.0000000  0  7G 1G11G14G15G19G22G25
   -851812.22748   -641859.56244  21994193.0554   21994191.9384
      3116.4134
   -710714.65649   -536845.26245  21746373.0084   21746369.6994
      2565.2324
    302236.18849    224016.03146  20928382.1804   20928378.8674
     -1297.0254
    769751.06648    573296.57843  23142809.4694   23142809.3244
     -3068.9224
    477765.76247    355057.64543  23231486.8204   23231483.2384
     -1961.6644
    400278.18048    297181.93044  22778297.4844   22778294.4064
     -1651.8814
   -893745.91849   -673796.55945  21935143.6564   21935142.0744
      3275.7724
 04  9 14 14 46  0.0000000  0  7G 1G11G14G15G19G22G25
   -898335.87948   -678111.75844  21985340.2664   21985338.9344
      3101.5774
   -748940.10249   -566631.32845  21739098.6414   21739095.5904
      2548.3634
    321913.74249    239349.16846  20932126.6334   20932123.3484
     -1311.8374
    815980.54348    609319.50043  23151606.8834   23151606.7074
     -3081.9654
    507399.53147    378148.85243  23237125.9844   23237121.9774
     -1975.5854
    425237.07848    316630.39144  22783047.3524   22783043.5594
     -1663.9274
   -942651.88349   -711905.09844  21925837.0944   21925835.4224
      3260.3984
 04  9 14 14 46 15.0000000  0  7G 1G11G14G15G19G22G25
   -944642.60249   -714194.91444  21976528.7114   21976526.8444
      3087.1154
   -786918.16449   -596224.64545  21731871.8594   21731868.6024
      2531.8714
    341807.51249    254850.80146  20935911.9694   20935909.2624
     -1326.2514
    862399.66048    645490.16843  23160440.3594   23160439.9924
     -3094.6084
    537236.03948    401398.04743  23242803.9844   23242799.9534
     -1989.1014
    450370.96548    336215.21544  22787830.1414   22787826.2624
     -1675.5924
   -991332.72749   -749838.22745  21916573.2344   21916572.2234
      3245.3904
 04  9 14 14 46 30.0000000  0  7G 1G11G14G15G19G22G25
   -990736.90248   -750112.55944  21967756.5784   21967755.2704
      3072.9534
   -824653.13749   -625628.52345  21724691.2194   21724687.4734
      2515.6654
    361912.62149    270517.09846  20939738.3364   20939734.5824
     -1340.3414
    909003.50848    681804.80143  23169308.2814   23169308.1884
     -3106.9234
    567270.23448    424801.29743  23248519.3284   23248515.6374
     -2002.2804
    475675.16448    355932.71944  22792645.6334   22792641.5784
     -1686.9474
  -1039792.62949   -787599.18745  21907351.7424   21907350.8284
      3230.6604
 04  9 14 14 46 45.0000000  0  7G 1G11G14G15G19G22G25
  -1036624.43749   -785869.07044  21959024.9694   21959023.2504
      3059.1694
   -862150.50849   -654847.27045  21717555.5474   21717551.9534
      2499.8254
    382223.05149    286343.39546  20943603.2114   20943600.1724
     -1354.0294
    955786.07048    718258.69142  23178210.8984   23178210.5784
     -3118.8374
    597496.12547    448353.91043  23254271.5944   23254267.1054
     -2015.0594
    501143.82448    375778.41044  22797491.9614   22797488.4494
     -1697.9114
  -1088037.05949   -825192.24645  21898171.4224   21898170.2934
      3216.2954
 04  9 14 14 47  0.0000000  0  7G 1G11G14G15G19G22G25
  -1082309.77349   -821468.04345  21950331.4774   21950329.8164
      3045.6894
   -899414.77749   -683884.37945  21710464.3834   21710461.1954
      2484.2854
    402733.83649    302325.81346  20947506.4144   20947503.0434
     -1367.3864
   1002742.40248    754847.98443  23187146.8914   23187146.0234
     -3130.4224
    627908.58647    472051.90243  23260058.4844   23260054.9344
     -2027.4974
    526772.48048    395748.76643  22802368.7344   22802365.6454
     -1708.5774
  -1136070.40649   -862620.82845  21889030.9924   21889029.8164
      3202.2234
 04  9 14 14 47 15.0000000  0  7G 1G11G14G15G19G22G25
  -1127798.36349   -856913.69145  21941675.1564   21941673.4574
      3032.5734
   -936451.02749   -712743.80145  21703416.9144   21703413.0784
      2469.0834
    423439.36349    318459.98446  20951446.7504   20951443.2304
     -1380.3684
   1049866.80148    791568.23042  23196114.7974   23196113.7704
     -3141.6274
    658501.74647    495890.69943  23265880.1804   23265876.5824
     -2039.5444
    552555.57848    415839.47343  22807275.0234   22807271.7114
     -1718.8734
  -1183897.84449   -899888.94545  21879929.4304   21879928.2384
      3188.4964
 04  9 14 14 47 30.0000000  0  7G 1G11G14G15G19G22G25
  -1173094.27049   -892209.20745  21933055.5944   21933053.9024
      3019.7274
   -973263.09049   -741428.53945  21696412.0084   21696408.1214
      2454.1374
    444335.14149    334742.38746  20955423.1334   20955420.1524
     -1393.0524
   1097154.75048    828415.94942  23205113.1954   23205112.0314
     -3152.5304
    689271.03547    519866.73044  23271735.4304   23271731.9654
     -2051.2864
    578488.86348    436047.17644  22812210.2194   22812206.8834
     -1728.8864
  -1231523.13749   -936999.56245  21870866.5314   21870865.0204
      3175.0204
 04  9 14 14 47 45.0000000  0  7G 1G11G14G15G19G22G25
  -1218202.13349   -927358.19145  21924472.0554   21924470.2734
      3007.1914
  -1009855.56249   -769942.15645  21689448.4534   21689444.5434
      2439.4984
    465416.24649    351169.21546  20959434.2194   20959431.0354
     -1405.4074
   1144601.23847    865387.18042  23214140.6644   23214140.8794
     -3163.0994
    720211.30547    543975.99643  23277623.2664   23277619.6374
     -2062.6854
    604567.46948    456368.13744  22817172.7274   22817168.9104
     -1738.5744
  -1278950.85549   -973956.22745  21861841.6484   21861839.6844
      3161.8484
 04  9 14 14 48  0.0000000  0  7G 1G11G14G15G19G22G25
  -1263124.46149   -962362.60945  21915923.6174   21915921.4454
      2994.8224
  -1046231.00049   -798286.66845  21682526.7194   21682522.7974
      2425.0294
    486679.72749    367738.13746  20963480.9224   20963477.5824
     -1417.5654
   1192203.43447    902479.75042  23223200.2584   23223198.9884
     -3173.4804
    751319.67247    568216.24243  23283542.9534   23283539.9454
     -2073.8914
    630788.99248    476800.42644  22822162.8674   22822159.1334
     -1748.1024
  -1326183.15649  -1010760.62145  21852853.3914   21852852.1914
      3148.8204
 04  9 14 14 48 15.0000000  0  7G 1G11G14G15G19G22G25
  -1307865.79749   -997225.98845  21907409.3444   21907407.6804
      2982.7564
  -1082393.71949   -826465.41845  21675644.9304   21675641.2424
      2410.8484
    508120.74649    384445.42246  20967560.4144   20967557.5204
     -1429.4014
   1239956.42647    939689.79742  23232286.9844   23232286.1684
     -3183.5334
    782591.10947    592583.55943  23289493.5004   23289490.3594
     -2084.7624
    657148.75848    497340.47744  22827178.5864   22827174.8244
     -1757.3184
  -1373224.32849  -1047416.08645  21843901.7274   21843899.9884
      3136.0784
 04  9 14 14 48 30.0000000  0  7G 1G11G14G15G19G22G25
  -1352429.08248  -1031950.63344  21898929.8054   21898927.4804
      2970.8864
  -1118346.40249   -854480.51245  21668803.3984   21668799.8954
      2396.8464
    529736.01249    401288.46946  20971673.8364   20971670.8094
     -1441.0184
   1287856.89847    977014.79742  23241401.9454   23241401.4494
     -3193.3654
    814022.05147    617075.15643  23295475.2344   23295471.3984
     -2095.3964
    683643.75448    517985.88744  22832220.5234   22832216.9344
     -1766.3334
  -1420077.18748  -1083924.80545  21834986.7734   21834984.4304
      3123.5244
 04  9 14 14 48 45.0000000  0  7G 1G11G14G15G19G22G25
  -1396818.05149  -1066539.43745  21890482.0084   21890480.6644
      2959.2654
  -1154092.62549   -882334.71145  21662001.1644   21661997.6454
      2383.0824
    551521.43449    418264.11746  20975819.6564   20975816.5704
     -1452.3614
   1335900.84447   1014451.58242  23250544.5864   23250543.4454
     -3202.9304
    845608.39147    641687.86343  23301485.8834   23301481.7544
     -2105.7564
    710270.11748    538733.67244  22837287.6024   22837284.1294
     -1775.0914
  -1466745.22349  -1120289.50845  21826105.2734   21826103.9774
      3111.2024
 04  9 14 14 49  0.0000000  0  7G 1G11G14G15G19G22G25
  -1441035.28548  -1100994.42244  21882067.8284   21882066.4304
      2947.8164
  -1189634.75849   -910029.88745  21655237.6254   21655233.9224
      2369.4764
    573474.19549    435370.13746  20979997.5394   20979994.3014
     -1463.5174
   1384085.32047   1051997.87542  23259713.3984   23259712.7704
     -3212.2984
    877347.12547    666419.32443  23307525.6174   23307521.5704
     -2115.9164
    737025.07848    559581.66044  22842379.1024   22842375.8954
     -1783.6644
  -1513230.81649  -1156512.04345  21817259.7814   21817257.4494
      3099.0404
 04  9 14 14 49 15.0000000  0  7G 1G11G14G15G19G22G25
  -1485084.15649  -1135318.22344  21873685.6564   21873683.8954
      2936.5914
  -1224976.27049   -937568.73445  21648512.8364   21648508.6484
      2356.1014
    595590.48449    452603.59846  20984205.5474   20984202.2774
     -1474.4194
   1432406.43047   1089650.63742  23268908.8364   23268908.1374
     -3221.4074
    909234.27747    691266.42643  23313593.6174   23313589.4964
     -2125.8104
    763905.08248    580527.09044  22847493.8834   22847491.0004
     -1792.0004
  -1559537.28149  -1192595.00445  21808448.1174   21808445.7424
      3087.0984
 04  9 14 14 49 30.0000000  0  7G 1G11G14G15G19G22G25
  -1528967.91848  -1169513.36745  21865334.9774   21865333.6024
      2925.5844
  -1260120.10949   -964953.55545  21641824.7814   21641821.2624
      2342.9234
    617866.75449    469961.71946  20988444.8204   20988442.2234
     -1485.0854
   1480860.62547   1127407.09842  23278129.6884   23278128.6954
     -3230.2804
    941266.27047    716226.39143  23319688.8834   23319684.7234
     -2135.4664
    790906.92648    601567.46144  22852631.6334   22852628.7274
     -1800.1234
  -1605667.52349  -1228540.63345  21799669.7894   21799667.5044
      3075.3494
 04  9 14 14 49 45.0000000  0  7G 1G11G14G15G19G22G25
  -1572687.91849  -1203580.90645  21857015.3284   21857013.9494
      2914.6674
  -1295067.67649   -992185.43745  21635174.7344   21635170.8874
      2329.8384
    640301.24249    487443.12146  20992714.0634   20992711.0704
     -1495.6334
   1529446.32047   1165266.00842  23287375.1174   23287374.0004
     -3239.0464
    973441.25047    741297.75443  23325811.6954   23325807.7544
     -2144.9994
    818029.12148    622701.59844  22857793.3984   22857789.3524
     -1808.1464
  -1651622.68749  -1264349.84845  21790924.4614   21790922.3954
      3063.6784
 04  9 14 14 50  0.0000000  0  7G 1G11G14G15G19G22G25
  -1616246.24248  -1237522.45345  21848726.5554   21848725.0354
      2903.8884
  -1329820.62149  -1019265.66445  21628561.2664   21628557.5394
      2316.8634
    662891.68449    505046.06346  20997012.8284   20997009.6684
     -1506.0294
   1578160.86347   1203225.35542  23296646.0634   23296644.4024
     -3247.6364
   1005756.65247    766478.57443  23331961.1254   23331957.2424
     -2154.3604
    845269.45348    643927.79744  22862977.2894   22862973.5354
     -1816.0224
  -1697404.57849  -1300024.04345  21782212.3524   21782210.2384
      3052.1264
 04  9 14 14 50 15.0000000  0  7G 1G11G14G15G19G22G25
  -1659646.44148  -1271340.78945  21840467.7034   21840466.5164
      2893.3474
  -1364382.41049  -1046196.93445  21621984.1804   21621980.9104
      2304.1194
    685634.08249    522767.38746  21001340.2894   21001337.3404
     -1516.1604
   1627000.47347   1241282.12942  23305939.1954   23305939.3324
     -3255.9744
   1038208.34447    791765.56643  23338135.9844   23338132.2544
     -2163.4464
    872624.34848    665243.27744  22868182.2584   22868179.3444
     -1823.6604
  -1743016.56249  -1335565.84445  21773532.7274   21773530.8954
      3040.7994
 04  9 14 14 50 30.0000000  0  7G 1G11G14G15G19G22G25
  -1702890.96549  -1305037.81245  21832238.7504   21832237.0864
      2882.9684
  -1398755.44149  -1072981.11745  21615443.4924   21615439.8554
      2291.5354
    708525.66449    540604.96946  21005696.6484   21005693.4184
     -1526.1054
   1675962.30147   1279434.13342  23315256.2814   23315256.2344
     -3264.1224
   1070793.45347    817156.52043  23344337.1414   23344332.7504
     -2172.3414
    900091.32848    686646.05544  22873409.3524   22873405.8284
     -1831.1324
  -1788460.81249  -1370976.94545  21764884.9064   21764883.3134
      3029.6174
 04  9 14 14 50 45.0000000  0  7G 1G11G14G15G19G22G25
  -1745982.01648  -1338615.24645  21824038.5554   21824037.3874
      2872.7374
  -1432941.67649  -1099619.75045  21608937.8364   21608934.6764
      2279.0824
    731563.89549    558556.82446  21010080.4614   21010077.7114
     -1535.8824
   1725043.81647   1317679.41842  23324596.3674   23324596.2154
     -3272.1014
   1103509.34847    842649.39543  23350563.0554   23350558.7384
     -2181.0604
    927668.02048    708134.35243  22878657.3134   22878654.0164
     -1838.4464
  -1833739.26649  -1406258.85945  21756268.8984   21756266.7704
      3018.5644
 04  9 14 14 50 59.9990000  0  7G 1G11G14G15G19G22G25
  -1788918.21549  -1372072.02345  21815868.2374   21815866.8514
      2862.4134
  -1466940.13749  -1126112.06645  21602468.3554   21602464.8944
      2266.5644
    754745.39149    576620.31646  21014491.8474   21014488.7724
     -1545.4334
   1774239.79747   1356013.90642  23333957.9724   23333957.8554
     -3279.7324
   1136351.84447    868240.91043  23356813.0894   23356808.8554
     -2189.5004
    955350.79348    729705.32444  22883924.6284   22883921.6714
     -1845.5184
  -1878850.29349  -1441410.30945  21747684.6594   21747682.7964
      3007.4024
 04  9 14 14 51 14.9990000  0  7G 1G11G14G15G19G22G25
  -1831707.91049  -1405414.64845  21807725.7534   21807724.1164
      2852.6464
  -1500757.79349  -1152463.51245  21596033.5974   21596029.7414
      2254.5104
    778070.30949    594795.55946  21018930.6594   21018927.5624
     -1554.9954
   1823553.91847   1394440.43442  23343342.4724   23343342.1904
     -3287.6084
   1169322.33247    893932.16443  23363087.0974   23363082.8864
     -2198.0334
    983140.91848    751359.92243  22889213.6674   22889209.4684
     -1852.6754
  -1923802.38749  -1476437.91045  21739130.7374   21739128.3124
      2996.8064
 04  9 14 14 51 29.9990000  0  7G 1G11G14G15G19G22G25
  -1874349.89149  -1438642.17645  21799611.2374   21799609.4254
      2842.7994
  -1534394.11349  -1178673.63745  21589632.4804   21589628.9804
      2242.4214
    801535.05549    613079.76646  21023395.9564   21023393.0974
     -1564.3164
   1872980.84847   1432954.86342  23352747.7844   23352747.9404
     -3295.1294
   1202416.40247    919719.73043  23369384.3474   23369380.8354
     -2206.2714
   1011034.62548    773095.27044  22894521.3474   22894517.4524
     -1859.5804
  -1968593.87149  -1511340.35545  21730607.2534   21730605.2534
      2986.0994
 04  9 14 14 51 44.9990000  0  7G 1G11G14G15G19G22G25
  -1916846.31249  -1471756.27045  21791524.5734   21791522.5114
      2833.0954
  -1567850.89849  -1204743.86745  21583265.8314   21583262.1794
      2230.4524
    825137.17649    631471.00446  21027887.0894   21027883.7334
     -1573.4754
   1922518.11747   1471555.25442  23362174.4094   23362174.8664
     -3302.4854
   1235631.47747    945601.58243  23375705.3084   23375701.2264
     -2214.3384
   1039029.75848    794909.60944  22899848.6444   22899845.3314
     -1866.3424
  -2013226.66449  -1546119.16045  21722113.8704   21722111.6404
      2975.5204
 04  9 14 14 51 59.9990000  0  7G 1G11G14G15G19G22G25
  -1959199.14849  -1504758.48445  21783464.9014   21783462.9334
      2823.5224
  -1601130.03549  -1230675.66445  21576933.0424   21576929.5504
      2218.6094
    848874.45349    649967.58246  21032403.9954   21032401.3824
     -1582.4854
   1972163.38747   1510239.82042  23371622.2454   23371622.2844
     -3309.6854
   1268965.14147    971575.84843  23382048.4564   23382044.3004
     -2222.2444
   1067124.27048    816801.40244  22905195.0654   22905191.5624
     -1872.9674
  -2057702.58249  -1580775.71945  21713649.8554   21713648.1444
      2965.0614
 04  9 14 14 52 14.9990000  0  7G 1G11G14G15G19G22G25
  -2001409.78148  -1537649.88745  21775432.6124   21775430.5854
      2814.0424
  -1634232.72349  -1256469.98845  21570633.9564   21570630.5154
      2206.8464
    872745.19949    668568.14546  21036946.8004   21036943.8904
     -1591.3834
   2021914.98847   1549007.24642  23381089.3554   23381089.6674
     -3316.7734
   1302415.52747    997641.05543  23388413.2224   23388410.0154
     -2230.0264
   1095316.61748    838769.41844  22910560.0974   22910556.2694
     -1879.4904
  -2102022.77749  -1615310.93445  21705216.3624   21705214.5264
      2954.6804
 04  9 14 14 52 29.9990000  0  7G 1G11G14G15G19G22G25
  -2043479.83648  -1570431.75045  21767426.7374   21767424.7304
      2804.6704
  -1667160.43749  -1282127.95345  21564367.8084   21564364.2884
      2195.1814
    896747.40649    687271.15246  21041514.0734   21041511.1244
     -1600.1474
   2071770.87947   1587855.93442  23390576.3474   23390576.9134
     -3323.7264
   1335980.57847   1023795.61343  23394800.6514   23394796.8004
     -2237.6704
   1123605.23048    860812.46544  22915942.8004   22915939.6984
     -1885.9084
  -2146188.52749  -1649725.80545  21696812.4404   21696810.0464
      2944.3834
 04  9 14 14 52 44.9990000  0  7G 1G11G14G15G19G22G25
  -2085411.57448  -1603105.82845  21759447.3084   21759445.7104
      2795.4494
  -1699915.40649  -1307651.31645  21558134.5894   21558131.3084
      2183.6654
    920878.43049    706074.53146  21046106.0584   21046103.7414
     -1608.7354
   2121728.38747   1626783.79342  23400083.7454   23400083.4484
     -3330.5014
   1369657.62947   1050037.43843  23401209.1204   23401205.8664
     -2245.1374
   1151987.63748    882928.58244  22921343.8704   22921341.0734
     -1892.1604
  -2190202.00049  -1684022.01645  21688436.0034   21688434.5854
      2934.2324
 04  9 14 14 52 59.9990000  0  7G 1G11G14G15G19G22G25
  -2127205.85948  -1635672.79744  21751493.9254   21751492.8514
      2786.2864
  -1732498.18049  -1333040.50045  21551934.3154   21551931.3514
      2172.1854
    945137.12949    724977.39846  21050722.1984   21050719.6904
     -1617.2474
   2171786.35547   1665789.96942  23409608.9484   23409609.5194
     -3337.1984
   1403445.09847   1076365.30543  23407638.4174   23407634.7304
     -2252.4984
   1180462.89848    905117.06344  22926762.8004   22926758.8154
     -1898.3514
  -2234063.77349  -1718200.00845  21680089.8084   21680088.1634
      2924.1184
 04  9 14 14 53 14.9990000  0  7G 1G11G14G15G19G22G25
  -2168863.63748  -1668133.40645  21743566.6674   21743564.9684
      2777.1854
  -1764909.70349  -1358296.24645  21545766.5974   21545763.4804
      2160.7684
    969522.23049    743978.76646  21055363.1594   21055359.8434
     -1625.6734
   2221943.49247   1704873.39542  23419153.7694   23419153.8004
     -3343.8094
   1437341.78947   1102778.27743  23414089.3314   23414085.0304
     -2259.7794
   1209029.96948    927377.07844  22932199.0504   22932195.2144
     -1904.4714
  -2277774.56649  -1752260.36345  21671771.9484   21671770.1244
      2914.0534
 04  9 14 14 53 29.9990000  0  7G 1G11G14G15G19G22G25
  -2210387.19148  -1700489.41845  21735664.7844   21735663.4994
      2768.2374
  -1797152.00449  -1383420.12145  21539631.3314   21539627.6054
      2149.4874
    994031.07849    763076.55146  21060026.6444   21060023.8314
     -1633.9234
   2272197.08247   1744031.97342  23428716.7534   23428717.1054
     -3350.2394
   1471344.96147   1129274.22343  23420559.6594   23420556.1944
     -2266.8784
   1237686.45748    949706.78144  22937652.2534   22937648.4874
     -1910.4334
  -2321336.51248  -1786204.73445  21663482.0894   21663480.6364
      2904.1304
 04  9 14 14 53 44.9990000  0  7G 1G11G14G15G19G22G25
  -2251777.22349  -1732741.39545  21727788.9954   21727787.5694
      2759.3354
  -1829225.63349  -1408412.57445  21533527.6904   21533524.3044
      2138.2424
   1018662.77349    782270.05546  21064713.8394   21064710.5424
     -1642.1134
   2322546.11347   1783264.92242  23438298.5424   23438298.2304
     -3356.6024
   1505453.35247   1155852.15643  23427050.2924   23427046.7694
     -2273.8934
   1266431.65248    972105.60943  22943122.2924   22943118.7724
     -1916.3464
  -2364750.14549  -1820033.52745  21655220.7064   21655219.4334
      2894.2424
 04  9 14 14 53 59.9990000  0  7G 1G11G14G15G19G22G25
  -2293035.62949  -1764890.81245  21719937.9334   21719935.8904
      2750.5604
  -1861132.33249  -1433274.94545  21527456.0584   21527452.8044
      2127.1134
   1043414.93449    801557.44146  21069423.9954   21069421.2224
     -1650.1444
   2372988.41847   1822570.56342  23447896.5584   23447896.8974
     -3362.8204
   1539664.70347   1182510.31643  23433560.7694   23433556.6474
     -2280.7574
   1295263.50848    994571.95343  22948608.3394   22948605.2724
     -1922.1244
  -2408017.10549  -1853748.03545  21646987.6904   21646985.6594
      2884.4644
 04  9 14 14 54 14.9990000  0  7G 1G11G14G15G19G22G25
  -2334163.80149  -1796938.75045  21712111.7924   21712109.5544
      2741.8784
  -1892873.45349  -1458008.29745  21521416.3234   21521412.2844
      2116.0754
   1068285.80949    820937.32846  21074156.9564   21074153.7104
     -1658.0584
   2423522.13747   1861947.39842  23457512.7844   23457513.0694
     -3368.9154
   1573977.05147   1209247.19543  23440090.4334   23440086.3664
     -2287.4904
   1324180.54748   1017104.69143  22954111.4644   22954107.0344
     -1927.8034
  -2451138.56249  -1887349.17645  21638781.6444   21638779.8624
      2874.7644
 04  9 14 14 54 29.9990000  0  7G 1G11G14G15G19G22G25
  -2375161.91049  -1828885.33245  21704310.3314   21704307.9444
      2733.2074
  -1924448.91049  -1482612.55945  21515407.5504   21515403.8744
      2105.0304
   1093275.07849    840409.46546  21078912.3624   21078909.0504
     -1665.9514
   2474146.82847   1901395.18442  23467146.8234   23467146.7494
     -3374.9794
   1608389.76247   1236062.26643  23446638.3784   23446634.9174
     -2294.1814
   1353182.54748   1039703.61744  22959630.6124   22959626.5344
     -1933.4674
  -2494114.45749  -1920836.88345  21630603.6674   21630601.9014
      2865.0604
 04  9 14 14 54 44.9990000  0  7G 1G11G14G15G19G22G25
  -2416031.46149  -1860731.73445  21696532.8554   21696531.2064
      2724.6374
  -1955860.04349  -1507088.77745  21509430.2694   21509426.2724
      2094.0764
   1118380.82049    859972.37546  21083689.3314   21083686.6444
     -1673.7164
   2524860.55147   1940912.30142  23476797.6984   23476796.9914
     -3380.9154
   1642900.99647   1262954.09443  23453205.7454   23453201.8704
     -2300.7494
   1382267.82847   1062367.45344  22965164.7224   22965161.5654
     -1939.0194
  -2536945.96949  -1954212.07445  21622453.0814   21622450.8904
      2855.4344
 04  9 14 14 54 59.9990000  0  7G 1G11G14G15G19G22G25
  -2456773.98849  -1892479.16445  21688779.6444   21688777.5424
      2716.1684
  -1987108.28549  -1531438.06645  21503484.1514   21503479.8354
      2083.2164
   1143601.31349    879624.69146  21088488.9484   21088486.2104
     -1681.3664
   2575661.46147   1980497.39542  23486464.2064   23486464.9054
     -3386.7274
   1677508.77047   1289921.16443  23459791.1444   23459787.8584
     -2307.1854
   1411434.87948   1085094.96143  22970715.0504   22970712.0384
     -1944.4704
  -2579634.49249  -1987475.85545  21614330.0974   21614327.7844
      2845.9024
 04  9 14 14 55 14.9990000  0  7G 1G11G14G15G19G22G25
  -2497390.03949  -1924128.02345  21681050.3784   21681048.8234
      2707.7374
  -2018194.14849  -1555660.82845  21497568.4254   21497564.5074
      2072.3914
   1168935.64149    899365.70346  21093309.5974   21093306.4524
     -1688.9554
   2626548.64847   2020149.68842  23496148.3944   23496147.1554
     -3392.4794
   1712211.91047   1316962.54343  23466395.3084   23466391.9374
     -2313.5434
   1440682.91447   1107885.60543  22976280.7454   22976276.9914
     -1949.8694
  -2622180.36749  -2020628.48845  21606233.8084   21606231.7614
      2836.3924
 04  9 14 14 55 29.9990000  0  7G 1G11G14G15G19G22G25
  -2537881.03149  -1955679.45745  21673345.2224   21673343.4484
      2699.3994
  -2049118.71549  -1579757.89845  21491683.6054   21491679.7724
      2061.6384
   1194382.08649    919194.09446  21098152.1984   21098149.3944
     -1696.4304
   2677520.41047   2059867.89842  23505847.4564   23505847.3664
     -3398.1174
   1747008.58247   1344076.79343  23473017.1904   23473013.3704
     -2319.7784
   1470010.60548   1130738.30943  22981861.4174   22981858.5384
     -1955.1794
  -2664584.74249  -2053670.85245  21598164.0894   21598162.2694
      2826.9584
 04  9 14 14 55 44.9990000  0  7G 1G11G14G15G19G22G25
  -2578248.09449  -1987134.31645  21665663.6204   21665662.1014
      2691.1374
  -2079883.03149  -1603730.09845  21485829.1904   21485825.8744
      2050.9544
   1219939.17249    939108.68446  21103015.3234   21103012.3554
     -1703.8064
   2728575.21947   2099650.78142  23515563.7064   23515562.6164
     -3403.6544
   1781897.26247   1371262.74643  23479656.4334   23479652.4834
     -2325.9124
   1499416.69148   1153652.10543  22987458.3624   22987455.0074
     -1960.4064
  -2706848.63349  -2086603.73445  21590121.3784   21590119.6204
      2817.5934
 04  9 14 14 55 59.9990000  0  7G 1G11G14G15G19G22G25
  -2618492.25849  -2018493.40645  21658005.4564   21658003.8044
      2682.9444
  -2110487.95749  -1627578.10245  21480005.5504   21480001.9174
      2040.3284
   1245605.52049    959108.41846  21107899.7844   21107896.4834
     -1711.0904
   2779711.66447   2139497.32442  23525293.9334   23525294.1714
     -3409.0964
   1816876.40247   1398519.19543  23486312.5894   23486308.8784
     -2331.9434
   1528899.94948   1176626.05943  22993068.2224   22993064.8824
     -1965.5514
  -2748972.88749  -2119427.83645  21582105.4804   21582103.3824
      2808.2844
 04  9 14 14 56 14.9990000  0  7G 1G11G14G15G19G22G25
  -2658613.88349  -2049757.01645  21650370.7224   21650369.0224
      2674.7754
  -2140933.77749  -1651302.12945  21474211.8154   21474208.1904
      2029.7214
   1271380.35949    979192.69146  21112804.4094   21112802.0624
     -1718.3234
   2830929.03147   2179406.89842  23535040.9334   23535040.7924
     -3414.4914
   1851945.18047   1425845.48043  23492986.1984   23492982.3194
     -2337.9184
   1558459.96948   1199659.79743  22998693.4254   22998690.5654
     -1970.6684
  -2790957.54749  -2152143.14545  21574116.0584   21574113.9484
      2798.9774
 04  9 14 14 56 29.9990000  0  7G 1G11G14G15G19G22G25
  -2698615.07449  -2080926.77045  21642758.5194   21642756.9054
      2666.7464
  -2171222.47349  -1674903.71545  21468448.1444   21468444.6054
      2019.2464
   1297261.34449    999359.68446  21117729.6054   21117726.8744
     -1725.3994
   2882224.98047   2219377.69142  23544802.4874   23544802.1014
     -3419.7304
   1887100.93847   1453239.55943  23499675.7764   23499672.4404
     -2343.7174
   1588094.63348   1222751.71143  23004332.2764   23004329.7844
     -1975.6444
  -2832804.43049  -2184751.10245  21566153.2064   21566151.2654
      2789.7924
 04  9 14 14 56 44.9990000  0  7G 1G11G14G15G19G22G25
  -2738495.96149  -2112002.79345  21635169.8084   21635168.2454
      2658.7264
  -2201354.02749  -1698382.85945  21462714.1514   21462710.8704
      2008.7704
   1323247.98849   1019609.00046  21122674.4404   21122671.9374
     -1732.4434
   2933598.92647   2259409.27042  23554577.9014   23554578.3084
     -3424.9304
   1922343.27347   1480701.07443  23506382.6364   23506378.2924
     -2349.4894
   1617803.69548   1245901.57043  23009986.4094   23009983.4374
     -1980.6044
  -2874513.49649  -2217251.66445  21558215.9954   21558213.9294
      2780.6044
 04  9 14 14 56 59.9990000  0  7G 1G11G14G15G19G22G25
  -2778257.00049  -2142985.42645  21627603.6904   21627601.9374
      2650.7364
  -2231328.66049  -1721739.73045  21457009.9334   21457006.8944
      1998.3094
   1349339.66849   1039940.16446  21127639.8394   21127636.3434
     -1739.4454
   2985050.09447   2299501.05142  23564369.5654   23564369.0544
     -3430.0784
   1957671.23047   1508229.33243  23513105.2924   23513101.0894
     -2355.1974
   1647586.75848   1269109.10943  23015653.7924   23015650.0734
     -1985.5374
  -2916085.04349  -2249645.08245  21550305.2454   21550303.4524
      2771.4364
 04  9 14 14 57 14.9990000  0  7G 1G11G14G15G19G22G25
  -2817900.28549  -2173876.29345  21620059.3554   21620057.7534
      2642.8864
  -2261148.21549  -1744975.75845  21451335.6904   21451333.0034
      1987.9704
   1375533.93449   1060351.27046  21132624.1754   21132621.5694
     -1746.2844
   3036576.01247   2339651.06342  23574173.9874   23574173.7844
     -3435.0614
   1993082.33247   1535822.35943  23519843.5654   23519839.8434
     -2360.7404
   1677441.53547   1292372.52743  23021334.7844   23021331.8434
     -1990.3184
  -2957520.87549  -2281932.74645  21542420.3154   21542418.1244
      2762.3894
 04  9 14 14 57 29.9990000  0  7G 1G11G14G15G19G22G25
  -2857425.45749  -2204675.12545  21612537.6514   21612536.3664
      2635.0114
  -2290812.19949  -1768090.56645  21445690.8154   21445687.6474
      1977.5994
   1401830.81349   1080842.33246  21137628.4404   21137625.4294
     -1753.1254
   3088176.74647   2379859.35942  23583994.0584   23583992.9214
     -3440.0494
   2028576.43847   1563480.08243  23526597.7924   23526594.1124
     -2366.2744
   1707368.31348   1315692.05544  23027029.9254   23027026.8434
     -1995.1184
  -2998820.34049  -2314114.13745  21534561.2224   21534559.3084
      2753.2984
 04  9 14 14 57 44.9990000  0  7G 1G11G14G15G19G22G25
  -2896833.74649  -2235382.88745  21605038.7924   21605037.4134
      2627.2194
  -2320321.82849  -1791085.10545  21440075.5034   21440072.3084
      1967.3094
   1428228.69149   1101412.09046  21142651.8624   21142649.4914
     -1759.8594
   3139850.68847   2420124.73042  23593826.5504   23593826.5114
     -3444.9294
   2064151.74247   1591201.06343  23533367.3784   23533363.8194
     -2371.6874
   1737365.78947   1339066.67243  23032738.1834   23032734.9604
     -1999.8324
  -3039984.55549  -2346190.15245  21526728.0654   21526725.9564
      2744.2814
 04  9 14 14 57 59.9990000  0  7G 1G11G14G15G19G22G25
  -2936125.09849  -2265999.52745  21597561.8554   21597560.1204
      2619.4234
  -2349676.91049  -1813959.19945  21434489.5034   21434486.0934
      1957.0054
   1454727.30549   1122060.34846  21147694.5194   21147691.4054
     -1766.5744
   3191597.59847   2460446.92642  23603673.7224   23603673.3784
     -3449.7944
   2099807.89547   1618985.05143  23540152.8944   23540148.8434
     -2377.0774
   1767433.79747   1362496.25043  23038460.1204   23038457.0154
     -2004.5344
  -3081013.38349  -2378160.65645  21518920.5264   21518918.5734
      2735.2554
 04  9 14 14 58 14.9990000  0  7G 1G11G14G15G19G22G25
  -2975301.12149  -2296526.29745  21590107.0894   21590105.2064
      2611.7354
  -2378878.94949  -1836714.05145  21428932.6904   21428929.0224
      1946.8034
   1481324.87549   1142785.71546  21152755.5814   21152753.0734
     -1773.1714
   3243415.35547   2500824.34442  23613534.3154   23613533.9484
     -3454.5174
   2135542.88747   1646830.45742  23546952.6674   23546948.8154
     -2382.3334
   1797570.67248   1385979.49243  23044195.1594   23044191.9684
     -2009.1254
  -3121908.20349  -2410026.75445  21511138.5264   21511136.4604
      2726.3214
 04  9 14 14 58 29.9990000  0  7G 1G11G14G15G19G22G25
  -3014362.32849  -2326963.61745  21582674.4404   21582671.8784
      2604.0804
  -2407928.27349  -1859349.90245  21423404.6364   21423401.0344
      1936.6224
   1508020.45749   1163587.44546  21157835.8864   21157833.4484
     -1779.7054
   3295303.27747   2541256.42242  23623408.1124   23623407.9444
     -3459.1954
   2171355.75047   1674736.55143  23553767.7064   23553764.1984
     -2387.5244
   1827775.97347   1409516.05143  23049943.2694   23049939.3624
     -2013.6874
  -3162669.15649  -2441788.52745  21503381.8784   21503379.9484
      2717.3974
 04  9 14 14 58 44.9990000  0  7G 1G11G14G15G19G22G25
  -3053309.12549  -2357311.77045  21575262.6904   21575261.0464
      2596.4534
  -2436825.10949  -1881866.92646  21417905.4564   21417902.6444
      1926.4564
   1534813.32449   1184464.99646  21162934.0114   21162931.0854
     -1786.1914
   3347260.55947   2581742.55542  23633294.3234   23633294.9954
     -3463.8194
   2207245.65247   1702702.68042  23560597.0114   23560593.4954
     -2392.6604
   1858049.14547   1433105.50843  23055703.4254   23055699.6904
     -2018.2114
  -3203296.48449  -2473446.17245  21495651.0584   21495648.7264
      2708.4894
 04  9 14 14 58 59.9990000  0  8G 1G20G11G14G15G19G22G25
  -3092142.88349  -2387571.84845  21567872.7374   21567870.9404
      2588.9174
   -126862.22357    -91867.26252  23974598.8234   23974596.1244

  -2465570.62549  -1904266.04346  21412435.8784   21412431.9444
      1916.3684
   1561701.89849   1205417.10946  21168051.3314   21168048.5814
     -1792.5724
   3399285.55946   2622281.46142  23643195.3944   23643194.9834
     -3468.3334
   2243210.69947   1730727.34443  23567441.9874   23567437.5034
     -2397.6704
   1888388.78948   1456746.77343  23061476.7304   23061473.2654
     -2022.6434
  -3243791.23849  -2505000.51645  21487944.8084   21487942.8664
      2699.6504
 04  9 14 14 59 14.9990000  0  8G 1G20G11G14G15G19G22G25
  -3130863.58249  -2417743.83245  21560504.5894   21560502.8904
      2581.3804
   -176097.68747   -130232.55142  23965229.6364   23965226.5074
      3282.3644
  -2494164.65249  -1926547.11345  21406994.2454   21406990.8624
      1906.2684
   1588685.85949   1226443.56646  21173185.8784   21173183.0034
     -1798.9314
   3451377.82446   2662872.79342  23653109.1054   23653108.0464
     -3472.8184
   2279250.48047   1758810.25043  23574299.9094   23574295.7494
     -2402.6524
   1918794.81348   1480439.73843  23067263.6514   23067259.7144
     -2027.0684
  -3284153.31649  -2536451.48445  21480264.2924   21480261.9524
      2690.8054
 04  9 14 14 59 29.9990000  0  8G 1G20G11G14G15G19G22G25
  -3169472.67649  -2447828.83645  21553157.6054   21553155.5774
      2573.9404
   -225298.93446   -168571.16042  23955865.8394   23955864.0894
      3280.0834
  -2522608.52749  -1948711.18045  21401581.6904   21401578.3664
      1896.2584
   1615763.43449   1247542.96546  21178338.6834   21178336.4644
     -1805.1724
   3503535.71147   2703515.21542  23663034.0264   23663033.6324
     -3477.1924
   2315363.18447   1786949.99243  23581171.7224   23581167.4094
     -2407.5144
   1949265.77048   1504183.28943  23073061.5894   23073058.1084
     -2031.3974
  -3324383.91049  -2567800.00045  21472608.7454   21472606.3194
      2682.0404
 04  9 14 14 59 44.9990000  0  8G 1G20G11G14G15G19G22G25
  -3207970.88749  -2477827.44545  21545831.3624   21545829.5624
      2566.5474
   -274466.73447   -206883.75042  23946510.5584   23946507.9294
      3277.8534
  -2550902.92649  -1970758.77745  21396197.3004   21396194.3124
      1886.2934
   1642933.51249   1268714.43446  21183509.1364   21183506.3044
     -1811.3394
   3555758.07446   2744207.91842  23672971.4484   23672971.6554
     -3481.4914
   2351547.46547   1815145.50843  23588057.5814   23588053.4254
     -2412.2854
   1979800.76648   1527976.75844  23078872.1834   23078869.3554
     -2035.6664
  -3364483.50449  -2599046.42645  21464977.8154   21464976.2304
      2673.3064
 04  9 14 14 59 59.9990000  0  8G 1G20G11G14G15G19G22G25
  -3246357.39849  -2507739.01645  21538526.6124   21538524.7884
      2559.1014
   -323600.16447   -245169.52042  23937161.2694   23937158.0894
      3275.5624
  -2579046.71549  -1992689.00845  21390841.5584   21390838.5734
      1876.2534
   1670196.78149   1289958.53545  21188696.7224   21188694.3124
     -1817.5514
   3608045.39547   2784951.21142  23682921.2694   23682921.8944
     -3485.8214
   2387803.91847   1843397.25043  23594956.7224   23594952.9604
     -2417.0974
   2010400.55548   1551820.68843  23084695.8784   23084691.9214
     -2039.9864
  -3404451.14549  -2630190.03145  21457372.1674   21457370.4094
      2664.5094
 04  9 14 15  0 14.9990000  0  8G 1G20G11G14G15G19G22G25
  -3284632.80149  -2537564.00845  21531243.2374   21531241.4174
      2551.6934
   -372699.83247   -283429.01642  23927817.4564   23927815.1674
      3273.3114
  -2607040.50849  -2014502.37545  21385514.7374   21385511.6474
      1866.2534
   1697552.18049   1311274.41046  21193902.4334   21193900.2574
     -1823.6934
   3660396.72747   2825744.39542  23692884.4174   23692884.7724
     -3490.0894
   2424131.21947   1871704.20743  23601870.1444   23601866.1944
     -2421.8204
   2041064.42248   1575714.58643  23090530.3234   23090526.9764
     -2044.2584
  -3444287.08649  -2661231.02745  21449791.9174   21449789.6754
      2655.7294
 04  9 14 15  0 29.9990000  0  8G 1G20G11G14G15G19G22G25
  -3322795.88349  -2567301.47345  21523981.0034   21523979.1714
      2544.2054
   -421764.51647   -321661.22342  23918481.0424   23918478.5384
      3270.9794
  -2634882.87949  -2036197.73845  21380216.3864   21380213.3744
      1856.1584
   1725000.69149   1332662.85246  21199125.8394   21199123.0934
     -1829.9014
   3712812.95746   2866588.12942  23702858.4014   23702859.6364
     -3494.4154
   2460530.25447   1900067.04742  23608796.0264   23608793.1364
     -2426.6024
   2071793.56348   1599659.35243  23096378.1904   23096374.1554
     -2048.6094
  -3483990.04749  -2692168.39845  21442236.4094   21442234.4724
      2646.8644
 04  9 14 15  0 44.9990000  0  8G 1G20G11G14G15G19G22G25
  -3360847.17249  -2596951.82845  21516739.9334   21516738.4174
      2536.7534
   -470794.69147   -359866.55942  23909151.2454   23909147.8864
      3268.6784
  -2662574.25849  -2057775.44945  21374947.1674   21374943.7374
      1846.0924
   1752541.46149   1354123.17245  21204366.4724   21204363.9404
     -1836.0514
   3765293.13346   2907481.71542  23712844.9954   23712845.8394
     -3498.6784
   2497000.10246   1928485.07043  23615736.2374   23615732.7224
     -2431.3234
   2102587.45348   1623654.53143  23102238.2534   23102235.0344
     -2052.9264
  -3523560.24249  -2723002.32445  21434706.6674   21434704.7494
      2638.0134
 04  9 14 15  0 59.9990000  0  8G 1G20G11G14G15G19G22G25
  -3398787.47349  -2626515.69945  21509520.0504   21509518.8354
      2529.3534
   -519791.19547   -398045.64542  23899827.2454   23899824.4014
      3266.4344
  -2690115.25049  -2079235.96545  21369705.8154   21369702.7884
      1836.0664
   1780173.44549   1375654.57845  21209624.5584   21209621.5194
     -1842.1324
   3817836.15646   2948424.27742  23722843.6444   23722844.8584
     -3502.8684
   2533539.60247   1956957.36742  23622689.3944   23622685.9804
     -2435.9674
   2133445.13748   1647699.44143  23108110.1674   23108106.9014
     -2057.1794
  -3562998.41449  -2753733.35545  21427201.7064   21427199.7614
      2629.2114
 04  9 14 15  1 14.9990000  0  8G 1G20G11G14G15G19G22G25
  -3436616.37949  -2655992.77345  21502321.7614   21502320.2964
      2521.9274
   -568753.57847   -436198.14842  23890510.5654   23890507.3274
      3264.1594
  -2717505.39549  -2100578.96145  21364493.9174   21364490.4684
      1826.0104
   1807896.69149   1397257.09045  21214900.3004   21214897.2024
     -1848.2164
   3870442.12146   2989415.85542  23732852.7764   23732855.4094
     -3507.0644
   2570148.50446   1985483.74642  23629656.5424   23629651.8474
     -2440.5934
   2164366.87948   1671794.26243  23113994.1904   23113991.2454
     -2061.4494
  -3602303.79349  -2784360.91045  21419722.1514   21419720.0934
      2620.3594
 04  9 14 15  1 29.9990000  0  8G 1G20G11G14G15G19G22G25
  -3474334.08649  -2685383.19145  21495143.9564   21495142.7304
      2514.5144
   -617681.91447   -474324.13342  23881199.9644   23881196.8274
      3261.8894
  -2744744.52349  -2121804.26246  21359310.3624   21359307.1284
      1815.9424
   1835710.79749   1418930.40646  21220193.4874   21220190.2104
     -1854.2744
   3923110.48846   3030456.09442  23742876.2844   23742878.0264
     -3511.2244
   2606826.18046   2014063.73443  23636635.8784   23636631.6124
     -2445.1784
   2195352.50048   1695938.84843  23119891.5114   23119888.2764
     -2065.7084
  -3641476.39149  -2814885.00445  21412267.9484   21412266.0034
      2611.5074
 04  9 14 15  1 44.9990000  0  8G 1G20G11G14G15G19G22G25
  -3511940.92649  -2714687.21945  21487988.0424   21487986.7654
      2507.1234
   -666576.67647   -512423.94142  23871895.1364   23871892.4404
      3259.6514
  -2771833.08249  -2142912.24245  21354155.8154   21354152.3234
      1805.9044
   1863614.98049   1440673.91445  21225502.9094   21225500.0224
     -1860.2794
   3975840.53146   3071544.37142  23752910.6674   23752911.8904
     -3515.3364
   2643571.94146   2042696.76642  23643628.2064   23643623.9604
     -2449.7174
   2226401.46548   1720132.83243  23125799.2844   23125795.9764
     -2069.9314
  -3680516.34849  -2845305.73845  21404838.6054   21404836.9094
      2602.6644
 04  9 14 15  1 59.9990000  0  8G 1G20G11G14G15G19G22G25
  -3549437.45749  -2743905.29345  21480852.6364   21480850.9374
      2499.7694
   -715438.35547   -550497.97742  23862596.5034   23862593.5224
      3257.4454
  -2798771.41049  -2163903.16845  21349029.5114   21349025.6634
      1795.8894
   1891608.37549   1462486.93845  21230830.2224   21230827.0624
     -1866.2264
   4028631.40246   3112680.05542  23762956.8624   23762957.1324
     -3519.3914
   2680384.78547   2071382.07042  23650633.3154   23650629.5344
     -2454.1904
   2257513.22748   1744375.73043  23131719.6754   23131716.2064
     -2074.1174
  -3719424.00049  -2875623.38345  21397434.7304   21397433.2534
      2593.8434
 04  9 14 15  2 14.9990000  0  8G 1G20G11G14G15G19G22G25
  -3586822.88349  -2773036.79345  21473738.6594   21473736.8354
      2492.3624
   -764266.16047   -588545.61342  23853304.8474   23853301.9564
      3255.1874
  -2825558.57049  -2184776.27745  21343931.9334   21343928.7764
      1785.8114
   1919691.54749   1484369.91045  21236174.3314   21236171.2534
     -1872.2114
   4081483.58246   3153863.50442  23773014.2924   23773014.1284
     -3523.4794
   2717265.01646   2100119.89142  23657651.4954   23657647.7184
     -2458.6824
   2288688.52348   1768668.11743  23137651.8314   23137648.4604
     -2078.3534
  -3758198.42649  -2905837.21545  21390056.2844   21390054.5154
      2584.9624
 04  9 14 15  2 29.9990000  0  8G 1G20G11G14G15G19G22G25
  -3624098.84849  -2802083.00845  21466645.0114   21466643.3584
      2485.0644
   -813061.68447   -626568.08642  23844019.5504   23844016.5194
      3253.0354
  -2852196.02749  -2205532.75445  21338863.5034   21338860.1634
      1775.8304
   1947862.65249   1506321.41045  21241534.8084   21241532.6674
     -1878.0744
   4134395.01246   3195093.12142  23783082.9724   23783082.7694
     -3527.4294
   2754210.61746   2128908.62942  23664681.8474   23664678.0974
     -2463.0404
   2319925.60948   1793008.67243  23143596.0504   23143592.7924
     -2082.4724
  -3796840.89849  -2935948.22346  21382702.9254   21382701.3044
      2576.1654
 04  9 14 15  2 44.9990000  0  8G 1G20G11G14G15G19G22G25
  -3661265.03949  -2831043.68045  21459572.5034   21459570.8474
      2477.7464
   -861824.54747   -664565.13342  23834740.1444   23834737.4724
      3250.8584
  -2878683.43449  -2226172.30145  21333822.9874   21333819.4874
      1765.8274
   1976121.56649   1528341.32845  21246912.7144   21246909.5584
     -1883.9284
   4187365.65646   3236368.89542  23793163.4254   23793162.2804
     -3531.3764
   2791221.36746   2157748.12943  23671725.5584   23671721.5544
     -2467.3834
   2351224.78948   1817397.62943  23149552.4484   23149549.2574
     -2086.6124
  -3835350.98449  -2965956.08645  21375374.6514   21375372.9254
      2567.3394
 04  9 14 15  2 59.9990000  0  7G 1G20G11G14G19G22G25
  -3698322.44149  -2859919.57445  21452520.5034   21452518.7414
      2470.4934
   -910555.70747   -702537.46142  23825467.1444   23825463.9294
      3248.7444
  -2905021.43049  -2246695.43045  21328810.7304   21328807.9564
      1755.8664
   2004467.19149   1550428.82045  21252306.6054   21252304.3274
     -1889.7084
   2828295.88746   2186637.33242  23678780.1284   23678776.7614
     -2471.6354
   2382585.09448   1841834.18043  23155519.7764   23155516.9014
     -2090.6874
  -3873729.44949  -2995861.37545  21368071.6514   21368069.7064
      2558.5644
 04  9 14 15  3 14.9990000  0  7G 1G20G11G14G19G22G25
  -3735270.89849  -2888710.58245  21445489.9404   21445487.7224
      2463.2304
   -959254.97347   -740484.93742  23816199.8084   23816196.3514
      3246.6184
  -2931209.69549  -2267101.87945  21323827.7614   21323824.6904
      1745.8844
   2032899.28549   1572583.67645  21257716.9724   21257714.5304
     -1895.4734
   2865434.03546   2215576.10942  23685847.3394   23685843.6164
     -2475.8774
   2414006.46148   1866318.33643  23161499.4564   23161496.6554
     -2094.7584
  -3911975.84049  -3025663.75045  21360793.5194   21360791.3784
      2549.7594
 04  9 14 15  3 29.9990000  0  7G 1G20G11G14G19G22G25
  -3772110.28549  -2917416.60245  21438479.3004   21438477.4914
      2455.9594
  -1007922.07847   -778407.37142  23806938.4564   23806935.0074
      3244.4744
  -2957248.05149  -2287391.51646  21318872.5654   21318869.3354
      1735.8904
   2061417.68049   1594805.78946  21263143.8004   21263141.4254
     -1901.2264
   2902635.45746   2244564.18842  23692926.8864   23692923.1284
     -2480.0954
   2445489.14148   1890850.24643  23167490.2454   23167487.7064
     -2098.8454
  -3950089.84049  -3055362.96545  21353540.2534   21353538.4134
      2540.9334
 04  9 14 15  3 44.9990000  0  7G 1G20G11G14G19G22G25
  -3808840.29349  -2946037.39145  21431489.7694   21431487.7964
      2448.6674
  -1056556.82447   -816304.55942  23797684.0584   23797680.5304
      3242.3164
  -2983136.07049  -2307564.01245  21313946.1124   21313943.1054
      1725.8684
   2090022.44949   1617095.19945  21268586.9954   21268584.5894
     -1906.9854
   2939899.91446   2273601.39143  23700017.5344   23700014.1124
     -2484.2974
   2477033.16848   1915429.96143  23173492.7454   23173490.0464
     -2102.9354
  -3988070.92249  -3084958.60545  21346313.2534   21346311.1364
      2532.0724
 04  9 14 15  3 59.9990000  0  7G 1G20G11G14G19G22G25
  -3845460.59049  -2974572.69545  21424521.2064   21424519.3004
      2441.3534
  -1105158.80547   -854176.26242  23788435.3234   23788431.9404
      3240.1324
  -3008873.21949  -2327618.94145  21309048.7224   21309045.0264
      1715.8104
   2118713.61749   1639451.94945  21274046.8554   21274044.4914
     -1912.7454
   2977227.37146   2302687.66843  23707120.8474   23707117.4564
     -2488.4974
   2508638.87148   1940057.73843  23179507.3234   23179504.1474
     -2107.0474
  -4025918.76249  -3114450.42646  21339110.7064   21339109.1474
      2523.1894
 04  9 14 15  4 14.9990000  0  7G 1G20G11G14G19G22G25
  -3881972.56249  -3003023.58645  21417573.1444   21417571.1754
      2434.1324
  -1153729.24247   -892023.35542  23779192.2534   23779189.3354
      3238.0294
  -3034460.87149  -2347557.39145  21304179.5504   21304176.1674
      1705.8434
   2147489.45749   1661874.67645  21279522.7064   21279520.5694
     -1918.3894
   3014615.94946   2331821.59842  23714235.8944   23714232.3904
     -2492.5724
   2540304.89848   1964732.52743  23185533.6204   23185530.5264
     -2111.0684
  -4063634.38749  -3143839.21946  21331934.0114   21331932.0974
      2514.3754
 04  9 14 15  4 29.9990000  0  7G 1G20G11G14G19G22G25
  -3918377.01649  -3031390.69545  21410645.7374   21410643.8584
      2426.9644
  -1202268.94947   -929846.50842  23769956.0814   23769952.6054
      3235.9804
  -3059899.66849  -2367379.84045  21299338.5654   21299335.0344
      1695.9204
   2176348.83649   1684362.49645  21285014.4954   21285011.9764
     -1923.9594
   3052064.42246   2361002.19543  23721361.9564   23721358.4804
     -2496.5654
   2572030.37548   1989453.63743  23191570.4094   23191568.1514
     -2115.0324
  -4101218.26249  -3173125.35546  21324781.8624   21324779.8904
      2505.5924
 04  9 14 15  4 44.9990000  0  7G 1G20G11G14G19G22G25
  -3954675.07849  -3059674.89845  21403738.4564   21403736.4994
      2419.8714
  -1250779.12947   -967646.63342  23760724.4564   23760721.7144
      3234.0124
  -3085190.48449  -2387086.97745  21294525.7534   21294522.4254
      1686.0544
   2205290.43449   1706914.37945  21290521.9094   21290520.1324
     -1929.4404
   3089571.30946   2390228.29343  23728499.8864   23728496.1874
     -2500.4594
   2603814.06648   2014220.09843  23197618.9724   23197615.4374
     -2118.9134
  -4138671.29749  -3202309.53146  21317654.8944   21317653.0544
      2496.8694
 04  9 14 15  4 59.9990000  0  7G 1G20G11G14G19G22G25
  -3990866.48449  -3087875.99245  21396851.2374   21396849.7264
      2412.7604
  -1299259.34847  -1005423.42642  23751498.9404   23751496.3624
      3232.0154
  -3110332.95749  -2406678.52345  21289741.6834   21289737.8394
      1676.1654
   2234314.30549   1729530.36745  21296045.2374   21296042.2884
     -1934.9254
   3127136.38746   2419499.75043  23735646.6984   23735644.3354
     -2504.3394
   2635656.15648   2039032.07043  23203677.7374   23203675.6054
     -2122.8064
  -4175993.14149  -3231391.47345  21310552.2924   21310550.8194
      2488.1234
 04  9 14 15  5 14.9990000  0  7G 1G20G11G14G19G22G25
  -4026952.13349  -3115994.68445  21389984.5264   21389982.8044
      2405.7104
  -1347710.50047  -1043177.56242  23742278.4724   23742276.1674
      3230.0774
  -3135327.79749  -2426155.02045  21284984.9954   21284981.5464
      1666.3234
   2263419.29349   1752209.57045  21301583.6834   21301580.8864
     -1940.3334
   3164758.39146   2448815.56643  23742806.7844   23742803.3154
     -2508.1344
   2667555.71148   2063888.83243  23209748.0894   23209745.4564
     -2126.6374
  -4213184.43049  -3260371.69546  21303475.3314   21303473.5734
      2479.4194
 04  9 14 15  5 29.9990000  0  7G 1G20G11G14G19G22G25
  -4062932.94149  -3144031.68445  21383137.4014   21383135.7264
      2398.7214
  -1396133.57047  -1080909.82042  23733064.5504   23733061.3274
      3228.2054
  -3160175.84449  -2445517.15645  21280256.4954   21280253.0774
      1656.5364
   2292604.01249   1774950.90245  21307137.1754   21307134.4764
     -1945.6484
   3202435.91046   2478174.62942  23749976.8234   23749973.9014
     -2511.8354
   2699511.66848   2088789.51643  23215829.6514   23215826.7804
     -2130.3974
  -4250245.98849  -3289250.82046  21296422.6204   21296420.8124
      2470.7714
 04  9 14 15  5 44.9990000  0  7G 1G20G11G14G19G22G25
  -4098808.67249  -3171986.79345  21376310.5974   21376308.6944
      2391.7154
  -1444528.21547  -1118619.92642  23723855.9334   23723852.4874
      3226.3104
  -3184876.73449  -2464764.60945  21275556.2844   21275552.4724
      1646.7264
   2321868.49649   1797754.37545  21312705.9644   21312703.0194
     -1950.9664
   3240168.66846   2507576.75442  23757157.1834   23757153.8944
     -2515.5174
   2731524.27348   2113734.36343  23221921.1674   23221918.2144
     -2134.1744
  -4287177.26649  -3318028.43445  21289395.1054   21289393.0114
      2462.0854
 04  9 14 15  5 59.9990000  0  7G 1G20G11G14G19G22G25
  -4134580.73049  -3199861.12945  21369503.3554   21369501.5894
      2384.8044
  -1492895.69947  -1156308.88342  23714651.9644   23714648.6364
      3224.4994
  -3209431.65649  -2483898.32845  21270883.4564   21270880.0584
      1636.9954
   2351211.08249   1820618.72745  21318289.5814   21318287.0384
     -1956.1724
   3277954.82446   2537020.44543  23764348.2304   23764343.9484
     -2519.0774
   2763592.01648   2138722.18843  23228023.4874   23228021.1164
     -2137.8494
  -4323979.43749  -3346705.44945  21282391.7144   21282389.6834
      2453.4784
 04  9 14 15  6 14.9990000  0  7G 1G20G11G14G19G22G25
  -4170248.82449  -3227654.45345  21362715.9334   21362714.5934
      2377.8734
  -1541235.82847  -1193976.50842  23705452.9174   23705449.7224
      3222.6754
  -3233840.18749  -2502917.96945  21266238.6444   21266235.4994
      1627.2354
   2380631.72749   1843543.88345  21323888.4334   21323885.5504
     -1961.3764
   3315794.26246   2566505.70342  23771547.6054   23771545.0344
     -2522.6294
   2795715.12548   2163753.16043  23234136.5424   23234133.2964
     -2141.5414
  -4360652.09049  -3375281.53946  21275412.9094   21275411.4954
      2444.8434
 04  9 14 15  6 29.9990000  0  7G 1G20G11G14G19G22G25
  -4205813.54349  -3255367.21546  21355948.4254   21355946.7844
      2370.9814
  -1589549.11747  -1231623.22342  23696258.7764   23696256.1084
      3220.8864
  -3258103.01249  -2521824.07446  21261621.7224   21261618.3434
      1617.5224
   2410129.44949   1866529.10545  21329501.5894   21329499.1444
     -1966.5154
   3353686.04746   2596031.71943  23778759.0504   23778755.9524
     -2526.1194
   2827892.93048   2188826.71943  23240259.9954   23240257.1514
     -2145.1874
  -4397195.62148  -3403757.02046  21268458.7924   21268457.3824
      2436.2354
 04  9 14 15  6 44.9990000  0  7G 1G20G11G14G19G22G25
  -4241274.75848  -3282999.34445  21349200.4334   21349198.9174
      2364.0814
  -1637835.47347  -1269248.96142  23687070.6364   23687067.4644
      3219.0904
  -3282219.68749  -2540616.30146  21257032.8004   21257029.4644
      1607.7784
   2439704.27049   1889574.41045  21335129.7144   21335126.7724
     -1971.6554
   3391629.77746   2625598.23442  23785979.3474   23785976.1594
     -2529.5824
   2860125.61748   2213943.06343  23246393.1594   23246390.9014
     -2148.8464
  -4433609.58248  -3432131.53946  21261529.8474   21261527.9874
      2427.5974
 04  9 14 15  6 59.9990000  0  7G 1G20G11G14G19G22G25
  -4276632.93749  -3310551.16845  21342472.0344   21342470.4054
      2357.2124
  -1686095.25447  -1306853.99242  23677887.1514   23677883.5344
      3217.3194
  -3306190.60549  -2559294.94946  21252471.2064   21252468.0264
      1598.0614
   2469355.39849   1912679.17645  21340771.9564   21340768.9014
     -1976.7424
   3429624.64847   2655204.58643  23793209.9804   23793206.5814
     -2532.9914
   2892412.60548   2239101.69542  23252536.9404   23252534.3044
     -2152.4664
  -4469894.22349  -3460405.27746  21254625.3474   21254623.0814
      2418.9764
 04  9 14 15  7 14.9990000  0  7G 1G20G11G14G19G22G25
  -4311888.36349  -3338022.93745  21335762.9094   21335761.8154
      2350.3624
  -1734328.57047  -1344438.41042  23668708.2614   23668705.5224
      3215.5544
  -3330015.94949  -2577860.16446  21247937.2924   21247934.4094
      1588.3564
   2499082.22749   1935842.93045  21346428.6514   21346426.2334
     -1981.7894
   3467669.80546   2684850.14142  23800449.1594   23800445.8864
     -2536.3444
   2924753.51247   2264302.35542  23258691.5814   23258688.6204
     -2156.0604
  -4506049.78949  -3488578.43746  21247744.6674   21247743.1984
      2410.3714
 04  9 14 15  7 29.9990000  0  7G 1G20G11G14G19G22G25
  -4347040.28149  -3365414.03545  21329074.1124   21329072.3624
      2343.4614
  -1782534.68447  -1382001.60942  23659535.0344   23659531.9334
      3213.7414
  -3353694.65649  -2596311.10946  21243431.3474   21243428.2574
      1578.5804
   2528885.28149   1959066.07845  21352100.1754   21352096.9804
     -1986.8704
   3505765.73047   2714535.23842  23807698.7224   23807695.2844
     -2539.7284
   2957149.09048   2289545.60242  23264857.1594   23264853.0264
     -2159.7054
  -4542075.13749  -3516650.12146  21240889.2924   21240887.3704
      2401.6904
 04  9 14 15  7 44.9990000  0  7G 1G20G11G14G19G22G25
  -4382089.80149  -3392725.34845  21322404.2454   21322402.5774
      2336.6354
  -1830714.61747  -1419544.42642  23650366.2374   23650364.0424
      3211.9964
  -3377227.69149  -2614648.53946  21238953.2694   21238950.1244
      1568.8694
   2558763.19949   1982347.56645  21357785.4804   21357782.8004
     -1991.8614
   3543910.82447   2744258.65642  23814957.1594   23814953.9444
     -2543.0064
   2989598.07448   2314830.53542  23271031.3004   23271027.9014
     -2163.2664
  -4577971.20349  -3544621.08246  21234058.5424   21234056.7144
      2393.0714
 04  9 14 15  7 59.9990000  0  7G 1G20G11G14G19G22G25
  -4417036.72349  -3419956.72345  21315753.8154   21315752.1874
      2329.7954
  -1878868.12947  -1457066.62942  23641203.5114   23641200.6754
      3210.2344
  -3400614.83649  -2632872.30146  21234502.6284   21234499.2454
      1559.1434
   2588716.00449   2005687.40645  21363485.1364   21363483.1244
     -1996.8544
   3582105.00047   2774020.30542  23822225.3864   23822221.9484
     -2546.2784
   3022100.70348   2340157.21943  23277216.4254   23277213.2694
     -2166.8424
  -4613737.55149  -3572490.95746  21227252.2454   21227250.9014
      2384.4234
 04  9 14 15  8 14.9990000  0  7G 1G20G11G14G19G22G25
  -4451881.20349  -3447108.27345  21309123.2374   21309121.4444
      2322.9654
  -1926995.46147  -1494568.44942  23632044.6754   23632042.3944
      3208.4894
  -3423856.16449  -2650982.43446  21230079.9334   21230076.6944
      1549.4224
   2618743.03149   2029085.07045  21369199.5584   21369197.0424
     -2001.8024
   3620347.50847   2803819.63342  23829502.9484   23829499.3624
     -2549.5014
   3054656.75048   2365525.53943  23283411.9174   23283408.1834
     -2170.4034
  -4649374.23449  -3600259.78146  21220470.9644   21220469.0624
      2375.7794
 04  9 14 15  8 29.9990000  0  7G 1G20G11G14G19G22G25
  -4486623.43749  -3474180.13745  21302512.1284   21302510.0974
      2316.1494
  -1975096.70347  -1532049.92242  23622891.4174   23622888.7724
      3206.7494
  -3446951.67649  -2668978.95345  21225684.9724   21225681.6984
      1539.7014
   2648843.92249   2052540.30145  21374927.5194   21374925.0304
     -2006.7264
   3658637.78947   2833656.16442  23836789.6364   23836785.1714
     -2552.6854
   3087265.96548   2390935.27343  23289616.7224   23289613.7494
     -2173.9484
  -4684881.16849  -3627927.51646  21213714.3004   21213712.5934
      2367.1294
 04  9 14 15  8 44.9990000  0  7G 1G20G11G14G19G22G25
  -4521264.18449  -3501172.93745  21295920.0894   21295918.4134
      2309.3834
  -2023172.54347  -1569511.62942  23613743.2844   23613740.6164
      3205.0564
  -3469902.02049  -2686862.34845  21221317.6834   21221314.2724
      1530.0234
   2679017.55949   2076052.21545  21380669.5114   21380667.0584
     -2011.5764
   3696974.59847   2863528.98042  23844084.5424   23844081.0774
     -2555.7874
   3119927.50448   2416385.77743  23295832.1674   23295829.6244
     -2177.4364
  -4720258.89549  -3655494.57446  21206982.1904   21206980.1514
      2358.5154
 04  9 14 15  8 59.9990000  0  7G 1G20G11G14G19G22G25
  -4555802.46149  -3528085.88745  21289347.6984   21289346.0034
      2302.5524
  -2071221.98047  -1606952.71942  23604599.7534   23604596.9054
      3203.2964
  -3492706.03949  -2704631.71546  21216978.3784   21216975.1124
      1520.2684
   2709264.75049   2099621.43845  21386425.4724   21386422.5154
     -2016.4794
   3735358.44547   2893438.43442  23851388.9644   23851385.7374
     -2558.9234
   3152642.29348   2441877.75843  23302057.8084   23302054.6794
     -2180.9864
  -4755506.35949  -3682960.12546  21200274.5264   21200273.2614
      2349.8314
 04  9 14 15  9 14.9990000  0  7G 1G20G11G14G19G22G25
  -4590238.55949  -3554919.21545  21282794.8154   21282793.1594
      2295.7404
  -2119245.19147  -1644373.41042  23595461.3314   23595458.1944
      3201.5474
  -3515363.91049  -2722287.20345  21212666.6594   21212663.5464
      1510.5254
   2739584.78549   2123247.43845  21392194.9334   21392192.1634
     -2021.3364
   3773788.78547   2923384.11742  23858702.0894   23858698.6984
     -2562.0234
   3185409.98448   2467410.97342  23308292.9404   23308290.0814
     -2184.5134
  -4790623.55149  -3710324.16846  21193592.2304   21193590.3274
      2341.1464
 04  9 14 15  9 29.9990000  0  7G 1G20G11G14G19G22G25
  -4624573.27749  -3581673.53545  21276260.9334   21276259.4724
      2288.9814
  -2167242.97747  -1681774.28542  23586327.6514   23586324.8974
      3199.8524
  -3537876.42249  -2739829.43045  21208382.9644   21208379.7374
      1500.8344
   2769976.66049   2146929.40245  21397978.2844   21397975.8234
     -2026.1254
   3812264.30546   2953364.99642  23866023.7454   23866020.1714
     -2565.0354
   3218229.74248   2492984.81343  23314538.8624   23314535.8864
     -2187.9844
  -4825611.21549  -3737587.27746  21186934.1054   21186932.2884
      2332.5114
 04  9 14 15  9 44.9990000  0  7G 1G20G11G14G19G22G25
  -4658805.75049  -3608348.19145  21269747.0654   21269745.2144
      2282.1654
  -2215214.31247  -1719154.55542  23577198.7844   23577195.7534
      3198.0894
  -3560242.45749  -2757257.52345  21204126.5894   21204123.6204
      1491.0694
   2800441.10949   2170667.93045  21403775.4644   21403772.9524
     -2030.9634
   3850785.43447   2983381.41842  23873354.2224   23873350.5974
     -2568.0754
   3251102.30148   2518599.74643  23320794.0504   23320790.6674
     -2191.5044
  -4860468.09049  -3764748.47746  21180301.4404   21180299.1444
      2323.7924
 04  9 14 15  9 59.9990000  0  7G 1G20G11G14G19G22G25
  -4692937.56649  -3634944.41845  21263251.8394   21263250.0934
      2275.4544
  -2263160.69947  -1756515.36742  23568075.3154   23568072.2494
      3196.4264
  -3582463.37949  -2774572.53545  21199898.0264   21199895.3434
      1481.3954
   2830976.24249   2194461.51245  21409586.4254   21409583.5694
     -2035.6764
   3889350.18847   3013431.85242  23880692.5034   23880689.7694
     -2570.9844
   3284026.14548   2544254.63343  23327059.1284   23327055.6474
     -2194.9234
  -4895195.59449  -3791808.86746  21173692.4254   21173690.6904
      2315.1674
 04  9 14 15 10 14.9990000  0  7G 1G20G11G14G19G22G25
  -4726967.18049  -3661461.00045  21256776.3944   21256774.3624
      2268.6414
  -2311080.63747  -1793855.56642  23558956.6984   23558953.2454
      3194.6634
  -3604537.59849  -2791773.23446  21195697.5344   21195694.4874
      1471.6154
   2861583.26649   2218311.14845  21415410.4404   21415407.9954
     -2040.4684
   3927959.70346   3043517.14142  23888039.8474   23888036.7574
     -2573.9684
   3317002.71148   2569950.61743  23333334.5734   23333330.6634
     -2198.4384
  -4929791.93749  -3818767.05546  21167109.2454   21167107.2104
      2306.4234
 04  9 14 15 10 29.9990000  0  7G 1G20G11G14G19G22G25
  -4760895.65249  -3687898.76645  21250319.9874   21250317.8704
      2261.8984
  -2358975.15647  -1831175.98042  23549842.1514   23549839.0424
      3192.9684
  -3626466.05949  -2808860.35246  21191524.7374   21191521.6084
      1461.8974
   2892260.93049   2242215.79745  21421248.5264   21421245.7024
     -2045.1784
   3966612.40647   3073636.09442  23895395.4954   23895391.5464
     -2576.8474
   3350030.81648   2595686.78943  23339619.8474   23339616.2924
     -2201.8744
  -4964258.09849  -3845623.79346  21160550.5344   21160548.5264
      2297.7444
 04  9 14 15 10 44.9990000  0  7G 1G20G11G14G19G22G25
  -4794722.79349  -3714257.58245  21243882.7144   21243881.1244
      2255.1434
  -2406843.86347  -1868476.27042  23540732.5974   23540729.4914
      3191.2474
  -3648248.36749  -2825833.59046  21187379.7144   21187376.3234
      1452.1544
   2923009.12549   2266175.42645  21427099.3234   21427097.0344
     -2049.8804
   4005308.25846   3103788.68842  23902758.6204   23902755.3944
     -2579.7234
   3383110.71948   2621463.29342  23345914.3474   23345911.4054
     -2205.3274
  -4998593.62549  -3872378.74646  21154016.8554   21154014.7574
      2289.0354
 04  9 14 15 10 59.9990000  0  6G 1G20G11G14G22G25
  -4828448.88349  -3740537.65645  21237464.9804   21237463.3974
      2248.4064
  -2454686.99647  -1905756.65642  23531628.8004   23531625.0694
      3189.5424
  -3669884.80949  -2842693.16446  21183262.5974   21183259.2844
      1442.4294
   2953827.38349   2290189.64145  21432963.7844   21432961.3314
     -2054.5514
   3416242.10948   2647279.91843  23352219.5654   23352217.1244
     -2208.7594
  -5032798.57449  -3899031.95746  21147507.8784   21147506.0224
      2280.3304
 04  9 14 15 11 14.9990000  0  6G 1G20G11G14G22G25
  -4862074.07049  -3766739.09845  21231066.3154   21231064.5304
      2241.6794
  -2502504.72347  -1943017.19542  23522529.3314   23522525.6324
      3187.8484
  -3691375.34049  -2859439.03546  21179172.6834   21179169.7614
      1432.7024
   2984715.07049   2314257.96145  21438841.9484   21438839.0624
     -2059.1794
   3449424.64148   2673136.39843  23358533.7064   23358531.1944
     -2212.1694
  -5066872.91049  -3925583.37946  21141023.9804   21141021.9484
      2271.6224
 04  9 14 15 11 29.9990000  0  6G 1G20G11G14G22G25
  -4895597.07049  -3792860.92245  21224686.7614   21224685.1634
      2234.8674
  -2550295.59846  -1980256.86342  23513434.9174   23513431.2224
      3186.0584
  -3712718.52049  -2876070.09446  21175111.1514   21175108.1284
      1422.8794
   3015673.37949   2338381.30545  21444733.2144   21444730.3904
     -2063.8874
   3482659.61748   2699033.72743  23364858.5974   23364854.4564
     -2215.6654
  -5100815.18749  -3952031.89846  21134564.8084   21134563.0384
      2262.8184
 04  9 14 15 11 44.9990000  0  6G 1G20G11G14G22G25
  -4929018.35249  -3818903.48845  21218327.3154   21218325.4644
      2228.0854
  -2598060.07447  -2017475.94942  23504345.2534   23504342.1124
      3184.2984
  -3733914.64549  -2892586.56646  21171077.8864   21171074.7184
      1413.0754
   3046701.59849   2362559.12545  21450637.6054   21450634.6944
     -2068.5484
   3515946.52348   2724971.52042  23371192.4564   23371189.4134
     -2219.1274
  -5134625.57049  -3978377.63746  21128130.9014   21128129.0814
      2254.0264
 04  9 14 15 11 59.9990000  0  6G 1G20G11G14G22G25
  -4962337.46149  -3844866.43046  21211986.8704   21211984.9724
      2221.2744
  -2645797.63746  -2054674.04342  23495261.1054   23495258.4374
      3182.5044
  -3754963.23049  -2908988.07046  21167072.4484   21167069.3514
      1403.2394
   3077799.83249   2386791.50845  21456555.4094   21456552.8394
     -2073.2164
   3549285.76648   2750950.09443  23377537.1204   23377533.9174
     -2222.6164
  -5168303.50849  -4004620.18046  21121721.7454   21121720.6944
      2245.1964
 04  9 14 15 12 14.9990000  0  6G 1G20G11G14G22G25
  -4995554.39149  -3870749.75446  21205665.8394   21205663.8784
      2214.4624
  -2693508.27746  -2091851.16442  23486181.6284   23486179.5894
      3180.7094
  -3775864.12149  -2925274.48046  21163095.2694   21163092.0934
      1393.3934
   3108967.85549   2411078.27045  21462486.7694   21462483.5974
     -2077.8684
   3582677.26648   2776969.37543  23383890.7454   23383889.0384
     -2226.1004
  -5201848.73049  -4030759.30546  21115338.6834   21115337.3394
      2236.3484
 04  9 14 15 12 29.9990000  0  6G 1G20G11G14G22G25
  -5028670.36749  -3896554.41046  21199363.8234   21199362.2104
      2207.7324
  -2741193.07446  -2129008.14542  23477107.6364   23477106.1754
      3178.9864
  -3796618.32049  -2941446.59446  21159146.1514   21159142.9094
      1383.6134
   3140204.23049   2435418.30545  21468430.2924   21468427.3744
     -2082.4254
   3616119.91448   2803028.52043  23390255.1674   23390252.4604
     -2229.5104
  -5235262.26649  -4056795.82446  21108980.1674   21108978.3864
      2227.5694
 04  9 14 15 12 44.9990000  0  6G 1G20G11G14G22G25
  -5061685.78949  -3922280.70745  21193081.3154   21193079.9804
      2201.0284
  -2788852.24646  -2166145.17642  23468039.3154   23468036.3394
      3177.2784
  -3817226.24249  -2957504.71946  21155224.3554   21155221.2454
      1373.8614
   3171508.32449   2459811.08645  21474387.6984   21474385.1754
     -2086.9404
   3649613.07048   2829127.05143  23396628.8154   23396625.5034
     -2232.8774
  -5268544.25049  -4082729.83646  21102646.6904   21102645.2374
      2218.7994
 04  9 14 15 12 59.9990000  0  6G 1G20G11G14G22G25
  -5094601.48049  -3947929.29346  21186817.6204   21186816.0934
      2194.3794
  -2836486.71946  -2203262.94942  23458974.6834   23458972.2184
      3175.6324
  -3837688.50849  -2973449.34446  21151330.8004   21151327.3474
      1364.1514
   3202879.03149   2484255.78145  21480357.0344   21480354.1754
     -2091.3804
   3683155.91048   2855264.29343  23403011.6754   23403008.5624
     -2236.1894
  -5301695.34049  -4108561.85546  21096338.3004   21096336.5934
      2210.0734
 04  9 14 15 13 14.9990000  0  6G 1G20G11G14G22G25
  -5127417.68049  -3973500.36345  21180573.1364   21180571.2144
      2187.7474
  -2884096.58646  -2240361.54742  23449915.4094   23449912.6054
      3173.9914
  -3858005.38349  -2989280.68446  21147464.3004   21147461.0814
      1354.4584
   3234315.84049   2508751.98845  21486339.5114   21486336.1364
     -2095.7874
   3716748.12948   2881440.00043  23409404.4804   23409401.2964
     -2239.4814
  -5334715.63349  -4134291.93746  21090054.7764   21090052.7804
      2201.3534
 04  9 14 15 13 29.9990000  0  6G 1G20G11G14G22G25
  -5160135.25849  -3998994.57045  21174347.2064   21174345.3194
      2181.1724
  -2931682.61346  -2277441.57842  23440859.5894   23440856.2694
      3172.4024
  -3878177.43449  -3004999.17246  21143626.2224   21143622.5504
      1344.8034
   3265817.63749   2533298.82845  21492334.1054   21492331.4134
     -2100.1204
   3750388.94548   2907653.55543  23415806.1594   23415803.4604
     -2242.7214
  -5367605.90249  -4159920.73046  21083796.1984   21083793.9874
      2192.6854
 04  9 14 15 13 44.9990000  0  6G 1G20G11G14G22G25
  -5192754.13749  -4024411.88345  21168139.8004   21168137.7104
      2174.5924
  -2979244.62547  -2314502.87942  23431808.9094   23431805.8974
      3170.8014
  -3898204.40649  -3020604.61746  21139814.4874   21139811.1244
      1335.1324
   3297384.25049   2557896.18045  21498340.8704   21498338.3434
     -2104.4414
   3784078.29748   2933904.95343  23422216.9334   23422213.5734
     -2245.9574
  -5400365.75049  -4185447.86346  21077561.9804   21077560.1284
      2183.9904
 04  9 14 15 13 59.9990000  0  6G 1G20G11G14G22G25
  -5225274.75449  -4049752.62545  21161951.5034   21161949.3044
      2168.0414
  -3026783.11746  -2351545.85542  23422762.1284   23422759.2694
      3169.2334
  -3918086.71549  -3036097.32046  21136031.3554   21136027.8434
      1325.4874
   3329014.93449   2582543.45345  21504359.8864   21504357.2964
     -2108.7124
   3817815.71948   2960193.80543  23428636.8784   23428634.7964
     -2249.1614
  -5432995.39849  -4210873.56646  21071353.0114   21071350.9684
      2175.3104
 04  9 14 15 14 14.9990000  0  6G 1G20G11G14G22G25
  -5257697.80149  -4075017.34045  21155781.4094   21155779.9684
      2161.5364
  -3074298.65646  -2388570.96942  23413720.0504   23413716.9174
      3167.7034
  -3937824.96149  -3051477.78146  21132274.8784   21132271.8554
      1315.8834
   3360708.76649   2607239.93445  21510391.0034   21510389.0224
     -2112.9224
   3851600.46548   2986519.55543  23435065.3314   23435063.1944
     -2252.3164
  -5465495.34049  -4236198.18746  21065168.3234   21065166.0154
      2166.6634
 04  9 14 15 14 29.9990000  0  6G 1G20G11G14G22G25
  -5290023.48449  -4100206.18046  21149630.1514   21149628.0464
      2155.0464
  -3121791.31646  -2425578.22742  23404682.5654   23404679.3154
      3166.1774
  -3957419.15249  -3066745.99246  21128546.4644   21128543.3824
      1306.2794
   3392465.25849   2631985.23845  21516434.2764   21516431.5934
     -2117.0994
   3885432.25448   3012881.94943  23441503.5114   23441501.1714
     -2255.4534
  -5497865.65249  -4261421.80946  21059008.5974   21059006.6874
      2158.0214
 04  9 14 15 14 44.9990000  0  6G 1G20G11G14G22G25
  -5322251.43749  -4125318.86745  21143497.6984   21143495.5544
      2148.5304
  -3169260.66046  -2462567.34842  23395649.2614   23395646.5934
      3164.6234
  -3976868.86349  -3081901.60946  21124845.3084   21124842.2224
      1296.6474
   3424284.55149   2656779.47745  21522489.4954   21522486.3704
     -2121.2864
   3919311.39548   3039281.21143  23447950.5814   23447948.5464
     -2258.6094
  -5530105.68749  -4286543.91446  21052873.0114   21052871.2264
      2149.3364
 04  9 14 15 14 59.9990000  0  6G 1G20G11G14G22G25
  -5354382.37949  -4150355.97346  21137383.3704   21137380.9684
      2142.0634
  -3216707.33246  -2499538.78542  23386620.8944   23386617.5384
      3163.1114
  -3996174.58249  -3096945.03546  21121171.8154   21121168.1714
      1287.0484
   3456165.73849   2681621.94545  21528555.8704   21528553.3434
     -2125.4124
   3953237.13348   3065716.78542  23454406.4174   23454403.9874
     -2261.7164
  -5562216.02349  -4311564.96146  21046762.8554   21046761.4214
      2140.6894
 04  9 14 15 15 14.9990000  0  6G 1G20G11G14G22G25
  -5386416.46149  -4175317.59445  21131287.0584   21131285.3004
      2135.6054
  -3264131.39546  -2536492.59042  23377596.3004   23377593.7374
      3161.6044
  -4015336.43049  -3111876.35946  21117525.3314   21117521.9764
      1277.4574
   3488108.39149   2706512.30945  21534634.7694   21534632.1324
     -2129.5104
   3987209.30948   3092188.57442  23460871.4094   23460868.0074
     -2264.8124
  -5594196.63749  -4336484.91046  21040677.3394   21040675.4214
      2132.0414
 04  9 14 15 15 29.9990000  0  6G 1G20G11G14G22G25
  -5418352.26249  -4200202.64146  21125210.2844   21125207.9524
      2129.0534
  -3311531.38747  -2573427.64142  23368576.6674   23368573.9994
      3159.9994
  -4034352.87949  -3126694.37546  21113906.4484   21113903.1404
      1267.7634
   3520113.69549   2731451.50045  21540724.6834   21540722.3554
     -2133.6874
   4021229.37547   3118697.66442  23467345.6984   23467342.8974
     -2268.0044
  -5626045.82849  -4361302.46146  21034616.8314   21034614.8514
      2123.2794
 04  9 14 15 15 44.9990000  0  6G 1G20G11G14G22G25
  -5450191.13349  -4225012.14846  21119151.3704   21119149.4094
      2122.5914
  -3358908.64547  -2610345.00043  23359560.8154   23359558.6594
      3158.4844
  -4053225.12549  -3141400.02346  21110315.0974   21110311.9564
      1258.1504
   3552180.08649   2756438.27345  21546826.8474   21546824.4444
     -2137.7594
   4055295.82848   3145242.90242  23473828.3784   23473824.3084
     -2271.0974
  -5657765.00049  -4386018.68746  21028580.3474   21028578.7964
      2114.6114
 04  9 14 15 15 59.9990000  0  6G 1G20G11G14G22G25
  -5481932.91449  -4249746.00046  21113110.9014   21113109.2694
      2116.1194
  -3406262.77047  -2647244.30942  23350549.7694   23350547.9374
      3156.9424
  -4071952.80549  -3155993.03146  21106751.4094   21106748.5934
      1248.5124
   3584307.44949   2781472.57845  21552940.4874   21552938.1554
     -2141.8244
   4089408.83648   3171824.42242  23480319.3154   23480316.3744
     -2274.2014
  -5689353.59049  -4410633.16446  21022569.1284   21022567.9374
      2105.9064
 04  9 14 15 16 14.9990000  0  6G 1G20G11G14G22G25
  -5513577.25449  -4274403.92645  21107089.2454   21107087.5424
      2109.6234
  -3453593.34047  -2684125.27343  23341543.1754   23341540.9644
      3155.3714
  -4090535.62949  -3170473.15645  21103215.1514   21103212.4604
      1238.8554
   3616495.87949   2806554.45345  21559065.7374   21559063.5934
     -2145.8954
   4123568.78547   3198442.54743  23486820.2614   23486817.6714
     -2277.3304
  -5720811.01649  -4435145.43746  21016583.3864   21016581.8004
      2097.1624
 04  9 14 15 16 29.9990000  0  6G 1G20G11G14G22G25
  -5545124.91049  -4298986.51245  21101085.9484   21101084.2614
      2103.1774
  -3500901.01647  -2720988.41043  23332541.3004   23332538.3744
      3153.8454
  -4108974.14149  -3184840.84445  21099706.2764   21099703.6794
      1229.2344
   3648744.38749   2831683.14845  21565202.6594   21565199.8194
     -2149.9014
   4157774.73047   3225096.52343  23493329.1054   23493326.6444
     -2280.3964
  -5752137.90649  -4459555.99246  21010621.9094   21010620.5504
      2088.4594
 04  9 14 15 16 44.9990000  0  6G 1G20G11G14G22G25
  -5576575.52749  -4323493.49245  21095101.3554   21095099.3314
      2096.7084
  -3548185.38747  -2757833.37543  23323543.4094   23323540.2964
      3152.2914
  -4127267.89149  -3199095.73046  21096225.2304   21096221.9874
      1219.5834
   3681053.16049   2856858.80545  21571350.4404   21571348.2724
     -2153.9184
   4192026.98448   3251786.55542  23499847.4334   23499844.5654
     -2283.4844
  -5783333.68749  -4483864.39146  21004685.6754   21004683.9214
      2079.7194
 04  9 14 15 16 59.9990000  0  6G 1G20G11G14G22G25
  -5607929.15249  -4347924.88345  21089134.6834   21089133.0774
      2090.2424
  -3595446.37546  -2794660.12142  23314549.5734   23314546.7104
      3150.7334
  -4145416.75849  -3213237.70346  21092771.6754   21092768.5034
      1209.9244
   3713421.79349   2882081.09445  21577510.2924   21577507.2844
     -2157.9094
   4226325.48847   3278512.62542  23506372.6444   23506371.1874
     -2286.5674
  -5814398.23849  -4508070.52746  20998774.1514   20998772.4874
      2070.9704
 04  9 14 15 17 14.9990000  0  6G 1G20G11G14G22G25
  -5639185.49649  -4372280.47346  21083186.7144   21083184.9834
      2083.7564
  -3642683.70346  -2831468.44143  23305560.3624   23305557.4874
      3149.1554
  -4163420.44149  -3227266.55146  21089345.5894   21089342.7924
      1200.2464
   3745850.32049   2907350.07445  21583681.4804   21583678.8044
     -2161.9024
   4260670.56347   3305274.95342  23512909.1364   23512906.9404
     -2289.6724
  -5845331.19149  -4532174.12546  20992887.8944   20992886.1594
      2062.1974
 04  9 14 15 17 29.9990000  0  6G 1G20G11G14G22G25
  -5670345.28949  -4396560.82845  21077257.1834   21077255.5304
      2077.3204
  -3689898.06247  -2868258.84842  23296575.4724   23296573.2264
      3147.6244
  -4181279.51649  -3241182.72746  21085947.4174   21085944.3824
      1190.6054
   3778337.78149   2932664.96145  21589863.1674   21589860.2264
     -2165.8314
   4295061.30148   3332072.88743  23519454.6284   23519451.3944
     -2292.7164
  -5876132.93449  -4556175.46946  20987026.6364   20987024.7964
      2053.4494
 04  9 14 15 17 44.9990000  0  6G 1G20G11G14G22G25
  -5701408.20749  -4420765.70745  21071346.0974   21071344.0464
      2070.8614
  -3737088.94947  -2905030.96942  23287595.5194   23287592.5384
      3146.0594
  -4198993.54749  -3254985.87546  21082576.2534   21082573.3234
      1180.9354
   3810884.24649   2958025.83245  21596056.8944   21596054.3904
     -2169.7644
   4329498.09048   3358906.70743  23526007.7844   23526005.2654
     -2295.7864
  -5906802.99649  -4580074.21546  20981190.3864   20981188.5074
      2044.6714
 04  9 14 15 17 59.9990000  0  6G 1G20G11G14G22G25
  -5732374.52349  -4444895.30945  21065453.5114   21065451.4994
      2064.4214
  -3784256.52047  -2941784.92242  23278619.2764   23278617.4334
      3144.5054
  -4216562.73449  -3268676.16446  21079233.4564   21079230.2694
      1171.2794
   3843489.31649   2983432.35945  21602261.4254   21602259.0504
     -2173.6714
   4363980.53948   3385776.11343  23532569.3624   23532567.0304
     -2298.8304
  -5937341.56249  -4603870.50446  20975378.8394   20975377.0194
      2035.9044
 04  9 14 15 18 14.9990000  0  6G 1G20G11G14G22G25
  -5763244.87549  -4468950.12146  21059578.9644   21059577.0894
      2058.0234
  -3831401.41047  -2978521.18742  23269648.5194   23269646.2764
      3142.9934
  -4233987.56649  -3282253.96145  21075917.3624   21075914.2694
      1161.6554
   3876152.09049   3008883.85545  21608476.8944   21608474.4014
     -2177.5184
   4398508.02748   3412680.59843  23539139.5424   23539136.8514
     -2301.8334
  -5967748.93749  -4627564.56246  20969592.3084   20969590.4294
      2027.1584
 04  9 14 15 18 29.9990000  0  6G 1G20G11G14G22G25
  -5794018.66849  -4492929.69946  21053723.0114   21053721.0194
      2051.5864
  -3878522.80547  -3015239.17643  23260682.5424   23260679.0034
      3141.4264
  -4251267.22749  -3295718.63346  21072628.9874   21072626.1404
      1151.9774
   3908872.78949   3034380.49245  21614703.7844   21614701.1244
     -2181.3804
   4433081.21547   3439620.68043  23545718.3864   23545716.5544
     -2304.8794
  -5998024.38749  -4651155.82046  20963831.3554   20963828.9564
      2018.3634
 04  9 14 15 18 44.9990000  0  6G 1G20G11G14G22G25
  -5824695.40249  -4516833.64846  21047885.5504   21047883.6014
      2045.1164
  -3925620.23447  -3051938.47742  23251719.5344   23251716.8824
      3139.8294
  -4268401.32449  -3309069.88746  21069368.7614   21069365.8434
      1142.2734
   3941651.75049   3059922.52345  21620940.9014   21620939.1984
     -2185.2644
   4467700.39547   3466596.67243  23552305.9954   23552305.0894
     -2307.9454
  -6028167.25849  -4674643.76646  20958095.1124   20958093.3354
      2009.5254
 04  9 14 15 18 59.9990000  0  6G 1G20G11G14G22G25
  -5855275.33249  -4540662.16446  21042066.4804   21042064.1754
      2038.6624
  -3972693.71947  -3088619.10943  23242761.4334   23242759.3084
      3138.2324
  -4285389.72349  -3322307.60545  21066135.8944   21066132.5154
      1132.5604
   3974488.56649   3085509.63745  21627189.6754   21627186.9404
     -2189.1214
   4502365.44147   3493608.31643  23558902.4724   23558900.7534
     -2311.0034
  -6058177.51249  -4698028.37546  20952384.4404   20952382.6014
      2000.6844
 04  9 14 15 19 14.9990000  0  6G 1G20G11G14G22G25
  -5885758.91449  -4564415.60546  21036265.2614   21036263.5624
      2032.2394
  -4019743.58247  -3125281.35543  23233808.1204   23233805.9914
      3136.6584
  -4302232.89849  -3335432.16445  21062930.6904   21062927.2764
      1122.8784
   4007382.49649   3111141.26245  21633449.0734   21633446.6794
     -2192.9294
   4537075.71147   3520655.23442  23565507.8394   23565505.2064
     -2314.0184
  -6088055.51649  -4721309.93046  20946698.8004   20946697.1754
      1991.8674
 04  9 14 15 19 29.9990000  0  6G 1G20G11G14G22G25
  -5916146.14849  -4588093.96946  21030483.1204   21030480.8904
      2025.8164
  -4066769.80547  -3161925.15643  23224859.6204   23224856.8474
      3135.0824
  -4318930.65249  -3348443.41046  21059753.0734   21059749.4484
      1113.1844
   4040333.27749   3136817.18445  21639719.4174   21639717.5154
     -2196.7194
   4571831.28946   3547737.41042  23572120.8864   23572120.2804
     -2317.0394
  -6117800.89849  -4744488.14846  20941038.3394   20941036.4054
      1983.0264
 04  9 14 15 19 44.9990000  0  6G 1G20G11G14G22G25
  -5946436.80949  -4611697.07845  21024718.5814   21024716.6944
      2019.3774
  -4113772.02047  -3198550.26243  23215915.2924   23215912.9214
      3133.4814
  -4335482.89549  -3361341.27046  21056603.3084   21056600.2454
      1103.4834
   4073341.02749   3162537.48445  21646000.4644   21645998.0114
     -2200.5174
   4606632.24247   3574854.98042  23578744.3784   23578742.0424
     -2320.0644
  -6147413.33649  -4767562.75846  20935403.3474   20935401.7224
      1974.1624
 04  9 14 15 19 59.9990000  0  6G 1G20G11G14G22G25
  -5976631.12549  -4635225.12146  21018972.8554   21018971.2224
      2012.9544
  -4160750.36347  -3235156.76642  23206975.2534   23206973.0344
      3131.8904
  -4351889.63749  -3374125.75446  21053480.9874   21053478.4374
      1093.7834
   4106405.22749   3188301.78545  21652292.7224   21652289.5974
     -2204.2804
   4641478.37547   3602007.78942  23585375.0344   23585372.7024
     -2323.0764
  -6176892.92649  -4790533.86346  20929793.4724   20929791.8194
      1965.3064
 04  9 14 15 20 14.9990000  0  6G 1G20G11G14G22G25
  -6006728.09849  -4658677.30146  21013245.8004   21013243.9054
      2006.4654
  -4207703.84847  -3271743.91042  23198041.0114   23198037.6444
      3130.2324
  -4368149.64549  -3386795.89846  21050386.8624   21050384.1754
      1084.0014
   4139526.72349   3214110.72345  21658595.4094   21658592.9644
     -2208.1004
   4676370.65247   3629196.50442  23592015.0194   23592012.7804
     -2326.1524
  -6206238.46549  -4813400.52046  20924209.6364   20924207.6324
      1956.3694
 04  9 14 15 20 29.9990000  0  6G 1G20G11G14G22G25
  -6036728.73449  -4682054.42646  21007536.7064   21007534.8824
      2000.0424
  -4254633.30947  -3308312.32842  23189110.4484   23189107.1794
      3128.6314
  -4384263.84849  -3399352.43446  21047320.6674   21047317.8084
      1074.2804
   4172704.17649   3239963.27045  21664909.0734   21664906.7104
     -2211.8304
   4711308.05147   3656420.40643  23598663.7844   23598661.3154
     -2329.1604
  -6235450.73049  -4836163.31646  20918650.7764   20918648.7184
      1947.4844
 04  9 14 15 20 44.9990000  0  6G 1G20G11G14G22G25
  -6066633.54349  -4705356.87146  21001846.0504   21001844.4094
      1993.6544
  -4301539.04747  -3344862.24642  23180184.1834   23180181.5114
      3127.0494
  -4400232.77049  -3411795.75446  21044282.1054   21044279.1444
      1064.5954
   4205936.88349   3265858.87145  21671232.8554   21671230.1874
     -2215.5144
   4746290.05947   3683679.08243  23605320.3704   23605318.1904
     -2332.1344
  -6264530.00849  -4858822.48846  20913117.1514   20913115.1794
      1938.6184
 04  9 14 15 20 59.9990000  0  6G 1G20G11G14G22G25
  -6096442.11349  -4728584.32846  20996173.4874   20996171.9914
      1987.2384
  -4348420.60547  -3381393.34043  23171262.9954   23171260.4404
      3125.4374
  -4416055.77349  -3424125.37146  21041271.2144   21041267.8944
      1054.8674
   4239225.05949   3291797.68845  21677567.5734   21677564.2224
     -2219.2124
   4781317.01247   3710972.75442  23611985.4564   23611983.4444
     -2335.1304
  -6293475.78949  -4881377.63746  20907608.8864   20907606.8154
      1929.7194
 04  9 14 15 21 14.9990000  0  6G 1G20G11G14G22G25
  -6126154.97749  -4751737.21146  20990519.7454   20990517.7454
      1980.8584
  -4395278.43047  -3417905.92643  23162346.3154   23162344.2804
      3123.8554
  -4431733.27349  -3436341.61346  21038287.4094   21038284.3864
      1045.1674
   4272567.91049   3317779.12545  21683912.4804   21683909.2494
     -2222.8574
   4816388.34847   3738301.02042  23618659.9334   23618657.2304
     -2338.0894
  -6322288.43449  -4903829.04746  20902125.9254   20902124.0224
      1920.8434
 04  9 14 15 21 29.9990000  0  6G 1G20G11G14G22G25
  -6155771.84449  -4774815.28946  20984883.7694   20984882.0584
      1974.4584
  -4442112.08247  -3454399.68043  23153433.9564   23153432.0224
      3122.2434
  -4447264.96549  -3448444.23845  21035332.1204   21035328.8824
      1035.4464
   4305965.39549   3343803.11745  21690267.2924   21690265.4134
     -2226.4994
   4851504.31647   3765664.10942  23625342.4804   23625338.5694
     -2341.0654
  -6350967.51649  -4926176.37146  20896668.1754   20896666.3904
      1911.9394
 04  9 14 15 21 44.9990000  0  6G 1G20G11G14G22G25
  -6185292.10949  -4797818.08646  20979266.0264   20979264.5694
      1968.0184
  -4488920.98047  -3490874.14842  23144526.6284   23144524.1124
      3120.5934
  -4462650.10249  -3460432.67246  21032404.3944   21032400.9604
      1025.6764
   4339417.96548   3369870.03545  21696633.5814   21696631.3124
     -2230.1714
   4886665.52047   3793062.41842  23632033.2144   23632030.2724
     -2344.0804
  -6379512.27749  -4948419.03146  20891236.7454   20891234.5154
      1902.9844
 04  9 14 15 21 59.9990000  0  6G 1G20G11G14G22G25
  -6214716.31249  -4820746.03546  20973666.7144   20973664.9604
      1961.6144
  -4535705.43748  -3527329.57843  23135623.4484   23135621.2224
      3118.9644
  -4477889.20349  -3472307.29745  21029504.4874   21029501.1554
      1015.9404
   4372924.84849   3395979.27744  21703009.7304   21703006.9174
     -2233.7924
   4921871.32847   3820495.47342  23638732.1284   23638729.1874
     -2347.0544
  -6407923.13349  -4970557.34846  20885829.9484   20885828.2304
      1894.0574
 04  9 14 15 22 14.9990000  0  6G 1G20G11G14G22G25
  -6244044.36748  -4843599.06246  20968086.0974   20968084.2654
      1955.2044
  -4582465.28147  -3563765.81643  23126726.1514   23126723.1244
      3117.3234
  -4492981.95349  -3484067.89146  21026632.1444   21026629.2454
      1006.1834
   4406485.97349   3422130.78944  21709396.1124   21709393.5154
     -2237.4084
   4957121.77746   3847963.29742  23645440.0194   23645438.6794
     -2350.0304
  -6436199.71549  -4992591.05146  20880449.7534   20880447.3084
      1885.1054
 04  9 14 15 22 29.9990000  0  6G 1G20G11G14G22G25
  -6273276.28548  -4866377.18046  20962523.1364   20962521.7224
      1948.7954
  -4629200.36748  -3600182.77742  23117832.6594   23117829.3624
      3115.6724
  -4507928.26649  -3495714.37946  21023788.4174   21023785.1204
       996.4214
   4440101.20349   3448324.45744  21715792.9644   21715790.2494
     -2241.0154
   4992416.91447   3875465.90642  23652157.0424   23652154.2694
     -2353.0094
  -6464341.73049  -5014519.88746  20875093.9174   20875092.0304
      1876.1344
 04  9 14 15 22 44.9990000  0  6G 1G20G11G14G22G25
  -6302411.95348  -4889080.30146  20956979.2144   20956977.1364
      1942.3784
  -4675910.57048  -3636580.33643  23108943.4334   23108940.7064
      3114.0144
  -4522728.00848  -3507246.64546  21020971.9724   21020968.8234
       986.6494
   4473770.30949   3474560.09844  21722200.1594   21722196.6474
     -2244.6074
   5027756.64847   3903003.33642  23658882.5974   23658878.8664
     -2355.9824
  -6492349.09449  -5036343.79746  20869764.2534   20869762.5814
      1867.1584
 04  9 14 15 22 59.9990000  0  6G 1G20G11G14G22G25
  -6331451.48449  -4911708.50846  20951452.8314   20951450.8944
      1935.9694
  -4722595.79748  -3672958.45342  23100060.2614   23100056.8664
      3112.3484
  -4537381.07449  -3518664.62146  21018183.9954   21018180.4604
       976.8714
   4507493.09048   3500837.57444  21728617.5194   21728614.5074
     -2248.1854
   5063141.01647   3930575.54742  23665615.1594   23665613.2454
     -2358.9584
  -6520221.67649  -5058062.69546  20864460.3864   20864458.6244
      1858.1724
 04  9 14 15 23 14.9990000  0  6G 1G20G11G14G22G25
  -6360395.40648  -4934262.22346  20945944.7534   20945943.0194
      1929.5954
  -4769256.55548  -3709317.47742  23091180.1444   23091177.5544
      3110.7174
  -4551888.03548  -3529968.76246  21015422.9174   21015419.8704
       967.1314
   4541268.65649   3527156.18844  21735044.8394   21735042.0894
     -2251.7044
   5098569.50047   3958182.09442  23672357.3234   23672355.0814
     -2361.8994
  -6547959.90649  -5079676.90246  20859181.7454   20859180.2694
      1849.2154
 04  9 14 15 23 29.9990000  0  6G 1G20G11G14G22G25
  -6389243.24248  -4956741.05946  20940455.3394   20940453.8864
      1923.1894
  -4815892.11748  -3745656.89142  23082306.7924   23082303.5504
      3109.0384
  -4566248.26648  -3541158.55946  21012690.1594   21012687.6124
       957.3494
   4575097.27349   3553516.13344  21741481.8394   21741479.2494
     -2255.2414
   5134042.48047   3985823.32042  23679108.3154   23679104.7224
     -2364.8654
  -6575562.92649  -5101185.74246  20853929.3864   20853927.1404
      1840.2014
 04  9 14 15 23 44.9990000  0  6G 1G20G11G14G22G25
  -6417995.20749  -4979145.18746  20934984.1594   20934982.6364
      1916.7984
  -4862502.71548  -3781976.84843  23073436.9874   23073433.8514
      3107.3734
  -4580461.80549  -3552234.04346  21009985.7064   21009982.7064
       947.5694
   4608978.59048   3579917.14544  21747929.1514   21747927.0264
     -2258.7544
   5169559.61747   4013498.96142  23685865.7144   23685864.3124
     -2367.8094
  -6603030.91849  -5122589.36346  20848702.2144   20848700.2184
      1831.1994
 04  9 14 15 23 59.9990000  0  6G 1G20G11G14G22G25
  -6446651.48849  -5001474.75446  20929530.9954   20929529.6444
      1910.4194
  -4909088.24648  -3818277.25443  23064572.4174   23064569.5074
      3105.7024
  -4594528.82449  -3563195.37546  21007308.7454   21007305.8824
       937.8014
   4642912.18049   3606358.88345  21754386.8084   21754383.9954
     -2262.2394
   5205120.80947   4041208.93042  23692633.5424   23692631.3434
     -2370.7464
  -6630363.84849  -5143887.75046  20843501.2764   20843499.2884
      1822.1954
 04  9 14 15 24 14.9990000  0  6G 1G20G11G14G22G25
  -6475211.30149  -5023729.15246  20924095.9954   20924095.0344
      1903.9884
  -4955647.87548  -3854557.48843  23055711.2764   23055709.7574
      3103.9754
  -4608448.41849  -3574041.81246  21004660.0114   21004656.8394
       927.9734
   4676898.65248   3632841.84044  21760854.1444   21760851.1834
     -2265.7654
   5240726.71947   4068953.76242  23699408.7924   23699406.2694
     -2373.7274
  -6657560.64549  -5165080.05946  20838325.7844   20838323.9014
      1813.1204
 04  9 14 15 24 29.9990000  0  6G 1G20G11G14G22G25
  -6503674.66048  -5045908.38346  20918679.8234   20918678.2454
      1897.5574
  -5002181.52348  -3890817.47743  23046856.9014   23046854.3124
      3102.2434
  -4622220.34449  -3584773.19145  21002039.3154   21002036.3584
       918.1284
   4710937.69548   3659365.75444  21767331.1904   21767329.1474
     -2269.2704
   5276377.37947   4096733.43042  23706193.6444   23706190.1674
     -2376.7114
  -6684621.35249  -5186166.31646  20833175.8704   20833174.3354
      1804.0474
 04  9 14 15 24 44.9990000  0  6G 1G20G11G14G22G25
  -6532041.84449  -5068012.68446  20913281.7614   20913280.2804
      1891.1464
  -5048689.44548  -3927057.42243  23038006.0424   23038003.9834
      3100.5284
  -4635844.98449  -3595389.79746  20999446.6514   20999443.3434
       908.3094
   4745028.82848   3685930.25044  21773818.7614   21773816.7494
     -2272.7424
   5312072.36747   4124547.66042  23712986.1984   23712983.5624
     -2379.6664
  -6711545.92649  -5207146.50046  20828052.4484   20828050.2884
      1794.9724
 04  9 14 15 24 59.9990000  0  6G 1G20G11G14G22G25
  -6560312.57449  -5090041.83246  20907901.9254   20907900.1444
      1884.7154
  -5095171.18448  -3963276.95743  23029161.5344   23029158.6324
      3098.7834
  -4649321.97749  -3605891.36346  20996882.2614   20996878.8584
       898.4664
   4779172.11348   3712535.39144  21780316.4954   21780314.1674
     -2276.2194
   5347811.93047   4152396.67642  23719786.5194   23719784.2884
     -2382.6374
  -6738333.97749  -5228020.30146  20822954.8474   20822952.9374
      1785.8704
 04  9 14 15 25 14.9990000  0  6G 1G20G11G14G22G25
  -6588486.98049  -5111995.91446  20902540.6204   20902538.6054
      1878.2944
  -5141626.74648  -3999476.09843  23020320.8154   23020318.1794
      3097.0384
  -4662651.36749  -3616277.91446  20994345.6674   20994342.5264
       888.6264
   4813367.27748   3739180.95744  21786823.3704   21786821.1404
     -2279.6784
   5383596.16447   4180280.43042  23726596.2614   23726593.8784
     -2385.6164
  -6764985.39849  -5248787.62946  20817883.4954   20817881.3194
      1776.7614
 04  9 14 15 25 29.9990000  0  6G 1G20G11G14G22G25
  -6616565.35949  -5133875.16446  20897197.3554   20897195.7764
      1871.8924
  -5188056.26648  -4035654.95743  23011485.9644   23011482.9014
      3095.3014
  -4675833.21949  -3626549.49246  20991837.0894   20991833.9524
       878.7904
   4847613.78948   3765866.52344  21793340.1594   21793337.7494
     -2283.1014
   5419424.57047   4208198.58242  23733414.6674   23733411.3194
     -2388.5604
  -6791500.44549  -5269448.70346  20812837.5974   20812835.7924
      1767.6704
 04  9 14 15 25 44.9990000  0  6G 1G20G11G14G22G25
  -6644546.94149  -5155679.00046  20891873.0894   20891871.1164
      1865.4394
  -5234458.82848  -4071812.80143  23002656.0974   23002653.0974
      3093.5044
  -4688866.57849  -3636705.36346  20989356.7224   20989353.8354
       868.8914
   4881912.16048   3792592.52044  21799866.9334   21799864.3704
     -2286.5584
   5455298.00846   4236151.86742  23740240.4094   23740237.6084
     -2391.5624
  -6817878.01649  -5290002.65646  20807818.1674   20807816.3474
      1758.5054
 04  9 14 15 25 59.9990000  0  6G 1G20G11G14G22G25
  -6672431.70749  -5177407.39146  20886566.6514   20886565.0854
      1858.9844
  -5280834.36748  -4107949.58643  22993829.7924   22993827.8944
      3091.7034
  -4701751.57849  -3646745.63346  20986904.7614   20986901.8864
       859.0004
   4916262.20748   3819358.77044  21806403.8474   21806401.2264
     -2290.0034
   5491216.32847   4264140.04742  23747075.7224   23747072.9914
     -2394.5554
  -6844117.98049  -5310449.37146  20802825.0424   20802823.1514
      1749.3314
 04  9 14 15 26 14.9990000  0  6G 1G20G11G14G22G25
  -6700220.25849  -5199060.80546  20881278.6984   20881276.9524
      1852.5704
  -5327183.19148  -4144065.56243  22985010.7064   22985007.9134
      3089.9224
  -4714488.60949  -3656670.59846  20984481.0344   20984478.3354
       849.1354
   4950663.32048   3846164.82044  21812949.8944   21812947.5424
     -2293.4084
   5527178.89848   4292162.77742  23753919.9954   23753917.5774
     -2397.5054
  -6870220.79349  -5330789.22746  20797857.6754   20797855.8704
      1740.1884
 04  9 14 15 26 29.9990000  0  6G 1G20G11G14G22G25
  -6727912.32049  -5220639.03546  20876008.7224   20876007.1054
      1846.1384
  -5373505.00448  -4180160.47743  22976196.0194   22976193.3584
      3088.1214
  -4727077.37949  -3666480.03946  20982085.6054   20982083.0194
       839.2514
   4985115.49248   3873010.64144  21819505.7224   21819503.5694
     -2296.8114
   5563186.14547   4320220.37942  23760771.6284   23760769.9134
     -2400.4834
  -6896185.89149  -5351021.76646  20792916.7844   20792914.8744
      1731.0074
 04  9 14 15 26 44.9990000  0  6G 1G20G11G14G22G25
  -6755508.16449  -5242142.28546  20870757.5584   20870755.8824
      1839.7234
  -5419799.92248  -4216234.43743  22967386.1674   22967384.1324
      3086.3284
  -4739517.99649  -3676174.03546  20979718.1904   20979715.2264
       829.3744
   5019618.16048   3899895.82044  21826072.4094   21826068.8864
     -2300.1784
   5599237.66446   4348312.38742  23767631.3864   23767629.6594
     -2403.4354
  -6922013.50849  -5371147.18046  20788001.6984   20788000.1084
      1721.8414
 04  9 14 15 26 59.9990000  0  6G 1G20G11G14G22G25
  -6783007.74249  -5263570.52346  20865524.2614   20865522.8124
      1833.3054
  -5466067.76648  -4252287.30543  22958581.5034   22958579.1944
      3084.5234
  -4751810.35249  -3685752.50846  20977379.1904   20977375.7924
       819.4904
   5054171.18048   3926820.23844  21832647.1364   21832644.1204
     -2303.5354
   5635333.33647   4376438.85542  23774501.0034   23774498.6834
     -2406.3784
  -6947703.41049  -5391165.28146  20783113.5034   20783111.6874
      1712.6604
 04  9 14 15 27 14.9990000  0  6G 1G20G11G14G22G25
  -6810410.80548  -5284923.56246  20860309.8784   20860308.1944
      1826.8714
  -5512308.14548  -4288318.78143  22949782.8314   22949779.9564
      3082.6924
  -4763954.10948  -3695215.18046  20975068.2304   20975065.3234
       809.5844
   5088774.59848   3953783.93044  21839231.9874   21839229.2924
     -2306.8954
   5671473.63746   4404600.08242  23781378.0584   23781376.2724
     -2409.3534
  -6973255.21549  -5411075.76246  20778250.8624   20778248.3744
      1703.4544
 04  9 14 15 27 29.9990000  0  6G 1G20G11G14G22G25
  -6837717.38349  -5306201.42246  20855113.8234   20855112.0584
      1820.4394
  -5558520.94548  -4324328.75443  22940988.5734   22940986.3354
      3080.8534
  -4775949.07449  -3704561.91846  20972785.6204   20972782.7724
       799.6644
   5123428.24248   3980786.75844  21845825.8704   21845822.7104
     -2310.2434
   5707658.37146   4432795.89841  23788263.3554   23788261.4764
     -2412.3164
  -6998668.83249  -5430878.57046  20773415.0974   20773412.8474
      1694.2414
 04  9 14 15 27 44.9990000  0  6G 1G20G11G14G22G25
  -6864927.69949  -5327404.26246  20849935.9404   20849934.0584
      1814.0214
  -5604706.39148  -4360317.43743  22932199.6364   22932197.5304
      3079.0304
  -4787795.59049  -3713792.97346  20970531.3554   20970528.2884
       789.7684
   5158131.66048   4007828.35944  21852430.3154   21852427.1984
     -2313.5614
   5743887.23445   4461026.15241  23795157.8314   23795155.7884
     -2415.2584
  -7023944.23049  -5450573.68446  20768605.2924   20768602.8904
      1685.0274
 04  9 14 15 27 59.9990000  0  6G 1G20G11G14G22G25
  -6892042.41849  -5348532.62146  20844776.0584   20844774.1984
      1807.6484
  -5650864.98048  -4396285.16043  22923416.0034   22923414.2224
      3077.2394
  -4799494.15649  -3722908.75046  20968305.5344   20968301.9134
       779.9044
   5192884.00448   4034908.07844  21859043.5114   21859040.5894
     -2316.8234
   5780159.68145   4489290.24641  23802060.4014   23802058.8394
     -2418.1634
  -7049081.79749  -5470161.40246  20763821.4564   20763819.2574
      1675.8384
 04  9 14 15 28 14.9990000  0  6G 1G20G11G14G22G25
  -6919061.02748  -5369586.07846  20839634.2064   20839632.7654
      1801.2414
  -5696995.93048  -4432231.35243  22914637.3314   22914635.2924
      3075.3974
  -4811044.20348  -3731908.78946  20966107.4404   20966103.9684
       770.0034
   5227685.56348   4062026.17244  21865665.7614   21865662.4014
     -2320.1044
   5816476.03145   4517588.72341  23808970.8624   23808968.5734
     -2421.0904
  -7074080.96149  -5489641.27746  20759064.3474   20759062.6794
      1666.6114
 04  9 14 15 28 29.9990000  0  6G 1G20G11G14G22G25
  -6945984.16848  -5390565.14546  20834511.1444   20834509.7764
      1794.8764
  -5743099.85948  -4468156.48443  22905864.6594   22905862.5344
      3073.5954
  -4822446.29348  -3740793.53946  20963937.8474   20963934.4134
       760.1394
   5262535.47748   4089181.93444  21872297.2534   21872294.2454
     -2323.3284
   5852835.71144   4545920.85941  23815890.2224   23815887.9524
     -2423.9794
  -7098942.35949  -5509013.80146  20754333.6204   20754331.8664
      1657.4274
 04  9 14 15 28 44.9990000  0  6G 1G20G11G14G22G25
  -6972811.03148  -5411469.20346  20829406.5344   20829404.5304
      1788.4584
  -5789175.73048  -4504059.76643  22897096.8784   22897094.5194
      3071.7254
  -4833699.43448  -3749562.23046  20961796.3784   20961792.7024
       750.2094
   5297434.39148   4116375.87944  21878938.0974   21878935.6124
     -2326.5944
   5889239.57844   4574287.44141  23822817.3394   23822815.0304
     -2426.9244
  -7123664.74249  -5528277.98446  20749628.7924   20749627.2764
      1648.1594
 04  9 14 15 28 59.9990000  0  6G 1G20G11G14G22G25
  -6999542.20348  -5432298.68046  20824319.5734   20824318.1404
      1782.0784
  -5835224.01248  -4539941.53543  22888333.9564   22888331.8274
      3069.8854
  -4844804.16048  -3758215.27046  20959683.0264   20959680.0854
       740.3154
   5332381.57848   4143607.43044  21885588.6754   21885586.3554
     -2329.8124
   5925686.93845   4602687.93041  23829754.2144   23829751.2334
     -2429.8244
  -7148248.62549  -5547434.25046  20744950.9404   20744948.8194
      1638.9264
 04  9 14 15 29 14.9990000  0  6G 1G20G11G14G22G25
  -7026177.93049  -5453053.78146  20819250.9724   20819249.4404
      1775.7154
  -5881244.82048  -4575801.91843  22879576.8704   22879573.8314
      3068.0544
  -4855760.69548  -3766752.83646  20957598.2614   20957595.0034
       730.4364
   5367376.60948   4170876.27044  21892247.8394   21892245.2104
     -2333.0024
   5962177.70343   4631122.13341  23836696.4014   23836695.3394
     -2432.7184
  -7172694.12149  -5566482.68046  20740298.8554   20740297.0854
      1629.7004
 04  9 14 15 29 29.9990000  0  6G 1G20G11G14G22G25
  -7052718.20749  -5473734.51646  20814200.0734   20814198.9724
      1769.3524
  -5927237.93448  -4611640.71143  22870824.5734   22870821.6164
      3066.2084
  -4866568.95349  -3775174.86746  20955541.4484   20955538.4954
       720.5514
   5402419.18848   4198182.15644  21898916.4644   21898913.6674
     -2336.1724
   5998711.58214                  23843648.855
     -2435.611
  -7197001.12949  -5585423.19546  20735673.4724   20735671.6324
      1620.4674
 04  9 14 15 29 44.9990000  0  6G 1G20G11G14G22G25
  -7079162.05148  -5494340.10246  20809168.2844   20809166.8084
      1762.9234
  -5973202.44548  -4647457.21543  22862077.2144   22862074.5424
      3064.3014
  -4877227.79348  -3783480.46946  20953512.9874   20953510.1944
       710.5894
   5437510.15648   4225525.74644  21905593.9174   21905591.1754
     -2339.3984
   6035289.633 5                  23850610.925
     -2438.537
  -7221168.49649  -5604254.90646  20731074.6594   20731072.7964
      1611.1584
 04  9 14 15 29 59.9990000  0  6G 1G20G11G14G22G25
  -7105510.88749  -5514871.65246  20804153.9094   20804152.8744
      1756.5894
  -6019139.52748  -4683252.35943  22853336.2764   22853333.2454
      3062.4724
  -4887738.63349  -3791670.73846  20951512.8944   20951510.0464
       700.7234
   5472647.91048   4252905.79744  21912280.5424   21912278.3704
     -2342.5174
   6071910.527 4                  23857578.706
     -2441.393
  -7245197.43049  -5622978.73846  20726502.0504   20726500.4214
      1601.9294
 04  9 14 15 30 14.9990000  0  6G 1G20G11G14G22G25
  -7131763.98849  -5535328.62146  20799158.4174   20799156.9834
      1750.2074
  -6065048.24648  -4719025.39143  22844599.8314   22844597.4254
      3060.5814
  -4898100.65648  -3799745.05946  20949541.2534   20949538.0304
       690.8024
   5507832.99648   4280322.71544  21918976.0264   21918973.7104
     -2345.6724
   6108574.797 4                  23864554.948
     -2444.285
  -7269087.02349  -5641594.00846  20721955.6204   20721954.4214
      1592.6404
 04  9 14 15 30 29.9990000  0  6G 1G20G11G14G22G25
  -7157921.12949  -5555710.80946  20794181.0894   20794179.3824
      1743.8094
  -6110928.33648  -4754776.10243  22835869.1444   22835866.7844
      3058.6734
  -4908313.58649  -3807703.18746  20947597.7534   20947594.6514
       680.8624
   5543065.39548   4307776.52044  21925680.5344   21925678.2924
     -2348.8274
   6145282.770 4                  23871542.276
     -2447.198
  -7292836.98449  -5660100.46146  20717436.4564   20717434.6754
      1583.3314
 04  9 14 15 30 44.9990000  0  6G 1G20G11G14G22G25
  -7183981.98449  -5576017.96946  20789222.0264   20789219.9914
      1737.3904
  -6156779.18448  -4790504.03943  22827143.6674   22827141.7494
      3056.7234
  -4918376.87549  -3815544.72346  20945682.8554   20945679.3974
       670.8864
   5578345.30148   4335267.34444  21932394.4564   21932392.1124
     -2351.9944
   6182034.855 4                  23878534.503
     -2450.139
  -7316446.85549  -5678497.77046  20712943.5974   20712941.8824
      1573.9914
 04  9 14 15 30 59.9990000  0  6G 1G20G11G14G22G25
  -7209947.58249  -5596250.89846  20784280.5264   20784278.6874
      1731.0404
  -6202601.75848  -4826209.94543  22818424.5194   22818422.5224
      3054.8384
  -4928291.58649  -3823270.48046  20943796.1054   20943792.8434
       660.9814
   5613671.50848   4362794.23844  21939116.5264   21939114.0544
     -2355.0804
   6218829.898 4                  23885536.558
     -2453.003
  -7339917.55549  -5696786.61346  20708477.3944   20708475.5544
      1564.7134
 04  9 14 15 31 14.9990000  0  6G 1G20G11G14G22G25
  -7235817.05549  -5616408.92646  20779357.7844   20779356.3864
      1724.6324
  -6248395.09048  -4861893.05943  22809710.2534   22809707.9014
      3052.8894
  -4938056.72349  -3830879.68446  20941937.5894   20941934.6944
       651.0094
   5649044.71948   4390357.75444  21945848.1364   21945845.8004
     -2358.2144
   6255668.629 4                  23892547.550
     -2455.915
  -7363248.04749  -5714966.21546  20704037.5584   20704035.5624
      1555.3664
 04  9 14 15 31 29.9990000  0  6G 1G20G11G14G22G25
  -7261590.66849  -5636492.26646  20774453.2764   20774451.6444
      1718.2414
  -6294159.13748  -4897553.37143  22801001.9874   22800998.9444
      3050.9364
  -4947672.42649  -3838372.44946  20940107.6124   20940104.6834
       641.0474
   5684464.50048   4417957.57844  21952588.1594   21952585.7614
     -2361.3194
   6292550.949 4                  23899565.284
     -2458.821
  -7386438.25449  -5733036.50446  20699624.7924   20699622.6834
      1546.0144
 04  9 14 15 31 44.9990000  0  6G 1G20G11G14G22G25
  -7287268.70349  -5656501.11746  20769567.0584   20769565.3784
      1711.8694
  -6339894.16048  -4933191.04343  22792299.0894   22792295.6404
      3049.0024
  -4957139.00049  -3845749.00846  20938306.3084   20938303.3274
       631.1054
   5719930.37948   4445593.30544  21959336.8004   21959334.9604
     -2364.3924
   6329476.406 5                  23906593.425
     -2461.697
  -7409488.45749  -5750997.69146  20695238.3474   20695236.4484
      1536.6804
 04  9 14 15 31 59.9990000  0  6G 1G20G11G14G22G25
  -7312850.02049  -5676434.60946  20764698.6984   20764697.0584
      1705.4214
  -6385598.80948  -4968805.06243  22783601.0974   22783597.9644
      3046.9774
  -4966455.28949  -3853008.45746  20936533.5654   20936530.5264
       621.0864
   5755443.39148   4473265.77344  21966094.8084   21966092.9644
     -2367.5344
   6366446.141 4                  23913627.730
     -2464.649
  -7432397.10949  -5768848.58646  20690879.1284   20690877.1874
      1527.2434
 04  9 14 15 32 14.9990000  0  6G 1G20G11G14G22G25
  -7338335.32049  -5696293.28946  20759849.3554   20759847.6634
      1699.0204
  -6431273.77348  -5004395.96143  22774909.6674   22774906.4334
      3044.9984
  -4975621.83649  -3860151.23046  20934789.3004   20934786.4724
       611.1034
   5791002.35948   4500974.03144  21972861.5974   21972859.4054
     -2370.5984
   6403459.348 4                  23920672.058
     -2467.547
  -7455165.00049  -5786589.80146  20686546.6834   20686544.6634
      1517.8594
 04  9 14 15 32 29.9990000  0  5G 1G20G11G14G25
  -7363724.50049  -5716077.06646  20755017.7924   20755015.9804
      1692.6124
  -6476918.75448  -5039963.46543  22766223.2844   22766220.6284
      3042.9994
  -4984638.56649  -3867177.26246  20933073.4644   20933070.9174
       601.1154
   5826607.39148   4528718.19144  21979636.8624   21979634.6444
     -2373.6694
  -7477791.71949  -5804221.00446  20682240.3864   20682239.1204
      1508.4484
 04  9 14 15 32 44.9990000  0  5G 1G20G11G14G25
  -7389017.60949  -5735785.97346  20750204.7614   20750202.9174
      1686.2074
  -6522533.44548  -5075507.39143  22757543.1834   22757540.8514
      3040.9794
  -4993505.34049  -3874086.44546  20931386.1754   20931383.2494
       591.1184
   5862258.26647   4556498.08244  21986421.1364   21986417.9684
     -2376.7254
  -7500277.26649  -5821742.20746  20677961.6284   20677960.1984
      1499.0364
 04  9 14 15 32 59.9990000  0  5G 1G20G11G14G25
  -7414214.37549  -5755419.81646  20745409.8864   20745408.0344
      1679.7844
  -6568117.51648  -5111027.45343  22748869.7764   22748866.0734
      3038.9384
  -5002221.93049  -3880878.60546  20929727.8944   20929724.5854
       581.1064
   5897955.04747   4584313.74244  21993214.0264   21993211.5814
     -2379.7854
  -7522621.23449  -5839153.08246  20673709.5974   20673708.0584
      1489.5984
 04  9 14 15 33 14.9990000  0  5G 1G20G11G14G25
  -7439314.50049  -5774978.35246  20740633.5264   20740631.8554
      1673.3424
  -6613670.52348  -5146523.29743  22740200.1284   22740197.9834
      3036.8674
  -5010787.84849  -3887553.35546  20928097.3554   20928094.4254
       571.0614
   5933697.94948   4612165.33244  22000015.6364   22000012.5894
     -2382.8604
  -7544823.15249  -5856453.27746  20669485.1834   20669483.3974
      1480.1284
 04  9 14 15 33 29.9990000  0  5G 1G20G11G14G25
  -7464317.19949  -5794460.97746  20735875.8944   20735873.7454
      1666.8474
  -6659191.59048  -5181994.26643  22731537.7064   22731535.3044
      3034.7384
  -5019202.23449  -3894110.03546  20926495.9724   20926493.1674
       560.9594
   5969487.47748   4640053.27044  22006826.6444   22006823.1944
     -2385.9684
  -7566882.15249  -5873642.09446  20665287.5194   20665285.5034
      1470.6004
 04  9 14 15 33 44.9990000  0  5G 1G20G11G14G25
  -7489222.84049  -5813867.96546  20731136.1834   20731134.6124
      1660.3764
  -6704680.80948  -5217440.40243  22722881.9874   22722878.9604
      3032.6154
  -5027465.35549  -3900548.83646  20924923.7064   20924920.7884
       550.8754
   6005323.26248   4667977.23844  22013645.6834   22013642.8824
     -2389.0524
  -7588798.34049  -5890719.63746  20661116.9804   20661114.5694
      1461.0794
 04  9 14 15 33 59.9990000  0  5G 1G20G11G14G25
  -7514032.34049  -5833200.03546  20726414.9174   20726413.5384
      1653.9674
  -6750138.91048  -5252862.30143  22714231.6444   22714228.3314
      3030.5404
  -5035578.03949  -3906870.42246  20923380.2694   20923376.9214
       540.8464
   6041204.17647   4695936.37144  22020473.4804   22020471.0504
     -2392.0614
  -7610572.51249  -5907686.51646  20656973.7224   20656971.1594
      1451.6114
 04  9 14 15 34 14.9990000  0  5G 1G20G11G14G25
  -7538745.63749  -5852457.14846  20721712.2144   20721710.6084
      1647.5534
  -6795565.87948  -5288259.94543  22705587.0344   22705584.0074
      3028.4654
  -5043540.47349  -3913074.93046  20921864.9954   20921862.2964
       530.8294
   6077129.89847   4723930.42244  22027309.7614   22027307.6404
     -2395.0484
  -7632204.48849  -5924542.59446  20652856.7764   20652854.9724
      1442.1324
 04  9 14 15 34 29.9990000  0  5G 1G20G11G14G25
  -7563362.93449  -5871639.45346  20717027.7534   20717026.6364
      1641.1534
  -6840961.62548  -5323633.25843  22696948.6204   22696945.4834
      3026.3834
  -5051352.51249  -3919162.23446  20920378.4014   20920375.1794
       520.8034
   6113100.18448   4751959.20344  22034154.7534   22034152.2024
     -2398.0194
  -7653694.41049  -5941287.99246  20648767.3394   20648765.4764
      1432.6614
 04  9 14 15 34 44.9990000  0  5G 1G20G11G14G25
  -7587885.72749  -5890748.12146  20712361.3624   20712359.8004
      1634.8534
  -6886327.52748  -5358983.31643  22688315.4254   22688313.0194
      3024.3934
  -5059015.62549  -3925133.49646  20918919.9874   20918916.8434
       510.8744
   6149113.43848   4780021.45344  22041007.7374   22041005.3194
     -2400.8844
  -7675043.51649  -5957923.65246  20644704.9014   20644702.6084
      1423.2744
 04  9 14 15 34 59.9990000  0  5G 1G20G11G14G25
  -7612313.26249  -5909782.56246  20707712.9564   20707711.1474
      1628.5024
  -6931662.73448  -5394309.46143  22679688.8004   22679685.8584
      3022.3474
  -5066528.94149  -3930988.03546  20917490.3784   20917487.4214
       500.8884
   6185170.11348   4808117.55944  22047869.0894   22047866.5654
     -2403.7784
  -7696251.00449  -5974448.96546  20640669.2224   20640667.4334
      1413.8334
 04  9 14 15 35 14.9990000  0  5G 1G20G11G14G25
  -7636646.38749  -5928743.43446  20703082.5974   20703080.9684
      1622.2084
  -6976967.78948  -5429612.09043  22671067.2534   22671065.1944
      3020.3374
  -5073893.37149  -3936726.55546  20916088.8394   20916085.8554
       490.9624
   6221269.22348   4836246.72744  22054738.5734   22054736.3354
     -2406.6074
  -7717317.48849  -5990864.39546  20636660.4094   20636658.4334
      1404.4324
 04  9 14 15 35 29.9990000  0  5G 1G20G11G14G25
  -7660885.57049  -5947631.10546  20698469.7924   20698468.1054
      1615.9464
  -7022242.94148  -5464891.43443  22662452.1204   22662449.2844
      3018.3434
  -5081109.24249  -3942349.32046  20914715.8864   20914712.4764
       481.0584
   6257410.25448   4864408.54744  22061615.7764   22061613.6594
     -2409.4024
  -7738243.19949  -6007170.13346  20632678.1594   20632676.5624
      1395.0474
 04  9 14 15 35 44.9990000  0  5G 1G20G11G14G25
  -7685030.82049  -5966445.58646  20693875.1754   20693873.6594
      1609.6834
  -7067488.11748  -5500147.41043  22653841.5264   22653839.0544
      3016.3454
  -5088176.49249  -3947856.28146  20913371.0504   20913368.2414
       471.1504
   6293592.89848   4892602.79744  22068501.1204   22068499.0154
     -2412.1764
  -7759028.02349  -6023366.09846  20628723.1284   20628721.3514
      1385.6554
 04  9 14 15 35 59.9990000  0  5G 1G20G11G14G25
  -7709082.05949  -5985186.80546  20689298.1904   20689296.8744
      1603.4164
  -7112703.07048  -5535379.84443  22645237.7614   22645235.3824
      3014.3304
  -5095094.98049  -3953247.31646  20912054.6204   20912051.4524
       461.2334
   6329817.16448   4920829.47744  22075394.7304   22075392.6474
     -2414.9514
  -7779671.75449  -6039452.12546  20624794.3554   20624792.6794
      1376.2494
 04  9 14 15 36 14.9990000  0  5G 1G20G11G14G25
  -7733039.09849  -6003854.62546  20684739.8394   20684738.1794
      1597.1364
  -7157887.48848  -5570588.49243  22636639.5194   22636636.9444
      3012.2954
  -5101864.56249  -3958522.32846  20910766.1204   20910763.6244
       451.3054
   6366082.91848   4949088.47344  22082295.9644   22082293.6164
     -2417.7174
  -7800174.17649  -6055428.03146  20620893.2694   20620891.1904
      1366.8284
 04  9 14 15 36 29.9990000  0  5G 1G20G11G14G25
  -7756901.94549  -6022449.04346  20680198.5974   20680197.1514
      1590.8574
  -7203041.18448  -5605773.19543  22628046.9954   22628044.1794
      3010.2464
  -5108485.11749  -3963681.21146  20909506.5734   20909503.4804
       441.3704
   6402390.04748   4977379.73844  22089204.6204   22089202.1554
     -2420.4754
  -7820535.25449  -6071293.80146  20617018.9174   20617016.5654
      1357.4054
 04  9 14 15 36 44.9990000  0  5G 1G20G11G14G25
  -7780670.60549  -6040970.08246  20675676.0344   20675674.2494
      1584.5774
  -7248164.07448  -5640933.88743  22619460.8154   22619457.3274
      3008.1934
  -5114956.57849  -3968723.91446  20908275.3554   20908272.2574
       431.4314
   6438738.54348   5005703.22344  22096121.7304   22096118.9054
     -2423.2334
  -7840754.66849  -6087049.18446  20613171.0584   20613168.9214
      1347.9614
 04  9 14 15 36 59.9990000  0  5G 1G20G11G14G25
  -7804345.79749  -6059418.27746  20671170.2454   20671168.5734
      1578.3464
  -7293256.65248  -5676070.97743  22610879.9014   22610876.6404
      3006.1724
  -5121279.62549  -3973650.97346  20907071.8864   20907068.9874
       421.5364
   6475127.42648   5034058.18044  22103046.6514   22103043.7454
     -2425.9264
  -7860833.10549  -6102694.71546  20609350.6444   20609348.6084
      1338.5634
 04  9 14 15 37 14.9990000  0  5G 1G20G11G14G25
  -7827927.07449  -6077793.29746  20666683.2614   20666681.3514
      1572.0854
  -7338318.22748  -5711183.88743  22602304.6204   22602302.1904
      3004.1054
  -5127453.76649  -3978461.99646  20905896.9094   20905894.1554
       411.6094
   6511556.91448   5062444.78144  22109978.2374   22109975.8514
     -2428.6334
  -7880769.99249  -6118229.94146  20605556.1674   20605554.6634
      1329.1264
 04  9 14 15 37 29.9990000  0  5G 1G20G11G14G25
  -7851414.14549  -6096094.90246  20662213.4404   20662211.7184
      1565.8054
  -7383348.39148  -5746272.32443  22593735.9644   22593733.6594
      3002.0114
  -5133478.67649  -3983156.74646  20904750.4724   20904747.4134
       401.6614
   6548027.18848   5090863.16044  22116918.4484   22116915.9214
     -2431.3524
  -7900564.84849  -6133654.49646  20601789.2764   20601787.9444
      1319.6574
 04  9 14 15 37 44.9990000  0  5G 1G20G11G14G25
  -7874806.78949  -6114322.93746  20657762.0974   20657760.2024
      1559.5104
  -7428346.82848  -5781336.04343  22585173.0034   22585170.7764
      2999.8964
  -5139354.07849  -3987734.98846  20903632.2534   20903629.6054
       391.6934
   6584538.23848   5119313.31644  22123866.5504   22123863.7144
     -2434.0704
  -7920217.27049  -6148968.06646  20598049.6594   20598047.7494
      1310.1614
 04  9 14 15 37 59.9990000  0  6G 1G20G11G14G23G25
  -7898105.52349  -6132477.79346  20653328.4804   20653326.4484
      1553.2494
  -7473313.74648  -5816375.19943  22576615.9644   22576613.3624
      2997.7954
  -5145080.28149  -3992196.97346  20902542.7374   20902539.8904
       381.7474
   6621089.48448   5147794.78144  22130822.0974   22130819.5034
     -2436.7504
   -123403.82457    -84575.41452  23837902.8784   23837898.9174

  -7939727.75849  -6164171.04346  20594337.1754   20594334.7264
      1300.6994
 04  9 14 15 38 14.9990000  0  6G 1G20G11G14G23G25
  -7921311.87149  -6150560.66446  20648912.3784   20648910.8354
      1547.0904
  -7518250.42248  -5851390.78543  22568063.8394   22568062.4444
      2995.7784
  -5150658.84849  -3996543.92646  20901480.8784   20901478.6124
       371.9044
   6657679.36748   5176306.35544  22137785.0424   22137782.6054
     -2439.3264
   -171552.39547   -122093.80142  23828740.6904   23828736.4914
      3209.9054
  -7959097.55949  -6179264.39146  20590650.9334   20590648.8394
      1291.3204
 04  9 14 15 38 29.9990000  0  6G 1G20G11G14G23G25
  -7944425.08249  -6168570.95346  20644514.4564   20644512.5814
      1540.8814
  -7563155.92248  -5886382.07843  22559518.7694   22559517.4804
      2993.7004
  -5156089.00449  -4000775.22746  20900447.5344   20900444.8434
       362.0104
   6694308.30948   5204848.37144  22144755.6834   22144752.5734
     -2441.9294
   -219655.44547   -159576.68042  23819586.8084   23819582.7924
      3206.8704
  -7978325.79749  -6194247.43046  20586992.3624   20586989.9874
      1281.8834
 04  9 14 15 38 44.9990000  0  6G 1G20G11G14G23G25
  -7967444.85949  -6186508.44146  20640133.7454   20640132.1014
      1534.6524
  -7608029.89848  -5921348.81243  22550979.8394   22550978.0894
      2991.5984
  -5161370.37549  -4004890.59846  20899443.0504   20899439.9724
       352.0914
   6730976.50048   5233420.98044  22151732.8704   22151730.0264
     -2444.5464
   -267712.71147   -197023.91442  23810441.6674   23810437.4564
      3203.8184
  -7997412.01249  -6209119.80546  20583359.7064   20583358.3514
      1272.4144
 04  9 14 15 38 59.9990000  0  6G 1G20G11G14G23G25
  -7990371.29749  -6204373.19146  20635770.8394   20635769.0854
      1528.4294
  -7652872.27348  -5956290.92643  22542446.5894   22542444.7144
      2989.4924
  -5166503.06649  -4008890.10546  20898466.1124   20898463.0074
       342.1794
   6767683.77748   5262024.03544  22158718.3784   22158715.0854
     -2447.1524
   -315724.03546   -234435.34042  23801305.5114   23801301.1944
      3200.7554
  -8016356.31649  -6223881.58646  20579755.0974   20579753.2884
      1262.9544
 04  9 14 15 39 14.9990000  0  6G 1G20G11G14G23G25
  -8013202.83649  -6222164.00046  20631426.0034   20631424.8044
      1522.1034
  -7697681.30148  -5991207.04343  22533919.6834   22533917.9724
      2987.2684
  -5171485.52049  -4012772.54346  20897517.8084   20897514.7844
       332.1644
   6804431.50047   5290658.60544  22165711.1444   22165708.3784
     -2449.8484
   -363687.77347   -271809.68442  23792178.5734   23792174.5624
      3197.5834
  -8035157.00449  -6238531.46946  20576177.1834   20576175.8434
      1253.3794
 04  9 14 15 39 29.9990000  0  6G 1G20G11G14G23G25
  -8035939.69949  -6239881.03546  20627099.3004   20627097.5734
      1515.7914
  -7742457.00048  -6026097.19943  22525399.5114   22525397.1244
      2985.0474
  -5176318.00449  -4016538.12946  20896598.1284   20896595.0384
       322.1664
   6841219.18448   5319324.32844  22172711.4644   22172708.9374
     -2452.5124
   -411603.94946   -309146.97742  23783059.9954   23783056.6554
      3194.4124
  -8053814.16049  -6253069.50846  20572627.3704   20572625.3124
      1243.8104
 04  9 14 15 39 44.9990000  0  6G 1G20G11G14G23G25
  -8058580.87549  -6257523.50046  20622790.9014   20622788.8664
      1509.4124
  -7787198.16848  -6060960.45343  22516885.8474   22516883.4644
      2982.7454
  -5180999.04749  -4020185.69546  20895707.4404   20895704.3944
       312.0704
   6878047.68848   5348021.86744  22179719.7064   22179716.7304
     -2455.2344
   -459471.52747   -346446.39842  23773951.1514   23773947.4564
      3191.1724
  -8072326.56249  -6267494.74646  20569103.9954   20569102.1794
      1234.1604
 04  9 14 15 39 59.9990000  0  6G 1G20G11G14G23G25
  -8081125.89549  -6275091.05146  20618500.8154   20618498.9724
      1503.0014
  -7831904.20348  -6095796.32443  22508378.5814   22508375.8084
      2980.4024
  -5185528.34449  -4023715.03146  20894845.4094   20894842.5654
       301.9534
   6914917.46148   5376751.53144  22186735.8154   22186734.1634
     -2457.9854
   -507289.86346   -383707.44142  23764852.5034   23764847.7764
      3187.8894
  -8090693.65649  -6281806.77047  20565609.4484   20565607.4134
      1224.4734
 04  9 14 15 40 14.9990000  0  6G 1G20G11G14G23G25
  -8103574.39149  -6292583.38746  20614229.0894   20614227.3514
      1496.5664
  -7876574.53948  -6130604.37943  22499877.7534   22499875.5074
      2978.0224
  -5189905.55949  -4027125.85546  20894012.6204   20894009.7454
       291.8144
   6951828.74248   5405513.53144  22193760.1834   22193758.9174
     -2460.7524
   -555058.47346   -420929.73442  23755762.1364   23755757.7104
      3184.5744
  -8108915.02749  -6296005.23446  20562141.8154   20562140.1474
      1214.7584
 04  9 14 15 40 29.9990000  0  6G 1G20G11G14G23G25
  -8125926.34449  -6310000.49246  20609975.6444   20609974.0814
      1490.1304
  -7921208.92648  -6165384.41843  22491384.2374   22491381.9294
      2975.6264
  -5194130.52349  -4030418.04346  20893208.7694   20893205.9254
       281.6644
   6988781.27048   5434307.69544  22200792.0504   22200790.1014
     -2463.5024
   -602777.30946   -458113.26642  23746681.8154   23746677.1874
      3181.2564
  -8126990.53549  -6310090.03147  20558701.8784   20558700.2064
      1205.0344
 04  9 14 15 40 44.9990000  0  6G 1G20G11G14G23G25
  -8148181.57449  -6327342.23046  20605740.5114   20605739.3354
      1483.6824
  -7965807.09048  -6200136.21543  22482897.1594   22482895.5304
      2973.2114
  -5198203.05949  -4033591.45746  20892433.8864   20892431.0814
       271.5024
   7025775.16448   5463134.10244  22207831.3234   22207829.2614
     -2466.2604
   -650446.14846   -495257.80942  23737610.3784   23737606.3664
      3177.9234
  -8144919.80949  -6324060.89146  20555290.1984   20555288.3784
      1195.2854
 04  9 14 15 40 59.9990000  0  6G 1G20G11G14G23G25
  -8170339.57049  -6344608.19946  20601524.1754   20601522.5304
      1477.2004
  -8010368.24648  -6234859.21543  22474417.0814   22474415.4054
      2970.7444
  -5202122.63749  -4036645.68046  20891687.7534   20891684.9874
       261.3054
   7062810.66848   5491992.90644  22214879.1674   22214876.6594
     -2469.0344
   -698064.18045   -532362.78542  23728548.5504   23728545.0504
      3174.5354
  -8162702.17249  -6337917.26647  20551906.4874   20551904.4524
      1185.4914
 04  9 14 15 41 14.9990000  0  6G 1G20G11G14G23G25
  -8192400.34049  -6361798.40246  20597326.2924   20597324.8044
      1470.7184
  -8054892.20748  -6269553.19144  22465945.0584   22465942.9724
      2968.2644
  -5205889.25849  -4039580.72346  20890971.3944   20890968.3664
       251.1084
   7099887.76648   5520884.14143  22221934.4804   22221931.9334
     -2471.8074
   -745631.44946   -569428.16442  23719496.9174   23719493.4334
      3171.1514
  -8180337.48049  -6351659.07047  20548550.6444   20548548.5654
      1175.6874
 04  9 14 15 41 29.9990000  0  6G 1G20G11G14G23G25
  -8214364.12549  -6378913.03546  20593146.2534   20593144.6754
      1464.2524
  -8099379.04748  -6304218.25844  22457479.4874   22457477.2924
      2965.7894
  -5209503.21149  -4042396.80546  20890283.3554   20890280.5974
       240.9304
   7137006.07048   5549807.48844  22228998.1124   22228995.2334
     -2474.5544
   -793147.91446   -606453.96542  23710455.1754   23710451.7064
      3167.7644
  -8197825.88749  -6365286.39546  20545222.4094   20545220.6634
      1165.8944
 04  9 14 15 41 44.9990000  0  6G 1G20G11G14G23G25
  -8236230.53149  -6395951.79346  20588985.5894   20588983.8904
      1457.7604
  -8143828.16048  -6338853.92244  22449021.0424   22449019.1444
      2963.2744
  -5212963.82049  -4045093.39146  20889624.9484   20889622.2614
       230.7074
   7174165.74648   5578763.06344  22236068.9874   22236065.9804
     -2477.3124
   -840613.13346   -643439.85242  23701422.2694   23701418.3124
      3164.3484
  -8215167.00449  -6378798.94146  20541922.5504   20541920.7104
      1156.0744
 04  9 14 15 41 59.9990000  0  6G 1G20G11G14G23G25
  -8257998.88749  -6412914.14846  20584842.9874   20584841.2804
      1451.2244
  -8188238.66848  -6373459.50844  22440570.2144   22440567.5654
      2960.7014
  -5216270.39549  -4047669.95746  20888995.6904   20888993.0974
       220.4384
   7211367.37148   5607751.32443  22243148.4404   22243145.4174
     -2480.1084
   -888026.39546   -680385.24642  23692399.5194   23692396.3044
      3160.8844
  -8232360.02049  -6392196.09846  20538650.9014   20538649.1364
      1146.2014
 04  9 14 15 42 14.9990000  0  6G 1G20G11G14G23G25
  -8279669.45749  -6429800.30946  20580719.3314   20580717.1474
      1444.7054
  -8232610.68448  -6408035.10243  22432126.3554   22432123.6754
      2958.1344
  -5219423.31649  -4050126.80146  20888395.7924   20888393.1674
       210.1954
   7248610.50448   5636771.92243  22250235.4254   22250233.1164
     -2482.8764
   -935387.93045   -717290.33242  23683386.9804   23683383.9994
      3157.4364
  -8249404.97749  -6405477.87946  20535407.5344   20535405.1904
      1136.3304
 04  9 14 15 42 29.9990000  0  6G 1G20G11G14G23G25
  -8301241.85549  -6446609.97346  20576613.9804   20576612.3784
      1438.1604
  -8276943.67248  -6442580.29344  22423690.1204   22423687.5814
      2955.5334
  -5222422.14549  -4052463.56246  20887824.9404   20887822.4994
       199.9224
   7285895.38748   5665825.07043  22257330.5654   22257327.8904
     -2485.6594
   -982697.01646   -754154.53142  23674384.4094   23674380.8354
      3153.9394
  -8266301.31249  -6418643.85546  20532192.2614   20532190.1474
      1126.4224
 04  9 14 15 42 44.9990000  0  6G 1G20G11G14G23G25
  -8322716.13749  -6463343.17246  20572527.8234   20572526.0544
      1431.6194
  -8321237.48048  -6477094.94944  22415261.7924   22415258.7534
      2952.9214
  -5225266.85549  -4054680.22746  20887283.6754   20887280.9334
       189.6474
   7323221.93848   5694910.66843  22264433.8084   22264431.2064
     -2488.4374
  -1029953.75446   -790977.95742  23665392.3554   23665388.1514
      3150.4494
  -8283049.07449  -6431694.05146  20529005.0424   20529003.1714
      1116.5174
 04  9 14 15 42 59.9990000  0  6G 1G20G11G14G23G25
  -8344092.33249  -6479999.95746  20568460.1284   20568458.1014
      1425.0804
  -8365492.00448  -6511578.98844  22406840.2304   22406837.6714
      2950.3024
  -5227957.43449  -4056776.78946  20886771.8004   20886769.2884
       179.3724
   7360589.89548   5724028.54744  22271544.4484   22271542.2334
     -2491.1974
  -1077157.98045   -827760.48043  23656409.1674   23656405.2534
      3146.9484
  -8299648.07449  -6444628.32046  20525846.3474   20525844.3944
      1106.6004
 04  9 14 15 43 14.9990000  0  6G 1G20G11G14G23G25
  -8365370.79349  -6496580.57846  20564411.0194   20564409.1444
      1418.5644
  -8409707.28948  -6546032.47344  22398426.5114   22398423.5894
      2947.6864
  -5230494.04749  -4058753.38746  20886288.7534   20886286.2494
       169.1084
   7397998.78948   5753178.32044  22278662.8154   22278660.9254
     -2493.9264
  -1124310.01646   -864502.31642  23647436.3314   23647432.8974
      3143.4694
  -8316098.69949  -6457446.97346  20522715.9174   20522713.6634
      1096.7084
 04  9 14 15 43 29.9990000  0  6G 1G20G11G14G23G25
  -8386551.31249  -6513084.87546  20560380.2924   20560378.4914
      1412.0354
  -8453882.94948  -6580455.06244  22390019.4954   22390017.3474
      2945.0444
  -5232876.64549  -4060609.97346  20885835.7534   20885832.9334
       158.8404
   7435448.62948   5782359.98843  22285789.9334   22285787.7924
     -2496.6564
  -1171409.47346   -901203.19543  23638474.3314   23638470.4054
      3139.9644
  -8332400.50449  -6470149.68046  20519613.5654   20519611.8124
      1086.7874
 04  9 14 15 43 44.9990000  0  6G 1G20G11G14G23G25
  -8407633.60949  -6529512.63346  20556368.5504   20556366.7534
      1405.4864
  -8498018.44148  -6614846.35544  22381621.0974   22381618.3154
      2942.3664
  -5235104.96549  -4062346.33246  20885411.5584   20885408.7614
       148.5554
   7472939.73448   5811573.82443  22292923.7534   22292921.9564
     -2499.4074
  -1218456.02046   -937862.84042  23629521.6674   23629517.6874
      3136.4364
  -8348553.10249  -6482736.12146  20516539.9404   20516538.2024
      1076.8404
 04  9 14 15 43 59.9990000  0  6G 1G20G11G14G23G25
  -8428617.18749  -6545863.47346  20552375.4094   20552373.7924
      1398.9054
  -8542113.08248  -6649205.81643  22373230.3624   22373227.6364
      2939.6434
  -5237178.39549  -4063962.00846  20885017.1364   20885014.1794
       138.2294
   7510472.36348   5840820.01644  22300066.5734   22300064.5384
     -2502.1754
  -1265448.96146   -974480.70343  23620578.3864   23620574.9444
      3132.8634
  -8364555.96949  -6495205.87946  20513495.0034   20513493.1554
      1066.8584
 04  9 14 15 44 14.9990000  0  6G 1G20G11G14G23G25
  -8449502.28549  -6562137.57046  20548400.7614   20548399.0934
      1392.3404
  -8586166.92648  -6683533.48043  22364847.0194   22364844.4954
      2936.9234
  -5239097.03549  -4065457.05546  20884652.1364   20884648.9174
       127.9094
   7548046.08248   5870098.21143  22307216.5424   22307214.7494
     -2504.9154
  -1312388.46947  -1011056.93443  23611646.7144   23611643.4134
      3129.3014
  -8380409.09849  -6507558.97346  20510478.1834   20510475.9994
      1056.8754
 04  9 14 15 44 29.9990000  0  6G 1G20G11G14G23G25
  -8470288.89149  -6578334.92646  20544445.2614   20544443.8394
      1385.7744
  -8630179.85548  -6717829.26243  22356471.2304   22356469.0194
      2934.1954
  -5240860.88749  -4066831.50046  20884316.1124   20884313.3474
       117.5904
   7585660.89548   5899408.44144  22314373.9954   22314372.4094
     -2507.6544
  -1359274.31646  -1047591.34842  23602724.3314   23602720.8314
      3125.7234
  -8396112.42649  -6519795.32846  20507489.6204   20507487.6364
      1046.8894
 04  9 14 15 44 44.9990000  0  6G 1G20G11G14G23G25
  -8490977.09849  -6594455.60946  20540508.9334   20540507.4604
      1379.2144
  -8674151.63348  -6752092.98444  22348103.6904   22348101.2414
      2931.4524
  -5242469.99649  -4068085.35546  20884010.1444   20884007.4684
       107.2744
   7623316.54748   5928750.48843  22321540.0974   22321538.1984
     -2510.3774
  -1406106.49646  -1084083.94942  23593812.6054   23593808.7924
      3122.1454
  -8411666.00849  -6531914.99646  20504530.2764   20504527.8044
      1036.9054
 04  9 14 15 44 59.9990000  0  6G 1G20G11G14G23G25
  -8511566.95749  -6610499.65246  20536590.4334   20536588.8124
      1372.6574
  -8718082.25048  -6786324.63744  22339744.3784   22339741.8044
      2928.7084
  -5243924.43749  -4069218.70346  20883733.3944   20883730.4684
        96.9634
   7661012.83648   5958124.21943  22328713.1124   22328711.1834
     -2513.0864
  -1452885.05947  -1120534.78142  23584911.0584   23584907.0584
      3118.5714
  -8427069.73449  -6543917.88346  20501598.7534   20501596.6324
      1026.9154
 04  9 14 15 45 14.9990000  0  6G 1G20G11G14G23G25
  -8532058.44549  -6626467.04746  20532691.3154   20532689.7614
      1366.0994
  -8761971.42648  -6820523.99244  22331392.2224   22331390.3314
      2925.9454
  -5245224.27349  -4070231.57846  20883485.9334   20883483.4404
        86.6564
   7698749.59848   5987529.48044  22335894.6594   22335892.1634
     -2515.7844
  -1499609.83647  -1156943.70742  23576019.7454   23576015.6204
      3114.9854
  -8442323.46549  -6555803.90246  20498696.2534   20498694.3664
      1016.9154
 04  9 14 15 45 29.9990000  0  6G 1G20G11G14G23G25
  -8552450.62549  -6642357.05946  20528810.8004   20528809.3314
      1359.4794
  -8805818.10948  -6854690.23844  22323048.9404   22323046.5814
      2923.1124
  -5246368.59849  -4071123.27046  20883268.1754   20883265.7184
        76.2884
   7736527.70348   6016966.94944  22343083.2614   22343081.5814
     -2518.5404
  -1546279.86346  -1193309.95342  23567138.6674   23567134.4214
      3111.3354
  -8457426.23049  -6567572.28546  20495821.9954   20495820.1324
      1006.8514
 04  9 14 15 45 44.9990000  0  6G 1G20G11G14G23G25
  -8572744.41049  -6658170.39846  20524949.1904   20524947.4444
      1352.9194
  -8849622.89848  -6888823.83644  22314713.3394   22314710.6444
      2920.3194
  -5247358.16449  -4071894.37146  20883079.8154   20883077.4404
        65.9714
   7774346.10548   6046435.80144  22350280.4014   22350278.3124
     -2521.2274
  -1592895.86747  -1229634.09842  23558267.9334   23558263.9724
      3107.7344
  -8472378.78149  -6579223.60946  20492976.6054   20492974.6324
       996.8374
 04  9 14 15 45 59.9990000  0  6G 1G20G11G14G23G25
  -8592938.94949  -6673906.39846  20521105.9954   20521104.6984
      1346.3034
  -8893384.67248  -6922923.91843  22306385.7534   22306382.5114
      2917.4524
  -5248192.05549  -4072544.18046  20882920.9724   20882918.8044
        55.5934
   7812205.44548   6075936.58643  22357484.2224   22357481.8554
     -2523.9564
  -1639456.86347  -1265915.38742  23549407.7614   23549403.7304
      3104.0664
  -8487180.09049  -6590757.08646  20490160.2454   20490158.2534
       986.7544
 04  9 14 15 46 14.9990000  0  6G 1G20G11G14G23G25
  -8613035.08649  -6689565.72746  20517281.9874   20517280.2304
      1339.7424
  -8937104.12148  -6956991.03144  22298066.0264   22298063.1674
      2914.6304
  -5248871.15249  -4073073.35546  20882791.7844   20882789.2694
        45.2734
   7850104.88348   6105468.60243  22364696.4644   22364693.9214
     -2526.6294
  -1685963.52347  -1302154.34442  23540557.1054   23540553.8824
      3100.4444
  -8501830.94949  -6602173.34046  20487372.2764   20487370.1244
       976.7244
 04  9 14 15 46 29.9990000  0  6G 1G20G11G14G23G25
  -8633032.79749  -6705148.35546  20513476.3234   20513474.7144
      1333.1814
  -8980781.04348  -6991024.99643  22289754.7764   22289751.1874
      2911.7954
  -5249395.35549  -4073481.84046  20882692.2374   20882689.3434
        34.9474
   7888044.27048   6135031.73844  22371916.2374   22371914.1164
     -2529.2924
  -1732415.75047  -1338350.88342  23531718.5584   23531714.0624
      3096.8154
  -8516331.29749  -6613472.31246  20484613.1124   20484610.5304
       966.6904
 04  9 14 15 46 44.9990000  0  6G 1G20G11G14G23G25
  -8652931.97749  -6720654.21946  20509689.7694   20509687.7224
      1326.6124
  -9024415.09048  -7025025.55543  22281451.3704   22281448.1594
      2908.9364
  -5249764.65249  -4073769.60946  20882622.0584   20882619.2414
        24.6204
   7926023.55948   6164625.97344  22379143.5974   22379141.3514
     -2531.9534
  -1778813.36747  -1374504.86742  23522889.3554   23522884.3624
      3093.1744
  -8530680.93049  -6624653.84046  20481881.9954   20481880.1364
       956.6424
 04  9 14 15 46 59.9990000  0  6G 1G20G11G14G23G25
  -8672732.51249  -6736083.21146  20505921.9724   20505920.1874
      1320.0364
  -9068005.92648  -7058992.45343  22273156.2534   22273153.2764
      2906.0564
  -5249978.87949  -4073936.54746  20882581.4644   20882578.2964
        14.2824
   7964042.75848   6194251.32044  22386377.9954   22386375.4914
     -2534.6134
  -1825156.10547  -1410616.07842  23514070.2224   23514065.8124
      3089.5164
  -8544879.53949  -6635717.68746  20479180.4874   20479178.4684
       946.5744
 04  9 14 15 47 14.9990000  0  6G 1G20G11G14G23G25
  -8692434.18749  -6751435.16446  20502172.7304   20502170.6084
      1313.4454
  -9111553.28548  -7092925.46143  22264868.9954   22264866.7104
      2903.1574
  -5250037.77349  -4073982.44946  20882569.8704   20882567.0974
         3.9264
   8002101.95748   6223907.81344  22393620.4564   22393619.1634
     -2537.2804
  -1871443.61747  -1446684.25842  23505261.9334   23505258.1904
      3085.8344
  -8558926.81249  -6646663.62147  20476507.2924   20476505.4684
       936.4854
 04  9 14 15 47 29.9990000  0  6G 1G20G11G14G23G25
  -8712037.05949  -6766710.12146  20498442.4954   20498440.7304
      1306.8584
  -9155056.85948  -7126824.32043  22256590.4954   22256588.6474
      2900.2384
  -5249941.33249  -4073907.32046  20882588.4094   20882585.8744
        -6.4294
   8040201.01648   6253595.37943  22400870.3314   22400868.5194
     -2539.9374
  -1917675.88348  -1482709.41442  23496463.8554   23496460.1834
      3082.1514
  -8572822.75449  -6657491.61747  20473863.0114   20473860.7414
       926.3964
 04  9 14 15 47 44.9990000  0  6G 1G20G11G14G23G25
  -8731541.11349  -6781908.07846  20494730.8554   20494729.3394
      1300.2704
  -9198516.39548  -7160688.89544  22248320.3944   22248318.4564
      2897.3024
  -5249689.56249  -4073711.14546  20882636.2534   20882633.5624
       -16.7854
   8078339.85248   6283313.93443  22408128.3704   22408125.9014
     -2542.5894
  -1963852.73848  -1518691.38343  23487677.0814   23487673.1324
      3078.4574
  -8586567.21549  -6668201.57847  20471247.4254   20471245.4444
       916.2974
 04  9 14 15 47 59.9990000  0  6G 1G20G11G14G23G25
  -8750947.03149  -6797029.57046  20491038.0734   20491036.4874
      1293.7284
  -9241932.45348  -7194519.58644  22240058.5734   22240056.7494
      2894.4044
  -5249282.99249  -4073394.35246  20882713.5114   20882710.9834
       -27.1054
   8116517.59848   6313062.82443  22415393.1594   22415390.9444
     -2545.1834
  -2009974.72748  -1554630.59443  23478900.2224   23478896.2024
      3074.7994
  -8600160.74649  -6678793.93447  20468660.8004   20468658.4644
       906.2354
 04  9 14 15 48 14.9990000  0  6G 1G20G11G14G23G25
  -8770254.21149  -6812074.13346  20487363.8784   20487362.3314
      1287.1454
  -9285304.10248  -7228315.68044  22231805.6904   22231803.2064
      2891.4434
  -5248721.16449  -4072956.57846  20882820.5344   20882818.0734
       -37.4554
   8154734.83648   6342842.48043  22422665.7304   22422663.3194
     -2547.8164
  -2056041.16048  -1590526.50442  23470133.9804   23470130.0074
      3071.0964
  -8613602.67249  -6689268.16446  20466102.7614   20466100.6904
       896.1284
 04  9 14 15 48 29.9990000  0  6G 1G20G11G14G23G25
  -8789463.38749  -6827042.32446  20483708.4014   20483707.3274
      1280.6124
  -9328631.86347  -7262077.56644  22223560.5584   22223558.6634
      2888.5174
  -5248004.81249  -4072398.38746  20882957.2924   20882954.2184
       -47.7574
   8192990.69548   6372652.21944  22429944.7844   22429943.5694
     -2550.3914
  -2102052.60948  -1626379.59843  23461378.4254   23461374.4524
      3067.4304
  -8626893.71149  -6699624.80946  20463573.5654   20463570.9524
       886.0694
 04  9 14 15 48 44.9990000  0  6G 1G20G11G14G23G25
  -8808574.06649  -6841933.75446  20480072.3314   20480070.7024
      1274.0454
  -9371915.15248  -7295804.80144  22215323.4404   22215321.9214
      2885.5534
  -5247133.36349  -4071719.34846  20883122.9014   20883120.1554
       -58.0974
   8231285.47748   6402492.26243  22437232.7224   22437230.5654
     -2552.9854
  -2148008.51648  -1662189.38743  23452633.7304   23452629.3474
      3063.7274
  -8640033.28549  -6709863.44546  20461073.1514   20461071.0154
       875.9724
 04  9 14 15 48 59.9990000  0  6G 1G20G11G14G23G25
  -8827586.23849  -6856748.43746  20476454.2694   20476452.7454
      1267.4784
  -9415153.74647  -7329497.20744  22207095.9254   22207093.6164
      2882.5734
  -5246106.75449  -4070919.40646  20883318.4804   20883315.8274
       -68.4414
   8269619.06348   6432362.59443  22444527.1904   22444524.9764
     -2555.5724
  -2193908.78947  -1697955.81643  23443898.7224   23443894.5224
      3060.0184
  -8653021.24249  -6719983.92646  20458601.7694   20458599.4724
       865.8644
 04  9 14 15 49 14.9990000  0  6G 1G20G11G14G23G25
  -8846500.25449  -6871486.62946  20472855.0034   20472853.4294
      1260.9344
  -9458347.77347  -7363154.87944  22198876.7764   22198873.7574
      2879.6024
  -5244925.44149  -4069998.90646  20883543.0264   20883540.0464
       -78.7544
   8307990.92648   6462262.72343  22451828.9874   22451827.3514
     -2558.1244
  -2239753.70748  -1733679.13743  23435174.9724   23435170.9684
      3056.3284
  -8665857.88749  -6729986.50446  20456159.0264   20456157.3124
       855.7764
 04  9 14 15 49 29.9990000  0  6G 1G20G11G14G23G25
  -8865315.85949  -6886148.14146  20469274.3234   20469272.9804
      1254.3744
  -9501496.75047  -7396777.46944  22190665.7614   22190662.9054
      2876.5984
  -5243589.20749  -4068957.69546  20883797.5584   20883794.4334
       -89.0824
   8346401.22748   6492192.80143  22459138.5114   22459136.2494
     -2560.6874
  -2285542.80547  -1769358.93743  23426460.9174   23426458.0034
      3052.6074
  -8678542.77349  -6739870.82846  20453744.9564   20453743.1244
       845.6594
 04  9 14 15 49 44.9990000  0  6G 1G20G11G14G23G25
  -8884032.81649  -6900732.78146  20465712.5974   20465711.1904
      1247.7974
  -9544600.26648  -7430364.62544  22182463.3944   22182460.2304
      2873.5684
  -5242097.70748  -4067795.50846  20884081.3084   20884078.2614
       -99.4334
   8384850.14148   6522152.98043  22466455.1284   22466452.8004
     -2563.2614
  -2331275.77347  -1804994.99643  23417759.1834   23417754.9054
      3048.8654
  -8691075.61748  -6749636.66846  20451360.2144   20451358.0194
       835.5234
 04  9 14 15 49 59.9990000  0  6G 1G20G11G14G23G25
  -8902651.87149  -6915241.13346  20462169.6204   20462168.3124
      1241.2704
  -9587658.65648  -7463916.61744  22174269.3004   22174266.4764
      2870.5594
  -5240451.63349  -4066512.85946  20884394.7224   20884391.8944
      -109.7384
   8423336.81648   6552142.57443  22473779.0424   22473776.7844
     -2565.7784
  -2376953.25047  -1840587.82443  23409066.4874   23409063.0774
      3045.1654
  -8703457.08249  -6759284.56246  20449003.9644   20449001.9764
       825.4314
 04  9 14 15 50 14.9990000  0  6G 1G20G11G14G23G25
  -8921172.83649  -6929673.05146  20458645.0654   20458643.6904
      1234.7314
  -9630671.64148  -7497433.24644  22166084.5424   22166081.9804
      2867.5324
  -5238650.93749  -4065109.73446  20884737.3784   20884734.6054
      -120.0464
   8461861.38748   6582161.70343  22481110.5424   22481107.5114
     -2568.3054
  -2422574.93447  -1876137.17243  23400384.7144   23400381.4994
      3041.4464
  -8715686.92649  -6768814.30546  20446676.7844   20446674.8084
       815.3234
 04  9 14 15 50 29.9990000  0  6G 1G20G11G14G23G25
  -8939595.71149  -6944028.54347  20455139.4254   20455137.7024
      1228.1924
  -9673638.98448  -7530914.28544  22157907.6904   22157905.4294
      2864.4904
  -5236695.53949  -4063586.05146  20885109.0654   20885106.6834
      -130.3604
   8500423.68048   6612210.23043  22488447.7304   22488445.8624
     -2570.8204
  -2468140.65647  -1911642.91842  23391714.3944   23391710.4564
      3037.7154
  -8727765.09849  -6778225.86346  20444378.4174   20444376.3974
       805.2114
 04  9 14 15 50 44.9990000  0  6G 1G20G11G14G23G25
  -8957920.52049  -6958307.60947  20451652.2304   20451650.5974
      1221.6544
  -9716560.42648  -7564359.55144  22149740.0814   22149737.8314
      2861.4294
  -5234585.52049  -4061941.89146  20885510.6754   20885508.0854
      -140.6684
   8539023.62948   6642288.06643  22495793.7374   22495791.1674
     -2573.3304
  -2513650.32447  -1947104.98043  23383054.1594   23383050.4604
      3033.9784
  -8739691.48049  -6787519.13746  20442108.9874   20442106.8944
       795.0924
 04  9 14 15 50 59.9990000  0  6G 1G20G11G14G23G25
  -8976147.35549  -6972510.34046  20448183.8554   20448182.2144
      1215.1224
  -9759435.98848  -7597769.08244  22141581.1984   22141578.9014
      2858.3714
  -5232320.81249  -4060177.19946  20885941.6124   20885939.1364
      -150.9804
   8577661.00848   6672395.10943  22503146.1514   22503144.2374
     -2575.8254
  -2559103.94947  -1982523.37943  23374403.8394   23374400.6834
      3030.2424
  -8751466.13749  -6796694.19547  20439868.0654   20439866.4484
       784.9774
 04  9 14 15 51 14.9990000  0  6G 1G20G11G14G23G25
  -8994276.33249  -6986636.81246  20444733.8004   20444732.4834
      1208.5984
  -9802265.37148  -7631142.61744  22133430.7374   22133428.5344
      2855.2924
  -5229901.52348  -4058292.05146  20886401.9954   20886399.4484
      -161.2864
   8616335.52348   6702531.07443  22510505.7064   22510503.1904
     -2578.3014
  -2604501.42247  -2017898.01243  23365765.9644   23365761.9724
      3026.4984
  -8763089.07849  -6805751.02347  20437656.4174   20437654.6514
       774.8634
 04  9 14 15 51 29.9990000  0  6G 1G20G11G14G23G25
  -9012307.17249  -7000686.82046  20441302.6904   20441301.3314
      1202.0564
  -9845048.16448  -7664479.86344  22125289.5894   22125287.0854
      2852.1864
  -5227327.47749  -4056286.31646  20886892.0034   20886889.3274
      -171.6034
   8655047.30948   6732696.08643  22517872.4014   22517869.8044
     -2580.7864
  -2649842.43747  -2053228.66042  23357137.6904   23357133.6364
      3022.7344
  -8774559.86749  -6814689.29347  20435473.5584   20435471.9724
       764.7194
 04  9 14 15 51 44.9990000  0  6G 1G20G11G14G23G25
  -9030239.84049  -7014660.32047  20437890.4404   20437889.1834
      1195.5114
  -9887784.11348  -7697780.60544  22117157.3784   22117154.9724
      2849.0634
  -5224598.50849  -4054159.85946  20887411.2924   20887408.8274
      -181.9314
   8693796.46948   6762890.22743  22525246.2614   22525243.8354
     -2583.2774
  -2695126.88747  -2088515.23442  23348520.1284   23348515.9334
      3018.9634
  -8785878.21149  -6823508.79347  20433319.9404   20433318.0544
       754.5564
 04  9 14 15 51 59.9990000  0  6G 1G20G11G14G23G25
  -9048074.98049  -7028557.82846  20434496.5424   20434494.8904
      1189.0094
  -9930473.60948  -7731045.14844  22109034.0194   22109031.7964
      2845.9664
  -5221715.42249  -4051913.31246  20887959.7224   20887957.1084
      -192.2064
   8732582.16048   6793112.82043  22532626.6204   22532624.0624
     -2585.7134
  -2740355.24248  -2123758.10542  23339913.3474   23339909.4684
      3015.2244
  -8797044.83649  -6832210.04347  20431194.6124   20431192.8554
       744.4424
 04  9 14 15 52 14.9990000  0  6G 1G20G11G14G23G25
  -9065812.68749  -7042379.42246  20431121.2144   20431119.6404
      1182.5144
  -9973116.57448  -7764273.42244  22100918.8784   22100917.0624
      2842.8644
  -5218678.31648  -4049546.75446  20888537.6054   20888535.1364
      -202.4744
   8771404.16848   6823363.71143  22540013.9334   22540012.3434
     -2588.1344
  -2785527.44148  -2158957.19943  23331317.3084   23331313.3394
      3011.4804
  -8808059.78949  -6840793.12147  20429098.7374   20429096.8124
       734.3304
 04  9 14 15 52 29.9990000  0  6G 1G20G11G14G23G25
  -9083452.91049  -7056125.05146  20427764.2694   20427762.8784
      1176.0154
 -10015712.66848  -7797465.19144  22092813.4484   22092811.0974
      2839.7404
  -5215487.12149  -4047060.12146  20889145.3554   20889141.9874
      -212.7464
   8810262.53148   6853642.93843  22547408.5194   22547406.6014
     -2590.5584
  -2830643.28147  -2194112.40242  23322732.6514   23322727.6984
      3007.7234
  -8818923.00049  -6849257.94947  20427031.5344   20427030.0194
       724.2144
 04  9 14 15 52 44.9990000  0  6G 1G20G11G14G23G25
  -9100995.64149  -7069794.70747  20424425.9564   20424424.5264
      1169.5154
 -10058261.65248  -7830620.23844  22084716.5894   22084714.4134
      2836.5994
  -5212141.70749  -4044453.31246  20889781.8554   20889778.7264
      -223.0284
   8849157.16448   6883950.43443  22554810.2304   22554807.8904
     -2592.9764
  -2875702.71548  -2229223.63343  23314157.7374   23314153.5304
      3003.9624
  -8829634.10249  -6857604.26247  20424993.3944   20424991.4374
       714.0734
 04  9 14 15 52 59.9990000  0  6G 1G20G11G14G23G25
  -9118441.25049  -7083388.68746  20421106.1904   20421104.7574
      1163.0414
 -10100763.68448  -7863738.69944  22076628.9174   22076626.2614
      2833.4694
  -5208642.57849  -4041726.72746  20890447.9404   20890444.3124
      -233.2754
   8888087.44948   6914285.70343  22562218.4874   22562215.9874
     -2595.3524
  -2920706.07047  -2264291.19142  23305593.9254   23305589.3974
      3000.2244
  -8840193.63749  -6865832.46947  20422983.6594   20422981.9054
       703.9694
 04  9 14 15 53 14.9990000  0  6G 1G20G11G14G23G25
  -9135788.63349  -7096906.12946  20417805.1984   20417803.8944
      1156.4924
 -10143217.36748  -7896819.49244  22068549.7304   22068547.3824
      2830.2464
  -5204988.68749  -4038879.55146  20891143.0034   20891139.8084
      -243.5934
   8927054.48848   6944649.61343  22569633.2224   22569631.2574
     -2597.8034
  -2965651.94148  -2299313.94143  23297041.0974   23297037.1834
      2996.3914
  -8850600.39149  -6873941.61747  20421003.6364   20421001.7304
       693.7844
 04  9 14 15 53 29.9990000  0  6G 1G20G11G14G23G25
  -9153039.92249  -7110348.68746  20414522.1364   20414520.2224
      1150.0864
 -10185624.72348  -7929864.18044  22060480.3004   22060477.9054
      2827.1574
  -5201182.06249  -4035913.35546  20891867.5114   20891864.4134
      -253.7754
   8966056.06348   6975040.42243  22577055.3624   22577053.5504
     -2600.1054
  -3010542.43048  -2334293.54743  23288498.8554   23288494.8394
      2992.6994
  -8860856.45749  -6881933.35547  20419051.9954   20419050.0654
       683.7384
 04  9 14 15 53 44.9990000  0  6G 1G20G11G14G23G25
  -9170193.83249  -7123715.36746  20411258.0034   20411256.1754
      1143.5944
 -10227984.32048  -7962871.65644  22052419.7614   22052417.0224
      2823.9734
  -5197221.55148  -4032827.25446  20892621.3084   20892618.4644
      -264.0344
   9005093.18448   7005458.92643  22584484.0894   22584481.9764
     -2602.4754
  -3055376.30548  -2369229.02043  23279967.3154   23279963.8514
      2988.9254
  -8870960.38748  -6889806.53946  20417129.1834   20417127.3084
       673.5954
 04  9 14 15 53 59.9990000  0  6G 1G20G11G14G23G25
  -9187251.54749  -7137007.09046  20408011.9014   20408010.0424
      1137.1814
 -10270296.91448  -7995842.51244  22044367.4724   22044365.3864
      2820.8404
  -5193108.30949  -4029622.13346  20893403.7064   20893400.9804
      -274.2164
   9044164.71548   7035904.27343  22591918.9874   22591917.1204
     -2604.7694
  -3100154.46148  -2404121.06243  23271446.3314   23271442.4254
      2985.2104
  -8880913.48049  -6897562.19546  20415235.0654   20415233.2144
       663.5404
 04  9 14 15 54 14.9990000  0  6G 1G20G11G14G23G25
  -9204212.12149  -7150223.12546  20404784.0974   20404782.9134
      1130.7054
 -10312561.44948  -8028775.91044  22036325.2064   22036322.0114
      2817.6364
  -5188841.33249  -4026297.23846  20894215.8394   20894213.1714
      -284.4654
   9083271.38348   7066376.98443  22599360.6444   22599359.2304
     -2607.1114
  -3144875.80947  -2438968.86343  23262935.7224   23262932.0894
      2981.4234
  -8890714.51649  -6905199.36747  20413370.1594   20413368.3394
       653.4024
 04  9 14 15 54 29.9990000  0  6G 1G20G11G14G23G25
  -9221075.70349  -7163363.57446  20401575.7224   20401573.8514
      1124.2394
 -10354777.81248  -8061671.78144  22028291.1674   22028288.8744
      2814.4244
  -5184420.66849  -4022852.57046  20895056.9484   20895054.0114
      -294.7114
   9122413.09048   7096877.00843  22606809.3864   22606807.0974
     -2609.4474
  -3189540.40647  -2473772.42243  23254436.1284   23254432.6124
      2977.6404
  -8900363.60549  -6912718.12947  20411533.7374   20411532.1204
       643.2734
 04  9 14 15 54 44.9990000  0  6G 1G20G11G14G23G25
  -9237842.23849  -7176428.40246  20398385.0194   20398383.3584
      1117.7694
 -10396945.66448  -8094529.84044  22020267.2694   22020264.9094
      2811.1904
  -5179846.46149  -4019288.26646  20895927.5344   20895924.9444
      -304.9474
   9161589.82048   7127404.28943  22614264.1284   22614262.0934
     -2611.7824
  -3234148.00048  -2508531.57043  23245947.9954   23245943.8514
      2973.8404
  -8909860.71149  -6920118.45747  20409727.0734   20409724.7144
       633.1404
 04  9 14 15 54 59.9990000  0  6G 1G20G11G14G23G25
  -9254512.12149  -7189417.92646  20395212.9484   20395211.2574
      1111.3264
 -10439065.07849  -8127350.14844  22012252.2454   22012249.4834
      2807.9614
  -5175119.07448  -4015604.59846  20896826.9724   20896824.3234
      -315.1594
   9200801.04348   7157958.47343  22621726.0034   22621724.1944
     -2614.0824
  -3278698.89547  -2543246.53943  23237470.3704   23237465.8474
      2970.0604
  -8919206.14849  -6927400.60947  20407948.3394   20407946.4524
       623.0294
 04  9 14 15 55 14.9990000  0  6G 1G20G11G14G23G25
  -9271086.41849  -7202332.96546  20392059.0584   20392057.3084
      1104.9534
 -10481136.99248  -8160133.46944  22004245.8944   22004243.1944
      2804.7944
  -5170239.56249  -4011802.39546  20897755.6124   20897753.0814
      -325.3014
   9240045.62148   7188538.63343  22629194.4014   22629192.0934
     -2616.3054
  -3323194.18447  -2577918.18043  23229002.6364   23228998.2654
      2966.3534
  -8928400.76649  -6934565.24646  20406198.6594   20406196.9214
       612.9744
 04  9 14 15 55 29.9990000  0  6G 1G20G11G14G23G25
  -9287564.09049  -7215172.70747  20388923.3554   20388921.6554
      1098.5114
 -10523159.98848  -8192878.66444  21996249.1834   21996246.4914
      2801.5334
  -5165206.84449  -4007880.80946  20898713.1834   20898710.8974
      -335.5154
   9279324.52048   7219145.55143  22636668.2844   22636665.8744
     -2618.5934
  -3367632.64847  -2612545.53143  23220546.2454   23220541.9294
      2962.5644
  -8937443.35549  -6941611.42246  20404478.0584   20404475.9804
       602.8394
 04  9 14 15 55 44.9990000  0  6G 1G20G11G14G23G25
  -9303945.64149  -7227937.54746  20385806.0734   20385804.5584
      1092.1034
 -10565134.42648  -8225586.00444  21988261.9174   21988259.5894
      2798.2964
  -5160021.52049  -4003840.31246  20899700.3704   20899697.1324
      -345.6884
   9318637.12148   7249778.74243  22644149.3624   22644147.5654
     -2620.8404
  -3412014.59848  -2647128.85943  23212100.9954   23212096.5304
      2958.7974
  -8946334.54749  -6948539.61346  20402785.8554   20402783.7304
       592.7464
 04  9 14 15 55 59.9990000  0  6G 1G20G11G14G23G25
  -9320231.02749  -7240627.45747  20382706.7924   20382705.0854
      1085.6924
 -10607060.12948  -8258255.38344  21980283.6124   21980281.0694
      2795.0474
  -5154683.64849  -3999680.95346  20900715.8624   20900713.1164
      -355.8584
   9357983.32448   7280438.10543  22651636.5734   22651634.5894
     -2623.0804
  -3456339.96947  -2681668.10243  23203666.1444   23203661.5194
      2955.0254
  -8955074.39849  -6955349.88746  20401122.7144   20401120.8584
       582.6574
 04  9 14 15 56 14.9990000  0  6G 1G20G11G14G23G25
  -9336420.69549  -7253242.78147  20379626.1514   20379624.3154
      1079.3114
 -10648937.16448  -8290886.83644  21972315.0194   21972312.1984
      2791.8024
  -5149193.59049  -3995402.98446  20901760.5424   20901757.5584
      -366.0044
   9397362.64848   7311123.28143  22659130.3004   22659128.1124
     -2625.2884
  -3500608.94148  -2716163.36743  23195242.2454   23195237.6204
      2951.2654
  -8963663.09849  -6962042.37147  20399488.8004   20399486.3904
       572.5804
 04  9 14 15 56 29.9990000  0  6G 1G20G11G14G23G25
  -9352514.10549  -7265783.09046  20376563.4334   20376561.6124
      1072.8944
 -10690764.83649  -8323479.82844  21964355.2614   21964352.9334
      2788.5114
  -5143550.54349  -3991005.82046  20902834.4254   20902831.4914
      -376.2034
   9436775.48848   7341834.55543  22666629.9954   22666628.9214
     -2627.5234
  -3544820.86748  -2750614.21143  23186828.3784   23186824.4484
      2947.4624
  -8972100.04349  -6968616.61346  20397883.0504   20397881.0694
       562.4634
 04  9 14 15 56 44.9990000  0  6G 1G20G11G14G23G25
  -9368511.08649  -7278248.26247  20373519.3394   20373517.3824
      1066.4654
 -10732542.71148  -8356034.00444  21956405.4254   21956402.5624
      2785.1924
  -5137754.83249  -3986489.69546  20903936.9564   20903934.5384
      -386.3814
   9476221.91848   7372572.00843  22674136.4954   22674135.1244
     -2629.7624
  -3588975.62148  -2785020.50843  23178426.1594   23178422.5694
      2943.6504
  -8980385.03949  -6975072.44546  20396306.3704   20396304.1404
       552.3334
 04  9 14 15 56 59.9990000  0  6G 1G20G11G14G23G25
  -9384411.71149  -7290638.36746  20370493.6514   20370491.8084
      1060.0424
 -10774270.59449  -8388549.23844  21948464.4874   21948462.0814
      2781.8594
  -5131806.35549  -3981854.52346  20905069.3704   20905066.8154
      -396.5654
   9515701.75848   7403335.49243  22681649.9484   22681648.0074
     -2631.9894
  -3633073.10548  -2819382.17643  23170035.0504   23170030.8784
      2939.8324
  -8988518.03149  -6981409.83646  20394758.2614   20394756.2764
       542.1994
 04  9 14 15 57 14.9990000  0  6G 1G20G11G14G23G25
  -9400216.06649  -7302953.44946  20367486.5114   20367484.4874
      1053.6244
 -10815948.30149  -8421025.37544  21940533.5974   21940530.8314
      2778.5144
  -5125705.32849  -3977100.48446  20906230.1754   20906227.6364
      -406.7354
   9555214.91448   7434124.94943  22689168.5504   22689166.7454
     -2634.2104
  -3677113.24248  -2853699.15643  23161654.4254   23161650.5894
      2936.0094
  -8996499.11349  -6987628.84846  20393239.8234   20393237.8154
       532.0724
 04  9 14 15 57 29.9990000  0  6G 1G20G11G14G23G25
  -9415924.02349  -7315193.41846  20364497.4014   20364495.5154
      1047.1974
 -10857575.50449  -8453462.15244  21932612.3154   21932610.1904
      2775.1474
  -5119451.58649  -3972227.45346  20907420.3704   20907417.7104
      -416.9164
   9594761.41848   7464940.36743  22696694.0194   22696692.4054
     -2636.4344
  -3721095.77748  -2887971.25443  23153284.7454   23153280.5624
      2932.1694
  -9004328.13749  -6993729.37947  20391750.0894   20391748.0734
       521.9354
 04  9 14 15 57 44.9990000  0  6G 1G20G11G14G23G25
  -9431535.34049  -7327358.07846  20361526.5504   20361524.6794
      1040.7544
 -10899151.73848  -8485859.22744  21924700.3004   21924697.9914
      2771.7494
  -5113044.92249  -3967235.25846  20908639.7454   20908636.8124
      -427.1114
   9634341.36748   7495781.87943  22704226.1124   22704224.4994
     -2638.6634
  -3765020.34848  -2922198.18043  23144925.9174   23144922.0774
      2928.3054
  -9012004.84849  -6999711.23046  20390289.2694   20390286.9764
       511.7814
 04  9 14 15 57 59.9990000  0  6G 1G20G11G14G23G25
  -9447051.23049  -7339448.37146  20358573.8624   20358572.0974
      1034.3934
 -10940678.00448  -8518217.35244  21916797.9564   21916795.7144
      2768.4184
  -5106486.60949  -3962124.89846  20909887.6204   20909884.9954
      -437.2214
   9673953.49648   7526648.44543  22711763.9094   22711762.0624
     -2640.8094
  -3808888.10248  -2956380.83643  23136578.5814   23136574.3274
      2924.5174
  -9019530.22749  -7005575.16847  20388857.5114   20388855.4994
       501.6924
 04  9 14 15 58 14.9990000  0  6G 1G20G11G14G23G25
  -9462470.78549  -7351463.60246  20355639.4254   20355638.3744
      1027.9704
 -10982153.03948  -8550535.55544  21908905.5974   21908903.3434
      2765.0024
  -5099775.66048  -3956895.60246  20911164.7614   20911162.0894
      -447.3974
   9713598.66448   7557540.77743  22719308.3154   22719306.7454
     -2643.0114
  -3852698.00848  -2990518.41043  23128241.8704   23128237.4834
      2920.6604
  -9026903.34849  -7011320.45347  20387454.3704   20387452.4374
       491.5414
 04  9 14 15 58 29.9990000  0  6G 1G20G11G14G23G25
  -9477793.97349  -7363403.74646  20352723.5814   20352722.1164
      1021.5464
 -11023576.60548  -8582813.64844  21901023.2144   21901020.8394
      2761.5714
  -5092912.05949  -3951547.35946  20912470.6124   20912467.9444
      -457.5734
   9753276.85948   7588458.80943  22726858.5584   22726857.5304
     -2645.2134
  -3896449.88348  -3024610.77343  23119915.4484   23119911.6634
      2916.7924
  -9034124.18049  -7016947.07047  20386079.8704   20386078.3704
       481.3894
 04  9 14 15 58 44.9990000  0  6G 1G20G11G14G23G25
  -9493020.80949  -7375268.80946  20349826.3314   20349824.4644
      1015.1224
 -11064948.42648  -8615051.42644  21893150.0504   21893147.8154
      2758.1214
  -5085895.80549  -3946080.15246  20913805.7534   20913803.0814
      -467.7504
   9792987.91448   7619402.46143  22734415.3554   22734413.6244
     -2647.4044
  -3940143.53548  -3058657.77043  23111601.1204   23111597.5654
      2912.9104
  -9041192.70749  -7022455.00847  20384734.8784   20384733.3154
       471.2354
 04  9 14 15 58 59.9990000  0  6G 1G20G11G14G23G25
  -9508151.57449  -7387059.02046  20346946.7764   20346945.1204
      1008.7184
 -11106268.52748  -8647248.91444  21885287.5424   21885284.7184
      2754.6734
  -5078727.40648  -3940494.39846  20915169.4094   20915167.0774
      -477.8934
   9832731.43848   7650371.42643  22741977.8944   22741975.8474
     -2649.5684
  -3983779.30548  -3092659.65643  23103297.8314   23103293.4724
      2909.0514
  -9048109.04348  -7027844.34847  20383418.9254   20383417.1244
       461.0894
 04  9 14 15 59 14.9990000  0  6G 1G20G11G14G23G25
  -9523187.53149  -7398775.34846  20344085.3474   20344083.7304
      1002.3974
 -11147537.89548  -8679406.85544  21877434.0344   21877431.4094
      2751.2914
  -5071407.99249  -3934790.96946  20916563.2064   20916560.2764
      -487.9614
   9872506.13348   7681364.66443  22749547.2144   22749545.5734
     -2651.6464
  -4027358.08647  -3126617.12943  23095004.1284   23095000.9994
      2905.2524
  -9054874.35249  -7033116.01646  20382131.5424   20382129.4564
       451.0214
 04  9 14 15 59 29.9990000  0  6G 1G20G11G14G23G25
  -9538127.81249  -7410417.12546  20341242.5424   20341240.9334
       996.0194
 -11188755.55949  -8711524.51644  21869591.0894   21869587.4444
      2747.8444
  -5063936.80549  -3928969.27746  20917984.4094   20917981.6634
      -498.0794
   9912312.70348   7712382.74643  22757122.6514   22757120.9874
     -2653.7714
  -4070878.97347  -3160529.49243  23086722.4484   23086719.1674
      2901.3924
  -9061487.74649  -7038269.29747  20380873.2064   20380871.2844
       440.8934
 04  9 14 15 59 44.9990000  0  6G 1G20G11G14G23G25
  -9552971.82449  -7421983.88346  20338417.4254   20338416.0544
       989.6014
 -11229920.61748  -8743601.18744  21861757.2534   21861754.0114
      2744.3374
  -5056313.33249  -3923028.91446  20919435.2924   20919432.1904
      -508.2324
   9952151.78548   7743426.17243  22764703.5504   22764701.9174
     -2655.9394
  -4114341.30548  -3194396.21543  23078452.3234   23078448.1284
      2897.4894
  -9067948.75849  -7043303.84847  20379643.8474   20379641.4914
       430.7344
 04  9 14 15 59 59.9990000  0  6G 1G20G11G14G23G25
  -9567719.98449  -7433475.94546  20335611.1054   20335609.8234
       983.2114
 -11271033.24249  -8775636.99244  21853933.7304   21853930.7144
      2740.8424
  -5048537.96149  -3916970.19146  20920915.0654   20920912.3194
      -518.3584
   9992022.88347   7774494.55543  22772290.3084   22772289.5194
     -2658.0734
  -4157745.42647  -3228217.59843  23070192.4954   23070188.8624
      2893.6084
  -9074257.69149  -7048219.89847  20378442.8624   20378440.5624
       420.5964
 04  9 14 16  0 14.9990000  0  6G 1G20G11G14G23G25
  -9582372.46549  -7444893.46147  20332822.5734   20332821.1984
       976.8324
 -11312093.25849  -8807631.82044  21846120.5264   21846117.4644
      2737.3344
  -5040610.89149  -3910793.27346  20922423.1444   20922420.2724
      -528.4714
  10031925.72747   7805587.64543  22779884.2304   22779881.9874
     -2660.1904
  -4201091.46147  -3261993.70343  23061944.0504   23061940.5194
      2889.7364
  -9080414.56249  -7053017.45346  20377271.4334   20377269.2804
       410.4584
 04  9 14 16  0 29.9990000  0  6G 1G20G11G14G23G25
  -9596929.67249  -7456236.73047  20330052.8944   20330051.4014
       970.4804
 -11353100.83249  -8839585.77744  21838317.2064   21838314.0584
      2733.8384
  -5032532.49649  -3904498.42646  20923960.3474   20923957.6714
      -538.5604
  10071859.86747   7836705.14543  22787482.9254   22787481.7374
     -2662.2764
  -4244379.51648  -3295724.62943  23053707.1834   23053703.2884
      2885.8704
  -9086419.79749  -7057696.85247  20376128.4804   20376126.5814
       400.3494
 04  9 14 16  0 44.9990000  0  6G 1G20G11G14G23G25
  -9611391.45349  -7467505.66046  20327301.3004   20327299.4484
       964.1194
 -11394055.61749  -8871498.59444  21830523.3624   21830520.7414
      2730.3194
  -5024302.80149  -3898085.68746  20925526.9874   20925523.9804
      -548.6464
  10111825.36747   7867847.07043  22795087.8784   22795086.7264
     -2664.3674
  -4287609.30548  -3329410.17643  23045480.6364   23045476.6474
      2881.9864
  -9092273.24649  -7062257.99247  20375014.8314   20375012.7184
       390.2304
 04  9 14 16  0 59.9990000  0  6G 1G20G11G14G23G25
  -9625757.25849  -7478699.78147  20324567.2374   20324565.6794
       957.7204
 -11434956.77749  -8903369.63744  21822740.3784   21822737.1444
      2726.7444
  -5015921.33249  -3891554.68746  20927121.4404   20927118.8904
      -558.7654
  10151822.69147   7899013.78143  22802699.8864   22802698.0264
     -2666.4884
  -4330780.25848  -3363049.85243  23037265.0974   23037261.6444
      2878.0644
  -9097974.34449  -7066700.39847  20373929.6594   20373927.5304
       380.0734
 04  9 14 16  1 14.9990000  0  6G 1G20G11G14G23G25
  -9640028.13749  -7489819.94546  20321851.3154   20321850.0464
       951.3924
 -11475805.21149  -8935199.57844  21814966.8944   21814963.8624
      2723.2294
  -5007389.03149  -3884906.14546  20928745.1834   20928742.5264
      -568.8204
  10191850.62147   7930204.35943  22810316.7614   22810314.9834
     -2668.5294
  -4373893.38747  -3396644.48843  23029061.4804   23029057.4014
      2874.2094
  -9103524.09849  -7071024.87147  20372873.3234   20372871.4134
       369.9844
 04  9 14 16  1 29.9990000  0  6G 1G20G11G14G23G25
  -9654203.20749  -7500865.44547  20319153.9954   20319152.2494
       945.0054
 -11516599.75448  -8966987.53944  21807203.9404   21807201.8624
      2719.6364
  -4998705.15649  -3878139.49646  20930397.7064   20930394.9954
      -578.9254
  10231910.01647   7961419.45343  22817939.8554   22817938.1284
     -2670.6264
  -4416947.53547  -3430193.15243  23020868.3944   23020864.2574
      2870.2774
  -9108921.49649  -7075230.63747  20371846.5424   20371844.4834
       359.8274
 04  9 14 16  1 44.9990000  0  6G 1G20G11G14G23G25
  -9668283.12949  -7511836.81647  20316474.8234   20316472.9834
       938.6614
 -11557340.77048  -8998733.78144  21799451.1054   21799449.2654
      2716.0684
  -4989870.37549  -3871255.26646  20932078.6834   20932076.2414
      -588.9854
  10272000.08647   7992658.44143  22825568.9954   22825567.9724
     -2672.6714
  -4459943.40247  -3463696.41443  23012686.4804   23012682.2884
      2866.3914
  -9114167.20349  -7079318.18747  20370848.4334   20370846.3784
       349.7144
 04  9 14 16  1 59.9990000  0  6G 1G20G11G14G23G25
  -9682267.47349  -7522733.70747  20313813.4484   20313811.8314
       932.2904
 -11598027.46949  -9030437.69944  21791708.6284   21791706.2184
      2712.4474
  -4980884.28549  -3864253.12546  20933788.6364   20933786.4834
      -599.0734
  10312121.26247   8023921.67243  22833203.3394   22833202.1474
     -2674.7454
  -4502880.28548  -3497153.71143  23004515.8314   23004511.5774
      2862.4594
  -9119260.61749  -7083287.08247  20369879.2694   20369877.1164
       339.5614
 04  9 14 16  2 14.9990000  0  6G 1G20G11G14G23G25
  -9696156.57849  -7533556.38347  20311170.8394   20311169.2264
       925.9404
 -11638660.00849  -9062099.41044  21783976.7144   21783974.2064
      2708.8364
  -4971747.25848  -3857133.37946  20935527.4174   20935525.0384
      -609.1354
  10352273.22747   8055208.89542  22840844.5194   22840841.7304
     -2676.7984
  -4545758.38747  -3530565.19543  22996356.4724   22996352.4994
      2858.5404
  -9124202.09049  -7087137.57847  20368938.8474   20368936.9724
       329.4324
 04  9 14 16  2 29.9990000  0  6G 1G20G11G14G23G25
  -9709951.59049  -7544305.75047  20308545.8234   20308544.3234
       919.6674
 -11679239.26249  -9093719.61344  21776254.3474   21776252.2694
      2705.2844
  -4962460.41449  -3849896.89146  20937294.8784   20937292.6164
      -619.1234
  10392454.70347   8086519.10243  22848490.3864   22848488.9094
     -2678.7654
  -4588578.79747  -3563931.73843  22988207.8234   22988203.7494
      2854.6944
  -9128992.75849  -7090870.56647  20368027.2304   20368025.1674
       319.3784
 04  9 14 16  2 44.9990000  0  6G 1G20G11G14G23G25
  -9723651.71549  -7554981.16447  20305938.7224   20305936.6364
       913.3424
 -11719764.15649  -9125297.45344  21768543.1594   21768540.8904
      2701.6604
  -4953023.14548  -3842543.18446  20939090.7844   20939087.9094
      -629.1514
  10432666.44947   8117852.90243  22856142.1124   22856141.1474
     -2680.7834
  -4631340.59047  -3597252.59843  22980070.6284   22980066.4134
      2850.7864
  -9133631.83648  -7094485.43047  20367143.9874   20367142.0654
       309.2724
 04  9 14 16  2 59.9990000  0  6G 1G20G11G14G23G25
  -9737257.16449  -7565582.81247  20303349.6834   20303347.7264
       907.0304
 -11760234.65649  -9156832.89544  21760841.5504   21760839.2924
      2698.0334
  -4943435.63349  -3835072.40246  20940915.3234   20940912.5034
      -639.1674
  10472908.23447   8149210.10943  22863800.5584   22863798.2534
     -2682.7864
  -4674043.78147  -3630527.78943  22971944.7614   22971940.5384
      2846.8794
  -9138119.39149  -7097982.22746  20366290.3864   20366288.3514
       299.1704
 04  9 14 16  3 14.9990000  0  6G 1G20G11G14G23G25
  -9750767.91449  -7576110.66847  20300778.4174   20300776.7494
       900.7174
 -11800650.45749  -9188325.73445  21753151.2144   21753148.7104
      2694.3874
  -4933697.94148  -3827484.59846  20942768.1594   20942765.5694
      -649.1794
  10513179.89546   8180590.60943  22871463.6514   22871462.1124
     -2684.7774
  -4716688.28947  -3663757.25443  22963828.9254   22963825.1714
      2842.9674
  -9142455.48449  -7101360.99647  20365465.4874   20365463.0344
       289.0734
 04  9 14 16  3 29.9990000  0  6G 1G20G11G14G23G25
  -9764184.78149  -7586565.36346  20298225.3624   20298223.3124
       894.4584
 -11841012.16449  -9219776.41044  21745470.7694   21745468.0654
      2690.7804
  -4923810.83648  -3819780.36746  20944649.4954   20944646.9094
      -659.1404
  10553480.63347   8211993.75043  22879132.5814   22879131.1944
     -2686.7164
  -4759274.80547  -3696941.53143  22955725.7614   22955721.2884
      2839.1014
  -9146640.94148  -7104622.38347  20364668.6834   20364666.6984
       279.0304
 04  9 14 16  3 44.9990000  0  6G 1G20G11G14G23G25
  -9777507.48849  -7596946.69546  20295689.9014   20295688.2844
       888.1804
 -11881319.18049  -9251184.48044  21737800.1754   21737797.5424
      2687.1344
  -4913774.12149  -3811959.56246  20946559.2764   20946556.8434
      -669.1144
  10593810.60547   8243419.68843  22886807.3944   22886805.5504
     -2688.6654
  -4801802.89547  -3730080.28543  22947632.1674   22947628.5694
      2835.2064
  -9150675.28549  -7107766.02047  20363901.0504   20363899.0544
       268.9564
 04  9 14 16  3 59.9990000  0  6G 1G20G11G14G23G25
  -9790736.20349  -7607254.78147  20293172.7844   20293171.0974
       881.9144
 -11921571.28949  -9282549.77044  21730140.2144   21730137.8194
      2683.4744
  -4903588.09849  -3804022.41046  20948498.3004   20948495.2924
      -679.0684
  10634169.59047   8274868.22342  22894487.2844   22894485.2414
     -2690.5994
  -4844272.62947  -3763173.58243  22939550.8784   22939546.8554
      2831.3164
  -9154558.62149  -7110792.00047  20363161.9254   20363159.8784
       258.8894
 04  9 14 16  4 14.9990000  0  6G 1G20G11G14G23G25
  -9803870.93449  -7617489.63746  20290673.1124   20290671.6084
       875.6494
 -11961768.38349  -9313872.17644  21722491.1834   21722488.5974
      2679.8064
  -4893252.87949  -3795969.00046  20950464.7614   20950461.9524
      -689.0154
  10674557.44947   8306339.26242  22902172.1124   22902170.5034
     -2692.5244
  -4886683.87147  -3796221.28143  22931480.0894   22931476.2224
      2827.4164
  -9158290.98449  -7113700.33247  20362451.8084   20362450.0114
       248.8244
 04  9 14 16  4 29.9990000  0  6G 1G20G11G14G23G25
  -9816912.24649  -7627651.69546  20288191.6204   20288189.7574
       869.4214
 -12001910.82449  -9345151.99244  21714852.5194   21714849.8004
      2676.1634
  -4882768.99649  -3787799.75046  20952459.3704   20952457.1124
      -698.9264
  10714973.65247   8337832.35542  22909863.9174   22909861.9214
     -2694.4144
  -4929037.06647  -3829223.75443  22923421.0264   22923416.7924
      2823.5464
  -9161873.05149  -7116491.55147  20361770.2534   20361768.1284
       238.8044
 04  9 14 16  4 44.9990000  0  6G 1G20G11G14G23G25
  -9829859.86749  -7637740.75047  20285728.0734   20285726.1754
       863.1754
 -12041998.00849  -9376388.76644  21707223.8554   21707221.5504
      2672.4794
  -4872136.19149  -3779514.46546  20954482.9724   20954480.4134
      -708.8544
  10755418.35947   8369347.70342  22917560.1674   22917558.0344
     -2696.3144
  -4971331.96547  -3862180.80543  22915372.1514   22915367.9764
      2819.6604
  -9165304.47749  -7119165.38347  20361117.1124   20361115.3514
       228.7624
 04  9 14 16  4 59.9990000  0  6G 1G20G11G14G23G25
  -9842713.81249  -7647756.80146  20283281.6124   20283280.4254
       856.9304
 -12082029.72749  -9407582.31644  21699606.0424   21699603.6124
      2668.7814
  -4861354.70349  -3771113.30946  20956534.4174   20956532.1014
      -718.7664
  10795891.50447   8400885.19942  22925262.5344   22925259.4954
     -2698.2104
  -5013568.37947  -3895092.28543  22907334.4404   22907331.0544
      2815.7614
  -9168585.27749  -7121721.84047  20360492.9254   20360490.9054
       218.7204
 04  9 14 16  5 14.9990000  0  6G 1G20G11G14G23G25
  -9855473.27349  -7657699.24247  20280853.3394   20280852.0304
       850.6314
 -12122004.78949  -9438731.71144  21691998.9644   21691996.5774
      2665.0044
  -4850423.59449  -3762595.56646  20958614.6124   20958612.2574
      -728.7414
  10836393.94147   8432445.52742  22932969.4874   22932966.6944
     -2700.1624
  -5055745.34047  -3927957.43743  22899308.8154   22899304.9604
      2811.7974
  -9171714.57849  -7124160.25847  20359897.1124   20359895.3514
       208.6204
 04  9 14 16  5 29.9990000  0  6G 1G20G11G14G23G25
  -9868139.90649  -7667569.33647  20278442.9724   20278441.6904
       844.4424
 -12161924.68449  -9469838.13744  21684402.5894   21684399.9334
      2661.3264
  -4839344.73049  -3753962.69945  20960722.8784   20960720.4994
      -738.5914
  10876923.70347   8464027.12942  22940682.1984   22940680.2924
     -2701.9844
  -5097864.37547  -3960777.44543  22891293.7614   22891289.8944
      2807.9364
  -9174693.87549  -7126481.78547  20359330.6594   20359328.3194
       198.6204
 04  9 14 16  5 44.9990000  0  6G 1G20G11G14G23G25
  -9880713.58249  -7677367.00847  20276050.5114   20276048.8824
       838.2454
 -12201788.97349  -9500901.19944  21676816.4094   21676814.1324
      2657.6194
  -4828117.95749  -3745214.57446  20962859.3004   20962856.8394
      -748.4524
  10917480.98847   8495630.18842  22948400.2694   22948397.8314
     -2703.8194
  -5139925.24247  -3993552.12943  22883289.5734   22883285.5544
      2804.0584
  -9177523.08649  -7128686.35946  20358792.2064   20358789.9954
       188.6144
 04  9 14 16  5 59.9990000  0  6G 1G20G11G14G23G25
  -9893193.90249  -7687091.92647  20273675.6444   20273674.0344
       832.0214
 -12241596.94949  -9531920.40644  21669241.3624   21669239.4564
      2653.8654
  -4816742.98449  -3736350.96946  20965023.9874   20965021.4094
      -758.3324
  10958066.26647   8527255.05142  22956123.2924   22956121.1204
     -2705.6854
  -5181927.46547  -4026281.12143  22875297.1124   22875293.1324
      2800.1484
  -9180201.93449  -7130773.77346  20358282.3084   20358280.2104
       178.5904
 04  9 14 16  6 14.9990000  0  6G 1G20G11G14G23G25
  -9905581.15649  -7696744.32447  20271318.3084   20271316.8314
       825.8174
 -12281348.68049  -9562895.77744  21661677.1054   21661674.3944
      2650.1154
  -4805220.18048  -3727372.17245  20967216.6594   20967214.2454
      -768.1874
  10998679.02347   8558901.35542  22963851.2764   22963849.0624
     -2707.5174
  -5223871.19947  -4058964.53143  22867315.7534   22867311.6874
      2796.2494
  -9182730.63349  -7132744.18447  20357801.1674   20357799.0814
       168.5804
 04  9 14 16  6 29.9990000  0  6G 1G20G11G14G23G25
  -9917875.79749  -7706324.56247  20268978.6834   20268977.3944
       819.6434
 -12321044.32049  -9593827.44544  21654123.0974   21654120.4014
      2646.3764
  -4793549.86749  -3718278.42646  20969437.5584   20969434.7844
      -778.0214
  11039318.85946   8590568.75042  22971584.5814   22971582.0544
     -2709.3224
  -5265756.75847  -4091602.62143  22859344.7924   22859341.3154
      2792.3714
  -9185109.45749  -7134597.81247  20357348.4724   20357346.5544
       158.5884
 04  9 14 16  6 44.9990000  0  6G 1G20G11G14G23G25
  -9930077.87549  -7715832.68447  20266656.9094   20266655.0624
       813.4724
 -12360683.60549  -9624715.19544  21646580.2374   21646577.9724
      2642.6194
  -4781732.31649  -3709069.94946  20971686.0894   20971683.8744
      -787.8374
  11079985.59447   8622257.09042  22979323.3154   22979321.4094
     -2711.1164
  -5307584.00047  -4124195.27343  22851385.8154   22851381.8824
      2788.4834
  -9187338.43749  -7136334.67647  20356924.3704   20356922.3004
       148.5994
 04  9 14 16  6 59.9990000  0  6G 1G20G11G14G23G25
  -9942187.05149  -7725268.40247  20264352.3784   20264350.5694
       807.2784
 -12400265.92249  -9655558.57044  21639047.6364   21639045.3154
      2638.8214
  -4769767.19149  -3699746.49246  20973963.1594   20973960.6634
      -797.6754
  11120679.51647   8653966.61742  22987066.6984   22987065.7184
     -2712.9284
  -5349352.50447  -4156742.13343  22843437.1204   22843433.0034
      2784.5674
  -9189417.25849  -7137954.53547  20356528.8624   20356526.8434
       138.5884
 04  9 14 16  7 14.9990000  0  6G 1G20G11G14G23G25
  -9954204.07849  -7734632.32047  20262065.8474   20262064.0344
       801.1354
 -12439791.76649  -9686357.93045  21631526.4804   21631524.3394
      2635.0564
  -4757655.33649  -3690308.68446  20976268.0654   20976265.6364
      -807.4574
  11161399.88347   8685696.72742  22994816.6364   22994814.4094
     -2714.6914
  -5391062.95347  -4189243.77043  22835499.9254   22835495.7694
      2780.6974
  -9191346.57449  -7139457.89847  20356161.7304   20356159.2764
       128.6214
 04  9 14 16  7 29.9990000  0  6G 1G20G11G14G23G25
  -9966128.90649  -7743924.39546  20259796.3944   20259794.7454
       794.9894
 -12479260.93749  -9717113.12545  21624015.8084   21624013.5654
      2631.2784
  -4745396.82848  -3680756.60946  20978600.9954   20978598.2844
      -817.2344
  11202146.71147   8717447.46942  23002570.1364   23002568.2224
     -2716.4554
  -5432715.27347  -4221700.11743  22827573.8704   22827569.7144
      2776.8214
  -9193126.55949  -7140844.89147  20355823.2224   20355820.7534
       118.6664
 04  9 14 16  7 44.9990000  0  6G 1G20G11G14G23G25
  -9977961.60249  -7753144.67247  20257544.7764   20257543.2964
       788.8464
 -12518673.26249  -9747824.02745  21616516.0584   21616513.4334
      2627.4884
  -4732991.71949  -3671090.30146  20980961.3154   20980958.9254
      -827.0074
  11242919.75447   8749218.64842  23010329.1754   23010327.1674
     -2718.2034
  -5474309.16447  -4254110.91043  22819658.1124   22819654.6164
      2772.9264
  -9194757.24649  -7142115.54747  20355512.5264   20355510.4954
       108.7134
 04  9 14 16  7 59.9990000  0  6G 1G20G11G14G23G25
  -9989701.99649  -7762293.02747  20255310.6674   20255309.4294
       782.6934
 -12558028.21949  -9778490.22744  21609026.8554   21609024.6984
      2623.6644
  -4720439.98049  -3661309.73446  20983349.8554   20983347.4914
      -836.7834
  11283719.10548   8781010.33242  23018093.9484   23018091.4764
     -2719.9574
  -5515844.51247  -4286476.10943  22811754.8784   22811750.8904
      2769.0234
  -9196238.32049  -7143269.63347  20355230.7534   20355228.5224
        98.7384
 04  9 14 16  8 14.9990000  0  6G 1G20G11G14G23G25
 -10001350.36349  -7771369.67246  20253093.8314   20253092.5264
       776.5584
 -12597325.72349  -9809111.66444  21601548.5654   21601546.1474
      2619.8344
  -4707742.01649  -3651415.23046  20985766.0194   20985763.9404
      -846.5314
  11324544.38347   8812822.24242  23025861.8864   23025859.7104
     -2721.6854
  -5557321.51247  -4318795.83243  22803861.9014   22803857.9374
      2765.1334
  -9197570.02049  -7144307.32047  20354977.4094   20354975.2694
        88.7804
 04  9 14 16  8 29.9990000  0  6G 1G20G11G14G23G25
 -10012906.69149  -7780374.59846  20250894.6594   20250893.2414
       770.4224
 -12636565.46949  -9839688.09045  21594081.8554   21594079.8044
      2615.9834
  -4694897.87948  -3641406.81645  20988210.1444   20988208.0154
      -856.2764
  11365395.80147   8844654.50042  23033635.3554   23033633.4834
     -2723.4284
  -5598739.85247  -4351069.85943  22795980.3944   22795976.1364
      2761.2234
  -9198752.39549  -7145228.65247  20354752.4484   20354750.4404
        78.8254
 04  9 14 16  8 44.9990000  0  6G 1G20G11G14G23G25
 -10024371.27349  -7789308.04346  20248713.2534   20248711.6364
       764.3054
 -12675747.59449  -9870219.60544  21586625.5194   21586623.2694
      2612.1424
  -4681907.84849  -3631284.72746  20990682.2374   20990680.1874
      -866.0024
  11406272.88747   8876506.74242  23041414.4094   23041411.7224
     -2725.1394
  -5640099.87148  -4383298.42643  22788110.0344   22788105.5544
      2757.3354
  -9199785.65649  -7146033.78947  20354555.7224   20354553.3434
        68.8844
 04  9 14 16  8 59.9990000  0  6G 1G20G11G14G23G25
 -10035744.97749  -7798170.66446  20246548.7224   20246547.0734
       758.2474
 -12714872.63349  -9900706.66045  21579180.2534   21579177.4874
      2608.3364
  -4668772.85549  -3621049.67645  20993181.6594   20993179.8864
      -875.6664
  11447174.58647   8908378.19542  23049198.0114   23049195.8624
     -2726.7804
  -5681402.26247  -4415482.09443  22780250.3704   22780246.2184
      2753.4934
  -9200670.82049  -7146723.52747  20354387.4334   20354385.1444
        59.0114
 04  9 14 16  9 14.9990000  0  6G 1G20G11G14G23G25
 -10047026.85549  -7806961.73447  20244402.4874   20244400.3974
       752.1254
 -12753939.38749  -9931148.28145  21571745.9954   21571743.8154
      2604.4504
  -4655492.09848  -3610701.04346  20995709.0974   20995706.8084
      -885.3844
  11488102.08247   8940269.69542  23056985.6444   23056984.0734
     -2728.5004
  -5722645.88347  -4447619.96944  22772401.4254   22772398.1284
      2749.5754
  -9201406.76249  -7147296.98047  20354247.0504   20354245.0114
        49.0634
 04  9 14 16  9 29.9990000  0  6G 1G20G11G14G23G25
 -10058218.17249  -7815682.24247  20242272.3084   20242270.7264
       746.0884
 -12792948.80949  -9961545.25445  21564322.9334   21564320.3514
      2600.6284
  -4642066.98849  -3600239.93046  20998263.5424   20998261.6754
      -895.0074
  11529053.92647   8972180.18842  23064778.8704   23064776.6164
     -2730.1234
  -5763831.90647  -4479712.97343  22764565.1284   22764560.1204
      2745.7354
  -9201994.73449  -7147755.12547  20354135.3554   20354133.4644
        39.1984
 04  9 14 16  9 44.9990000  0  6G 1G20G11G14G23G25
 -10069318.60249  -7824331.92647  20240160.1284   20240158.1124
       740.0294
 -12831900.33249  -9991897.08644  21556910.3784   21556908.0074
      2596.7684
  -4628497.01249  -3589665.92645  21000845.9094   21000843.8044
      -904.6654
  11570030.45747   9004109.93842  23072576.5814   23072573.9524
     -2731.7694
  -5804959.82847  -4511760.69543  22756737.5894   22756733.8584
      2741.8614
  -9202434.56249  -7148097.85247  20354051.6984   20354049.6404
        29.3224
 04  9 14 16  9 59.9990000  0  6G 1G20G11G14G23G25
 -10080327.58649  -7832910.35247  20238065.3084   20238063.7764
       733.9324
 -12870793.00849 -10022203.05545  21549509.6754   21549507.0384
      2592.8454
  -4614781.68049  -3578978.67245  21003455.8784   21003453.8434
      -914.3554
  11611032.05147   9036059.22342  23080378.6204   23080376.4954
     -2733.4404
  -5846029.11748  -4543762.73043  22748922.9724   22748918.5114
      2737.9534
  -9202725.73449  -7148324.73447  20353995.8944   20353994.2924
        19.4114
 04  9 14 16 10 14.9990000  0  6G 1G20G11G14G23G25
 -10091245.64149  -7841417.92647  20235987.3624   20235985.8554
       727.8704
 -12909627.11349 -10052463.40645  21542119.7304   21542117.0344
      2588.9404
  -4600921.86349  -3568178.83245  21006093.4014   21006090.8664
      -923.9884
  11652058.21147   9068027.64142  23088185.5894   23088184.1874
     -2735.0774
  -5887040.15247  -4575719.35243  22741118.1754   22741113.8554
      2734.0694
  -9202868.54349  -7148436.00847  20353968.9014   20353967.2414
         9.5214
 04  9 14 16 10 29.9990000  0  6G 1G20G11G14G23G25
 -10102073.42649  -7849855.15647  20233927.1284   20233925.8864
       721.8524
 -12948403.03149 -10082678.40645  21534740.7224   21534738.7304
      2585.0614
  -4586918.08249  -3557266.79345  21008758.3004   21008755.5734
      -933.5854
  11693108.33648   9100014.71942  23095997.6444   23095995.4174
     -2736.6754
  -5927993.35547  -4607630.92243  22733325.8314   22733321.2184
      2730.2144
  -9202863.65249  -7148432.19946  20353969.6834   20353967.6124
        -0.3264
 04  9 14 16 10 44.9990000  0  6G 1G20G11G14G23G25
 -10112810.26649  -7858221.53146  20231883.7374   20231882.4054
       715.7894
 -12987119.84449 -10112847.34845  21527373.2614   21527370.9524
      2581.1214
  -4572769.84849  -3546242.20745  21011450.4564   21011447.7964
      -943.2164
  11734182.85248   9132020.83642  23103813.5654   23103810.8434
     -2738.3014
  -5968888.00847  -4639496.86743  22725543.4954   22725539.3864
      2726.3104
  -9202710.42649  -7148312.79747  20353998.8154   20353996.6324
       -10.2154
 04  9 14 16 10 59.9990000  0  6G 1G20G11G14G23G25
 -10123456.69549  -7866517.44547  20229858.1364   20229856.2454
       709.7624
 -13025777.68449 -10142970.35245  21520016.9094   21520014.4484
      2577.1894
  -4558477.72349  -3535105.49645  21014170.6514   21014167.8234
      -952.8084
  11775281.45747   9164045.71542  23111634.1054   23111632.3274
     -2739.9074
  -6009724.32447  -4671317.36743  22717772.5114   22717767.9214
      2722.4214
  -9202409.31249  -7148078.16046  20354056.0814   20354054.1364
       -20.0744
 04  9 14 16 11 14.9990000  0  6G 1G20G11G14G23G25
 -10134013.58649  -7874743.59847  20227848.9954   20227847.3944
       703.7934
 -13064377.25449 -10173047.91845  21512671.6204   21512669.6084
      2573.3054
  -4544042.73849  -3523857.46146  21016917.2534   21016914.7764
      -962.3324
  11816403.09847   9196088.51642  23119458.5424   23119457.6324
     -2741.4434
  -6050503.26247  -4703093.13743  22710012.2924   22710008.3354
      2718.5964
  -9201961.23049  -7147728.99647  20354141.2144   20354139.2224
       -29.8724
 04  9 14 16 11 29.9990000  0  6G 1G20G11G14G23G25
 -10144480.14149  -7882899.35247  20225857.5114   20225855.6594
       697.7704
 -13102917.36349 -10203079.17645  21505337.5814   21505335.1754
      2569.3414
  -4529464.19948  -3512497.57045  21019691.2764   21019689.0734
      -971.9034
  11857548.48847   9228149.83242  23127289.0584   23127286.9834
     -2743.0264
  -6091223.89147  -4734823.48043  22702263.3234   22702259.1054
      2714.7094
  -9201365.39849  -7147264.71547  20354255.0814   20354253.0194
       -39.7224
 04  9 14 16 11 44.9990000  0  6G 1G20G11G14G23G25
 -10154856.47749  -7890984.81646  20223882.8554   20223881.2104
       691.7564
 -13141397.87949 -10233063.99245  21498015.5194   21498012.5424
      2565.3684
  -4514742.19549  -3501025.88746  21022493.3084   21022490.5854
      -981.4674
  11898717.41847   9260229.52042  23135123.5974   23135121.5854
     -2744.5954
  -6131886.14547  -4766508.34443  22694525.9954   22694521.9294
      2710.8174
  -9200621.87949  -7146685.34047  20354396.5654   20354394.1984
       -49.5684
 04  9 14 16 11 59.9990000  0  6G 1G20G11G14G23G25
 -10165143.17249  -7899000.41447  20221925.2454   20221923.9604
       685.7804
 -13179819.09049 -10263002.59845  21490703.9334   21490701.6244
      2561.4144
  -4499877.42649  -3489442.95746  21025322.0424   21025319.1164
      -990.9854
  11939909.35247   9292327.09042  23142961.0654   23142959.5624
     -2746.1294
  -6172490.59047  -4798148.16443  22686798.6984   22686794.7414
      2706.9634
  -9199731.29749  -7145991.38747  20354566.0114   20354563.7764
       -59.3724
 04  9 14 16 12 14.9990000  0  6G 1G20G11G14G23G25
 -10175340.55549  -7906946.42647  20219984.7224   20219983.1364
       679.8264
 -13218181.16449 -10292895.12145  21483404.0504   21483401.1904
      2557.4724
  -4484870.35249  -3477749.13746  21028177.2224   21028175.1164
     -1000.4724
  11981124.01247   9324442.38742  23150804.5264   23150802.5504
     -2747.6444
  -6213037.31247  -4829743.00043  22679083.2924   22679078.7614
      2703.1154
  -9198694.07049  -7145183.14547  20354763.3784   20354761.5544
       -69.1484
 04  9 14 16 12 29.9990000  0  6G 1G20G11G14G23G25
 -10185448.16849  -7914822.49247  20218061.5114   20218059.9524
       673.8414
 -13256483.25849 -10322740.89845  21476115.4094   21476112.4914
      2553.4734
  -4469720.55149  -3465944.10246  21031060.2844   21031057.6944
     -1009.9874
  12022361.69147   9356575.60942  23158652.5814   23158650.0974
     -2749.1794
  -6253525.71947  -4861292.39143  22671378.6284   22671374.4764
      2699.2274
  -9197509.71549  -7144260.27047  20354988.6834   20354986.5624
       -78.9574
 04  9 14 16 12 44.9990000  0  6G 1G20G11G14G23G25
 -10195466.39849  -7922628.90247  20216154.9404   20216153.5224
       667.8824
 -13294725.53149 -10352540.08245  21468837.9724   21468835.3434
      2549.4854
  -4454428.60949  -3454028.31645  21033970.4644   21033967.8704
     -1019.4634
  12063622.00047   9388726.49242  23166503.3944   23166501.8314
     -2750.6874
  -6293956.11748  -4892796.59043  22663684.8474   22663680.6514
      2695.3604
  -9196178.66449  -7143223.07447  20355241.9174   20355240.3044
       -88.7374
 04  9 14 16 12 59.9990000  0  6G 1G20G11G14G23G25
 -10205395.46949  -7930365.84446  20214265.7374   20214264.1124
       661.9384
 -13332907.91449 -10382292.57845  21461572.2454   21461570.2374
      2545.4924
  -4438994.77749  -3442001.96145  21036907.3624   21036904.7574
     -1028.9224
  12104904.62546   9420894.75042  23174358.9014   23174357.9334
     -2752.1754
  -6334328.64847  -4924255.69144  22656002.0584   22655998.3624
      2691.5024
  -9194701.09049  -7142071.71547  20355522.9644   20355521.1284
       -98.5054
 04  9 14 16 13 14.9990000  0  6G 1G20G11G14G23G25
 -10215235.80949  -7938033.64547  20212393.4014   20212391.6794
       656.0234
 -13371030.49649 -10411998.48445  21454317.6984   21454315.3354
      2541.5054
  -4423419.57449  -3429865.45345  21039871.4014   21039868.6874
     -1038.3474
  12146209.07046   9453079.99642  23182219.4484   23182218.3744
     -2753.6304
  -6374643.62947  -4955669.92244  22648330.8474   22648326.7224
      2687.6654
  -9193077.34449  -7140806.45747  20355832.1904   20355830.2144
      -108.2504
 04  9 14 16 13 29.9990000  0  6G 1G20G11G14G23G25
 -10224986.87149  -7945631.87147  20210537.2764   20210535.7024
       650.0714
 -13409092.52349 -10441657.19945  21447074.3784   21447072.0694
      2537.4684
  -4407702.54748  -3417618.42645  21042862.1754   21042859.3664
     -1047.8024
  12187535.92247   9485282.69542  23190083.8944   23190082.4054
     -2755.1234
  -6414900.35247  -4987038.78944  22640669.9334   22640665.4254
      2683.7824
  -9191306.89549  -7139426.89147  20356169.1444   20356167.2614
      -118.0304
 04  9 14 16 13 44.9990000  0  6G 1G20G11G14G23G25
 -10234648.12149  -7953160.12147  20208698.8784   20208697.7334
       644.0834
 -13447093.07449 -10471268.02045  21439843.2064   21439840.9834
      2533.3704
  -4391843.28949  -3405260.56645  21045879.8004   21045876.8584
     -1057.2844
  12228885.69547   9517503.28142  23197952.8944   23197951.0224
     -2756.6524
  -6455098.19948  -5018361.77043  22633020.1284   22633016.2654
      2679.8574
  -9189389.39549  -7137932.72747  20356533.5974   20356531.6284
      -127.8334
 04  9 14 16 13 59.9990000  0  6G 1G20G11G14G23G25
 -10244220.21949  -7960618.89547  20206877.4484   20206875.7534
       638.1404
 -13485032.35549 -10500831.09045  21432623.9724   21432621.4604
      2529.2854
  -4375842.43049  -3392792.37945  21048924.9014   21048922.1634
     -1066.7244
  12270257.81646   9549741.27042  23205824.5344   23205823.0974
     -2758.1414
  -6495237.54347  -5049639.16043  22625381.9174   22625377.5774
      2675.9564
  -9187325.31249  -7136324.34847  20356926.8154   20356924.6514
      -137.6054
 04  9 14 16 14 14.9990000  0  6G 1G20G11G14G23G25
 -10253703.69149  -7968008.60947  20205072.5974   20205071.0584
       632.2324
 -13522910.80949 -10530346.75445  21425415.7064   21425413.4524
      2525.2304
  -4359700.41449  -3380214.19145  21051996.7694   21051994.2804
     -1076.1344
  12311651.64547   9581996.16042  23213702.8944   23213700.3624
     -2759.5894
  -6535318.86747  -5080871.35243  22617754.5264   22617750.2144
      2672.0884
  -9185115.36749  -7134602.31647  20357347.0034   20357345.0424
      -147.3304
 04  9 14 16 14 29.9990000  0  6G 1G20G11G14G23G25
 -10263098.32849  -7975329.10547  20203285.2534   20203283.4834
       626.3094
 -13560727.96949 -10559814.66445  21418219.2534   21418217.3624
      2521.1444
  -4343417.43749  -3367526.16045  21055095.0734   21055092.4484
     -1085.5324
  12353067.22347   9614268.04342  23221583.4804   23221582.3904
     -2761.0394
  -6575341.90647  -5112058.11743  22610138.9334   22610134.5384
      2668.2034
  -9182759.34449  -7132766.44147  20357795.6364   20357793.8004
      -157.0684
 04  9 14 16 14 44.9990000  0  6G 1G20G11G14G23G25
 -10272404.87149  -7982580.96147  20201513.9724   20201512.1474
       620.4364
 -13598484.23449 -10589235.12145  21411034.2144   21411032.4254
      2517.0844
  -4326994.34049  -3354728.95345  21058220.1204   21058217.6474
     -1094.8734
  12394503.79747   9646556.30542  23229468.8004   23229467.0154
     -2762.4384
  -6615307.27347  -5143199.94944  22602533.0504   22602529.5304
      2664.3584
  -9180257.84449  -7130817.22747  20358271.4094   20358269.6594
      -166.7674
 04  9 14 16 14 59.9990000  0  6G 1G20G11G14G23G25
 -10281622.83649  -7989763.78947  20199759.9724   20199758.2104
       614.5314
 -13636178.79349 -10618607.50045  21403861.2064   21403859.0424
      2512.9714
  -4310430.74249  -3341822.26245  21061372.2454   21061369.7334
     -1104.2404
  12435961.91046   9678861.30542  23237357.4484   23237355.2844
     -2763.8744
  -6655214.23047  -5174296.26643  22594939.4724   22594935.6794
      2660.4644
  -9177610.33649  -7128754.22747  20358775.1904   20358773.1474
      -176.5014
 04  9 14 16 15 14.9990000  0  6G 1G20G11G14G23G25
 -10290752.55549  -7996877.85247  20198022.6904   20198020.9094
       608.6484
 -13673811.65649 -10647931.80545  21396700.1124   21396698.0224
      2508.8584
  -4293726.97749  -3328806.35246  21064550.9404   21064548.3824
     -1113.5844
  12477441.16446   9711182.80141  23245251.4094   23245248.9644
     -2765.2844
  -6695063.09847  -5205347.31643  22587356.4174   22587352.5814
      2656.5914
  -9174817.30149  -7126577.82847  20359306.8234   20359304.5624
      -186.2024
 04  9 14 16 15 29.9990000  0  6G 1G20G11G14G23G25
 -10299793.55149  -8003922.79347  20196302.3004   20196300.7764
       602.7334
 -13711382.06649 -10677207.43745  21389550.7454   21389548.5814
      2504.6944
  -4276882.66849  -3315680.92245  21067756.3084   21067754.0344
     -1122.9544
  12518942.01646   9743521.10942  23253148.9874   23253146.0814
     -2766.7234
  -6734853.24247  -5236352.60543  22579784.4404   22579780.9644
      2652.6764
  -9171878.30549  -7124287.70747  20359866.3784   20359863.5974
      -195.9334
 04  9 14 16 15 44.9990000  0  6G 1G20G11G14G23G25
 -10308746.36349  -8010899.01247  20194598.6284   20194597.0544
       596.8544
 -13748890.28949 -10706434.61745  21382413.0344   21382411.1634
      2500.5484
  -4259898.48449  -3302446.50846  21070988.2694   21070985.7064
     -1132.2794
  12560463.98845   9775875.88341  23261049.4874   23261047.5114
     -2768.1324
  -6774585.18048  -5267312.54344  22572223.9404   22572220.1014
      2648.7964
  -9168793.82049  -7121884.20346  20360452.8554   20360450.6834
      -205.6324
 04  9 14 16 15 59.9990000  0  6G 1G20G11G14G23G25
 -10317610.63349  -8017806.22747  20192911.8154   20192910.0304
       590.9514
 -13786335.73449 -10735612.87545  21375287.2844   21375285.4914
      2496.3634
  -4242774.25449  -3289102.96145  21074246.7144   21074244.1834
     -1141.6154
  12602007.27345   9808247.27341  23268954.4954   23268952.3314
     -2769.5524
  -6814258.52348  -5298226.81644  22564674.0194   22564670.5074
      2644.8904
  -9165563.66449  -7119367.19147  20361067.6674   20361065.4954
      -215.3444
 04  9 14 16 16 14.9990000  0  6G 1G20G11G14G23G25
 -10326386.82849  -8024644.82047  20191241.7224   20191239.7654
       585.0804
 -13823718.48449 -10764742.27345  21368173.8864   21368171.5154
      2492.1834
  -4225510.44949  -3275650.65646  21077532.2304   21077529.5304
     -1150.9204
  12643571.44545   9840634.84441  23276864.5654   23276861.2574
     -2770.9454
  -6853873.45348  -5329095.57044  22557135.7374   22557132.1714
      2640.9954
  -9162188.21149  -7116736.98046  20361710.2144   20361708.4214
      -225.0304
 04  9 14 16 16 29.9990000  0  6G 1G20G11G14G23G25
 -10335075.17649  -8031414.96947  20189588.2844   20189586.3944
       579.2234
 -13861038.53549 -10793822.83245  21361071.7844   21361069.4484
      2488.0034
  -4208107.44549  -3262089.87946  21080843.5264   21080841.0584
     -1160.2004
  12685156.05945   9873038.43441  23284778.8474   23284774.4764
     -2772.3084
  -6893430.10547  -5359918.93044  22549608.2064   22549604.5224
      2637.1104
  -9158667.85249  -7113993.83247  20362380.0194   20362378.1904
      -234.6914
 04  9 14 16 16 44.9990000  0  6G 1G20G11G14G23G25
 -10343675.35249  -8038116.41047  20187951.8314   20187950.0734
       573.3454
 -13898295.37949 -10822854.13345  21353982.3004   21353980.3584
      2483.7904
  -4190565.12549  -3248420.55146  21084182.0504   21084179.4604
     -1169.4884
  12726761.52045   9905458.25441  23292696.1514   23292692.3084
     -2773.6974
  -6932928.07847  -5390696.55944  22542091.8944   22542088.0544
      2633.1984
  -9155002.13349  -7111137.43747  20363077.8624   20363075.5154
      -244.3814
 04  9 14 16 16 59.9990000  0  6G 1G20G11G14G23G25
 -10352187.82049  -8044749.49646  20186331.6754   20186330.3154
       567.4984
 -13935489.07049 -10851836.21945  21346904.3704   21346902.4914
      2479.5794
  -4172883.90249  -3234642.97745  21087546.5894   21087543.9014
     -1178.7484
  12768387.48445   9937894.07041  23300616.2304   23300613.3624
     -2775.0644
  -6972367.62147  -5421428.64844  22534586.9874   22534582.8394
      2629.3034
  -9151191.47749  -7108168.08247  20363803.0424   20363800.7654
      -254.0444
 04  9 14 16 17 14.9990000  0  6G 1G20G11G14G23G25
 -10360612.54349  -8051314.21547  20184728.6514   20184726.8394
       561.6484
 -13972619.12149 -10880768.73045  21339838.9094   21339836.7804
      2475.3374
  -4155063.94149  -3220757.30946  21090937.8944   21090934.9764
     -1187.9974
  12810033.83245   9970345.66841  23308541.3704   23308538.3554
     -2776.4234
  -7011748.53948  -5452115.07043  22527093.2064   22527088.9094
      2625.3954
  -9147235.79749  -7105085.73847  20364555.5424   20364553.5774
      -263.7124
 04  9 14 16 17 29.9990000  0  6G 1G20G11G14G23G25
 -10368950.69549  -8057811.48447  20183142.1124   20183140.5584
       555.8774
 -14009686.48849 -10909652.38745  21332785.2844   21332782.8394
      2471.1584
  -4137106.39549  -3206764.41446  21094354.7694   21094352.0654
     -1197.1704
  12851699.43846  10002812.38341  23316470.9254   23316467.4804
     -2777.7074
  -7051071.92248  -5482756.63344  22519610.0974   22519605.8864
      2621.5594
  -9143136.40249  -7101891.39847  20365335.4404   20365333.6834
      -273.2934
 04  9 14 16 17 44.9990000  0  6G 1G20G11G14G23G25
 -10377201.34449  -8064240.56247  20181571.9484   20181570.3584
       550.0434
 -14046690.01649 -10938486.29345  21325744.0114   21325741.3314
      2466.9024
  -4119010.44149  -3192663.68745  21097798.4254   21097796.0154
     -1206.3974
  12893385.18846  10035294.73441  23324402.6124   23324400.6754
     -2779.0504
  -7090336.65247  -5513352.52043  22512138.5504   22512134.1364
      2617.6494
  -9138892.54749  -7098584.50447  20366143.3704   20366141.1634
      -282.9244
 04  9 14 16 17 59.9990000  0  6G 1G20G11G14G23G25
 -10385364.53549  -8070601.49247  20180018.8004   20180016.8354
       544.2134
 -14083629.41449 -10967270.23445  21318714.4954   21318712.0934
      2462.6274
  -4100776.34449  -3178455.30546  21101268.4724   21101265.5304
     -1215.6074
  12935090.98445  10067792.73441  23332338.6984   23332337.2374
     -2780.3864
  -7129542.85248  -5543902.78543  22504677.9484   22504673.0464
      2613.7474
  -9134504.22749  -7095165.02747  20366978.2844   20366976.1714
      -292.5554
 04  9 14 16 18 14.9990000  0  6G 1G20G11G14G23G25
 -10393440.47349  -8076894.43047  20178481.9954   20178480.0814
       538.3964
 -14120504.69549 -10996004.21145  21311697.1364   21311694.9404
      2458.3524
  -4082404.45349  -3164139.55145  21104764.3234   21104762.0074
     -1224.7934
  12976816.54746  10100306.14841  23340279.2534   23340277.7494
     -2781.7044
  -7168690.59448  -5574407.51243  22497228.1984   22497223.6054
      2609.8494
  -9129971.76649  -7091633.23846  20367840.5264   20367838.8704
      -302.1644
 04  9 14 16 18 29.9990000  0  6G 1G20G11G14G23G25
 -10401428.90249  -8083119.18747  20176961.7144   20176960.3584
       532.5624
 -14157315.26249 -11024687.75445  21304692.2764   21304689.5774
      2454.0384
  -4063894.41449  -3149716.14846  21108286.9014   21108284.3434
     -1234.0034
  13018562.08646  10132835.12142  23348223.5344   23348221.5624
     -2783.0364
  -7207779.42648  -5604866.33244  22489789.9954   22489785.6014
      2605.9224
  -9125294.97349  -7087988.98447  20368730.5264   20368728.8084
      -311.7864
 04  9 14 16 18 44.9990000  0  6G 1G20G11G14G23G25
 -10409331.05149  -8089276.69146  20175457.7144   20175456.2694
       526.8104
 -14194061.95348 -11053321.52745  21297699.6904   21297697.2804
      2449.7794
  -4045247.67649  -3135186.23446  21111834.9334   21111832.3664
     -1243.1164
  13060326.41046  10165378.70741  23356171.0814   23356169.7534
     -2784.2884
  -7246810.45348  -5635280.10244  22482362.0814   22482358.2414
      2602.0684
  -9120474.95349  -7084233.11747  20369647.8314   20369645.5734
      -321.3354
 04  9 14 16 18 59.9990000  0  6G 1G20G11G14G23G25
 -10417146.57449  -8095366.71147  20173970.5814   20173969.1474
       521.0354
 -14230744.00049 -11081904.94545  21290719.4254   21290716.9874
      2445.4704
  -4026464.12149  -3120549.69945  21115409.5034   21115407.1284
     -1252.2374
  13102109.86746  10197937.20742  23364121.6444   23364119.6244
     -2785.5644
  -7285783.14547  -5665648.42244  22474945.6364   22474942.5034
      2598.1794
  -9115511.24649  -7080365.28147  20370592.2694   20370589.9094
      -330.9144
 04  9 14 16 19 14.9990000  0  6G 1G20G11G14G23G25
 -10424875.41849  -8101389.19147  20172500.1054   20172498.2414
       515.2564
 -14267361.18049 -11110437.78945  21283751.1204   21283749.0224
      2441.1454
  -4007543.80949  -3105806.61345  21119009.9954   21119007.4174
     -1261.3544
  13143912.48846  10230510.64542  23372076.2534   23372073.8514
     -2786.8414
  -7324697.35548  -5695971.17244  22467541.0424   22467536.8434
      2594.2814
  -9110403.94149  -7076385.57847  20371564.4954   20371562.1014
      -340.4874
 04  9 14 16 19 29.9990000  0  6G 1G20G11G14G23G25
 -10432517.08649  -8107343.73046  20171045.6054   20171043.7804
       509.4454
 -14303912.76249 -11138919.53545  21276795.5974   21276793.3394
      2436.7724
  -3988486.46149  -3090956.74245  21122636.4014   21122633.9054
     -1270.4904
  13185734.65247  10263099.31342  23380035.6754   23380033.0934
     -2788.1444
  -7363552.55948  -5726247.92644  22460147.1364   22460143.1284
      2590.3474
  -9105152.63749  -7072293.64547  20372563.6594   20372561.7144
      -350.0874
 04  9 14 16 19 44.9990000  0  6G 1G20G11G14G23G25
 -10440071.78949  -8113230.51247  20169608.3394   20169606.5894
       503.6474
 -14340398.67248 -11167350.11345  21269852.7614   21269850.2064
      2432.3944
  -3969292.23049  -3076000.20345  21126288.6364   21126286.3084
     -1279.6154
  13227576.18847  10295703.06342  23387997.2614   23387995.3274
     -2789.4364
  -7402348.79347  -5756478.74244  22452764.1124   22452760.3434
      2586.4164
  -9099757.56249  -7068089.69147  20373590.1284   20373587.9294
      -359.6724
 04  9 14 16 19 59.9990000  0  6G 1G20G11G14G23G25
 -10447539.98049  -8119049.89147  20168186.8004   20168185.3584
       497.8794
 -14376819.03149 -11195729.60545  21262922.3234   21262919.8084
      2428.0244
  -3949961.71149  -3060937.48045  21129967.3864   21129964.8824
     -1288.7014
  13269436.54346  10328321.46542  23395962.7614   23395961.2964
     -2790.6904
  -7441086.37148  -5786663.85544  22445392.7224   22445388.6834
      2582.5054
  -9094219.33649  -7063774.18047  20374643.9174   20374642.2144
      -369.2154
 04  9 14 16 20 14.9990000  0  6G 1G20G11G14G23G25
 -10454921.91449  -8124802.03947  20166782.2224   20166780.8124
       492.1294
 -14413173.70749 -11224057.92245  21256004.2534   21256001.8474
      2423.6454
  -3930495.32849  -3045768.87545  21133671.6204   21133669.4604
     -1297.7594
  13311315.56346  10360954.47341  23403932.2374   23403930.5464
     -2791.9354
  -7479765.44547  -5816803.38344  22438032.3944   22438028.0264
      2578.6054
  -9088538.09849  -7059347.24647  20375725.3704   20375723.2144
      -378.7494
 04  9 14 16 20 29.9990000  0  6G 1G20G11G14G23G25
 -10462216.86749  -8130486.41447  20165393.8004   20165392.3124
       486.3304
 -14449461.85248 -11252334.38345  21249098.4954   21249096.6164
      2419.2104
  -3910892.38749  -3030493.86745  21137402.0264   21137399.6404
     -1306.8634
  13353213.96546  10393602.56642  23411905.6204   23411903.2454
     -2793.2274
  -7518385.15248  -5846896.65244  22430683.3154   22430678.6404
      2574.6474
  -9082713.23049  -7054808.39147  20376833.6904   20376831.7224
      -388.3244
 04  9 14 16 20 44.9990000  0  6G 1G20G11G14G23G25
 -10469426.02049  -8136103.93047  20164022.0194   20164020.6014
       480.6104
 -14485684.15649 -11280559.55545  21242205.7764   21242203.2264
      2414.8204
  -3891154.21149  -3015113.48445  21141157.9874   21141155.6944
     -1315.8784
  13395130.54346  10426264.78142  23419881.4874   23419879.8154
     -2794.4394
  -7556946.57047  -5876944.50844  22423345.1284   22423340.7064
      2570.7614
  -9076745.85249  -7050158.48047  20377969.2844   20377967.3704
      -397.8254
 04  9 14 16 20 59.9990000  0  6G 1G20G11G14G23G25
 -10476548.73049  -8141654.09847  20162666.6284   20162665.1674
       474.8474
 -14521839.70348 -11308732.69945  21235325.5734   21235322.8944
      2410.3704
  -3871280.29749  -2999627.32845  21144939.8004   21144937.7334
     -1324.9284
  13437065.89146  10458941.66841  23427861.6834   23427860.2724
     -2795.6904
  -7595448.84047  -5906946.25043  22416018.2064   22416014.3704
      2566.8184
  -9070635.33649  -7045397.04747  20379132.1904   20379129.8974
      -407.3684
 04  9 14 16 21 14.9990000  0  6G 1G20G11G14G23G25
 -10483584.96149  -8147136.87947  20161327.6284   20161326.3124
       469.0824
 -14557928.10548 -11336853.53145  21228458.0344   21228455.3474
      2405.8934
  -3851270.81249  -2984035.52745  21148747.4174   21148745.2414
     -1333.9664
  13479020.07046  10491633.20741  23435844.7304   23435844.3864
     -2796.9454
  -7633891.88748  -5936901.86344  22408702.7304   22408698.9604
      2562.8704
  -9064381.75449  -7040524.12147  20380322.0504   20380320.0814
      -416.9054
 04  9 14 16 21 29.9990000  0  6G 1G20G11G14G23G25
 -10490534.69949  -8152552.24647  20160005.1594   20160003.9604
       463.3164
 -14593949.10248 -11364921.83645  21221603.4014   21221601.0424
      2401.4004
  -3831125.74649  -2968338.08245  21152581.3084   21152578.6874
     -1343.0044
  13520993.05146  10524339.44541  23443833.2064   23443831.7964
     -2798.1994
  -7672275.59048  -5966811.22344  22401398.1594   22401394.8314
      2558.9144
  -9057984.95749  -7035539.60547  20381539.7064   20381537.1674
      -426.4534
 04  9 14 16 21 44.9990000  0  6G 1G20G11G14G23G25
 -10497398.50449  -8157900.67247  20158699.1514   20158697.6014
       457.5874
 -14629903.03548 -11392937.88745  21214761.6674   21214759.1944
      2396.9294
  -3810845.91449  -2952535.62145  21156440.1834   21156438.0224
     -1351.9894
  13562984.25045  10557059.82441  23451823.7144   23451822.9804
     -2799.4134
  -7710600.43747  -5996674.72344  22394105.7454   22394101.5974
      2554.9904
  -9051445.73049  -7030444.10247  20382783.6984   20382781.8274
      -435.9484
 04  9 14 16 21 59.9990000  0  6G 1G20G11G14G23G25
 -10504176.08649  -8163181.91047  20157409.1364   20157408.0384
       451.8394
 -14665789.25048 -11420901.15245  21207932.6674   21207930.6754
      2392.4144
  -3790430.96949  -2936627.88345  21160324.8474   21160322.4874
     -1360.9964
  13604994.00445  10589794.64841  23459818.0654   23459816.2334
     -2800.6504
  -7748865.91047  -6026491.94144  22386824.0974   22386820.3194
      2551.0324
  -9044763.88349  -7025237.46547  20384055.0654   20384053.0544
      -445.4574
 04  9 14 16 22 14.9990000  0  6G 1G20G11G14G23G25
 -10510867.54349  -8168396.02346  20156136.3314   20156134.7534
       446.0974
 -14701607.45748 -11448811.44145  21201116.8554   21201114.8124
      2387.8804
  -3769881.23049  -2920615.10945  21164235.6834   21164233.0224
     -1369.9834
  13647022.21944  10622543.83641  23467815.0734   23467813.0034
     -2801.8814
  -7787072.03548  -6056262.93444  22379553.7614   22379549.5974
      2547.0754
  -9037939.43749  -7019919.71147  20385353.9404   20385351.5194
      -454.9634
 04  9 14 16 22 29.9990000  0  6G 1G20G11G14G23G25
 -10517473.16849  -8173543.25447  20154879.0264   20154877.6674
       440.3754
 -14737357.60248 -11476668.68745  21194313.7144   21194311.3194
      2383.3434
  -3749197.14849  -2904497.65645  21168171.4804   21168169.3194
     -1378.9394
  13689068.35944  10655307.09441  23475816.8624   23475814.0774
     -2803.0764
  -7825219.00447  -6085987.81244  22372294.5344   22372290.6834
      2543.1314
  -9030972.77049  -7014491.14547  20386679.7694   20386677.8084
      -464.4454
 04  9 14 16 22 44.9990000  0  6G 1G20G11G14G23G25
 -10523992.76249  -8178623.45747  20153638.5504   20153637.0034
       434.6404
 -14773039.23048 -11504472.55145  21187523.6364   21187521.6984
      2378.7754
  -3728378.64549  -2888275.45745  21172133.5264   21172130.8434
     -1387.9004
  13731132.781 4                  23483820.714
     -2804.295
  -7863306.43748  -6115666.33644  22365046.7374   22365042.9374
      2539.1624
  -9023863.75849  -7008951.65247  20388032.4874   20388030.3584
      -473.9344
 04  9 14 16 22 59.9990000  0  6G 1G20G11G14G23G25
 -10530426.50849  -8183636.76647  20152414.2064   20152412.2224
       428.9164
 -14808652.31249 -11532223.00045  21180746.4644   21180744.4644
      2374.2054
  -3707426.09849  -2871948.80145  21176120.5194   21176118.2414
     -1396.8364
  13773215.270 4                  23491828.815
     -2805.499
  -7901334.45747  -6145298.53544  22357810.4014   22357806.4954
      2535.2014
  -9016612.71549  -7003301.48847  20389411.9334   20389409.7884
      -483.4034
 04  9 14 16 23 14.9990000  0  6G 1G20G11G14G23G25
 -10536773.81649  -8188582.72347  20151206.3234   20151204.7104
       423.1544
 -14844195.77348 -11559919.19545  21173983.1834   21173980.4764
      2369.5644
  -3686338.94149  -2855517.26245  21180133.0504   21180130.9334
     -1405.8104
  13815316.434 5                  23499841.644
     -2806.744
  -7939302.25847  -6174883.82044  22350585.4954   22350581.6324
      2531.1874
  -9009218.82449  -6997540.01646  20390819.1514   20390817.1244
      -492.9264
 04  9 14 16 23 29.9990000  0  6G 1G20G11G14G23G25
 -10543035.73849  -8193462.14546  20150014.6674   20150013.0504
       417.4614
 -14879670.41849 -11587561.76645  21167232.3314   21167230.0464
      2364.9764
  -3665118.36749  -2838981.75445  21184171.5344   21184169.3354
     -1414.7054
  13857435.156 5                  23507855.644
     -2807.915
  -7977210.89147  -6204422.98844  22343370.9174   22343367.1754
      2527.2424
  -9001683.37149  -6991668.23447  20392253.1364   20392250.9724
      -502.3644
 04  9 14 16 23 44.9990000  0  6G 1G20G11G14G23G25
 -10549211.73449  -8198274.61347  20148839.4254   20148837.7574
       411.7334
 -14915075.50448 -11615150.13745  21160494.9334   21160492.7534
      2360.3394
  -3643764.03949  -2822342.03545  21188234.9014   21188233.0224
     -1423.6224
  13899571.973 5                  23515874.940
     -2809.121
  -8015059.70347  -6233915.54744  22336169.0734   22336164.9444
      2523.2544
  -8994005.79749  -6985685.70347  20393713.9334   20393711.6834
      -511.8384
 04  9 14 16 23 59.9990000  0  6G 1G20G11G14G23G25
 -10555302.44148  -8203020.60547  20147680.4644   20147679.2024
       406.0474
 -14950411.30548 -11642684.53145  21153770.9094   21153768.6984
      2355.7204
  -3622276.66849  -2805598.63745  21192324.0034   21192321.6794
     -1432.4914
  13941726.277 4                  23523896.776
     -2810.287
  -8052849.14147  -6263361.85244  22328978.0264   22328973.9914
      2519.2964
  -8986186.84449  -6979593.01247  20395202.0034   20395199.3514
      -521.2644
 04  9 14 16 24 14.9990000  0  6G 1G20G11G14G23G25
 -10561307.73449  -8207700.05947  20146537.4644   20146536.2614
       400.3534
 -14985677.35249 -11670164.55945  21147060.2304   21147057.9604
      2351.0704
  -3600656.27049  -2788751.58245  21196438.3314   21196436.0504
     -1441.3604
  13983898.281 4                  23531920.355
     -2811.467
  -8090579.04347  -6292761.76244  22321798.4254   22321793.8624
      2515.3274
  -8978226.43049  -6973390.09847  20396717.0654   20396714.9484
      -530.6944
 04  9 14 16 24 29.9990000  0  6G 1G20G11G14G23G25
 -10567227.60249  -8212312.94147  20145411.0814   20145409.6164
       394.6584
 -15020873.37148 -11697590.03545  21140362.6124   21140360.3664
      2346.4014
  -3578902.99249  -2771800.98845  21200577.5584   21200575.4994
     -1450.2184
  14026087.887 4                  23539949.651
     -2812.640
  -8128249.11747  -6322115.05144  22314629.6364   22314625.3194
      2511.3384
  -8970124.60949  -6967076.97747  20398258.2844   20398256.6754
      -540.1214
 04  9 14 16 24 44.9990000  0  6G 1G20G11G14G23G25
 -10573062.15249  -8216859.34047  20144300.9954   20144299.3354
       388.9704
 -15055999.20349 -11724960.80945  21133678.4254   21133675.8824
      2341.7224
  -3557017.24649  -2754747.18046  21204742.1834   21204740.3434
     -1459.0504
  14068294.891 4                  23547981.659
     -2813.800
  -8165859.45747  -6351421.78544  22307473.1284   22307468.1014
      2507.3564
  -8961881.70748  -6960653.94147  20399827.2454   20399825.3354
      -549.5274
 04  9 14 16 24 59.9990000  0  6G 1G20G11G14G23G25
 -10578810.86348  -8221338.85547  20143206.9484   20143205.3154
       383.2474
 -15091053.97748 -11752276.21145  21127007.5654   21127005.6164
      2336.9854
  -3534998.53549  -2737589.75445  21208932.1754   21208930.4014
     -1467.9144
  14110519.770 4                  23556016.855
     -2814.992
  -8203409.38748  -6380681.46144  22300328.0894   22300322.4914
      2503.3294
  -8953497.16448  -6954120.52747  20401422.4954   20401420.7334
      -558.9704
 04  9 14 16 25 14.9990000  0  6G 1G20G11G14G23G25
 -10584473.76649  -8225751.51247  20142129.5654   20142127.5424
       377.5274
 -15126037.43448 -11779536.03945  21120350.6754   21120348.4174
      2332.2304
  -3512846.91049  -2720328.74646  21213147.5974   21213145.6754
     -1476.7754
  14152762.586 4                  23564055.745
     -2816.188
  -8240898.84448  -6409894.01644  22293192.9404   22293189.2064
      2499.2974
  -8944970.98449  -6947476.74247  20403045.1124   20403043.3084
      -568.4124
 04  9 14 16 25 29.9990000  0  6G 1G20G11G14G23G25
 -10590051.60548  -8230097.87947  20141067.8474   20141066.3624
       371.8564
 -15160949.91848 -11806740.57045  21113706.7374   21113704.7654
      2327.4994
  -3490563.43049  -2702965.01645  21217387.9724   21217385.8784
     -1485.5654
  14195022.594 3                  23572096.925
     -2817.334
  -8278328.43048  -6439059.90644  22286070.2694   22286066.6014
      2495.3064
  -8936304.06649  -6940723.31247  20404694.4804   20404692.2334
      -577.7954
 04  9 14 16 25 44.9990000  0  6G 1G20G11G14G23G25
 -10595544.86348  -8234378.34447  20140022.7064   20140021.0974
       366.2174
 -15195791.69548 -11833890.00445  21107076.9014   21107074.3904
      2322.7854
  -3468148.59449  -2685498.92245  21221653.2844   21221651.2064
     -1494.3224
  14237299.14813                  23580138.487
     -2818.480
  -8315698.58248  -6468179.49244  22278959.1984   22278955.4524
      2491.3434
  -8927496.94948  -6933860.60547  20406370.2224   20406368.3124
      -587.1414
 04  9 14 16 25 59.9990000  0  6G 1G20G11G14G23G25
 -10600953.07048  -8238592.52347  20138993.5814   20138991.9174
       360.5474
 -15230561.89548 -11860983.66045  21100460.0264   21100457.8084
      2318.0134
  -3445602.12549  -2667930.25445  21225944.1124   21225941.5034
     -1503.0984
  14279593.03513                  23588190.573
     -2819.626
  -8353008.66848  -6497252.27344  22271859.7924   22271855.5464
      2487.3394
  -8918549.10949  -6926888.27747  20408072.9094   20408070.7574
      -596.5234
 04  9 14 16 26 14.9990000  0  6G 1G20G11G14G23G25
 -10606276.11749  -8242740.34847  20137980.5734   20137978.9994
       354.8704
 -15265260.10548 -11888021.23045  21093857.4334   21093855.3554
      2313.2144
  -3422924.03949  -2650259.02345  21230259.5504   21230257.3434
     -1511.8724
  14321904.156 3                  23596245.081
     -2820.741
  -8390258.41448  -6526278.03144  22264770.6674   22264766.8664
      2483.3164
  -8909460.49649  -6919806.23447  20409802.6754   20409800.4444
      -605.9084
 04  9 14 16 26 29.9990000  0  6G 1G20G11G14G23G25
 -10611514.50849  -8246822.20347  20136983.4334   20136982.2414
       349.2264
 -15299886.44148 -11915002.77745  21087268.0344   21087266.0734
      2308.4224
  -3400114.95749  -2632485.71945  21234600.2304   21234597.7064
     -1520.6054
                                  23604297.995
     -2821.857
  -8427448.15648  -6555257.04344  22257693.8314   22257690.2884
      2479.3164
  -8900231.73449  -6912614.99247  20411558.6124   20411556.4764
      -615.2514
 04  9 14 16 26 44.9990000  0  6G 1G20G11G14G23G25
 -10616668.86349  -8250838.58647  20136003.0344   20136001.2304
       343.6244
 -15334441.22348 -11941928.58245  21080692.8154   21080690.2224
      2303.6524
  -3377175.55549  -2614610.87945  21238965.3624   21238963.1054
     -1529.2934
                                  23612355.612
     -2822.972
  -8464578.53548  -6584189.77744  22250628.0504   22250624.3904
      2475.3594
  -8890863.46949  -6905315.04346  20413341.7374   20413339.2064
      -624.5514
 04  9 14 16 26 59.9990000  0  5G 1G20G11G23G25
 -10621739.34849  -8254789.60947  20135038.3864   20135036.2534
       338.0324
 -15368924.40248 -11968798.58245  21074130.5974   21074128.5774
      2298.8794
  -3354106.30149  -2596634.84045  21243355.1754   21243352.6794
     -1537.9504
  -8501649.59848  -6613076.28944  22243574.0504   22243570.0344
      2471.4044
  -8881355.89549  -6897906.54347  20415151.0654   20415148.7454
      -633.8384
 04  9 14 16 27 14.9990000  0  5G 1G20G11G23G25
 -10626725.77348  -8258675.14547  20134089.3624   20134087.6014
       332.4284
 -15403335.49648 -11995612.41445  21067582.3154   21067580.3824
      2294.0734
  -3330907.10549  -2578557.55145  21247769.8704   21247767.3124
     -1546.6134
  -8538660.95348  -6641916.30944  22236531.1984   22236526.9254
      2467.4244
  -8871708.99248  -6890389.46547  20416986.5114   20416984.1594
      -643.1274
 04  9 14 16 27 29.9990000  0  5G 1G20G11G23G25
 -10631628.07848  -8262495.12147  20133156.0974   20133154.5074
       326.8204
 -15437674.07048 -12022369.74246  21061048.0974   21061045.7924
      2289.2384
  -3307578.01249  -2560379.04745  21252209.1364   21252207.0034
     -1555.2734
  -8575612.39148  -6670709.61344  22229499.5114   22229494.9914
      2463.4294
  -8861922.58649  -6882763.69547  20418848.8154   20418846.1124
      -652.4274
 04  9 14 16 27 44.9990000  0  5G 1G20G11G23G25
 -10636446.01248  -8266249.35247  20132239.2614   20132237.9914
       321.1964
 -15471939.58648 -12049070.14146  21054527.5894   21054525.4014
      2284.3684
  -3284119.10249  -2542099.38345  21256672.9094   21256670.9874
     -1563.9274
  -8612503.53148  -6699455.94544  22222479.2064   22222475.2064
      2459.4094
  -8851996.59049  -6875029.15647  20420737.4334   20420735.4564
      -661.7334
 04  9 14 16 27 59.9990000  0  5G 1G20G11G23G25
 -10641180.57048  -8269938.61347  20131338.4724   20131336.8394
       315.6374
 -15506132.67248 -12075714.10246  21048020.6674   21048018.1714
      2279.5394
  -3260531.52349  -2523719.46545  21261161.7454   21261159.1084
     -1572.5054
  -8649335.39848  -6728156.07444  22215470.4954   22215466.0154
      2455.4584
  -8841932.21949  -6867186.78147  20422652.5974   20422650.6054
      -670.9584
 04  9 14 16 28 14.9990000  0  5G 1G20G11G23G25
 -10645832.97349  -8273563.86347  20130453.3624   20130451.8434
       310.1604
 -15540254.32048 -12102302.39546  21041527.7454   21041525.3744
      2274.7774
  -3236816.49648  -2505240.24245  21265674.4954   21265672.2964
     -1581.0024
  -8686109.07047  -6756810.88744  22208472.3944   22208468.4054
      2451.5784
  -8831730.74249  -6859237.57046  20424594.0034   20424591.5074
      -680.0984
 04  9 14 16 28 29.9990000  0  5G 1G20G11G23G25
 -10650402.80948  -8277124.76647  20129583.6594   20129581.9914
       304.6564
 -15574303.71148 -12128834.38346  21035048.3084   21035046.0154
      2269.9594
  -3212973.68449  -2486661.42245  21270211.9094   21270209.7104
     -1589.5214
  -8722823.86747  -6785419.80944  22201485.9094   22201481.4174
      2447.6534
  -8821391.70348  -6851181.18046  20426561.4254   20426558.9684
      -689.2694
 04  9 14 16 28 44.9990000  0  5G 1G20G11G23G25
 -10654889.98049  -8280621.26247  20128729.8784   20128727.9564
       299.1454
 -15608280.43048 -12155309.74646  21028582.5974   21028580.4334
      2265.1154
  -3189003.27348  -2467983.19945  21274773.4094   21274770.8944
     -1598.0274
  -8759479.73447  -6813982.79744  22194510.4874   22194506.1284
      2443.7244
  -8810915.06649  -6843017.56247  20428555.0584   20428553.0544
      -698.4424
 04  9 14 16 28 59.9990000  0  5G 1G20G11G23G25
 -10659294.19949  -8284053.12147  20127891.4014   20127889.8944
       293.6154
 -15642183.87148 -12181728.01645  21022131.1514   21022128.5544
      2260.2294
  -3164905.28549  -2449205.55145  21279358.7224   21279356.6324
     -1606.5334
  -8796076.19147  -6842499.50444  22187546.2924   22187542.4404
      2439.7644
  -8800300.67649  -6834746.60247  20430574.9334   20430572.8314
      -707.6264
 04  9 14 16 29 14.9990000  0  5G 1G20G11G23G25
 -10663617.31648  -8287421.77747  20127068.7224   20127066.7964
       288.2084
 -15676015.55948 -12208090.35946  21015693.0344   21015691.1874
      2255.4464
  -3140681.47749  -2430329.87545  21283968.7064   21283966.1594
     -1614.9214
  -8832614.92648  -6870971.21944  22180593.7534   22180589.4724
      2435.9164
  -8789550.27049  -6826369.66847  20432620.7924   20432618.7144
      -716.6944
 04  9 14 16 29 29.9990000  0  5G 1G20G11G23G25
 -10667858.75848  -8290726.80147  20126261.6124   20126259.9724
       282.7634
 -15709774.63748 -12234396.13345  21009268.9954   21009266.8944
      2250.6054
  -3116331.51649  -2411355.87545  21288602.3554   21288599.6794
     -1623.3314
  -8869095.30548  -6899397.46944  22173651.2304   22173647.3664
      2432.0254
  -8778663.34849  -6817886.34046  20434692.4404   20434690.3664
      -725.7954
 04  9 14 16 29 44.9990000  0  5G 1G20G11G23G25
 -10672018.53149  -8293968.17247  20125470.1444   20125468.5114
       277.3184
 -15743460.81248 -12260645.09445  21002858.6364   21002856.1514
      2245.7454
  -3091855.61349  -2392283.74645  21293260.1054   21293257.2574
     -1631.7274
  -8905517.21948  -6927778.16444  22166720.6124   22166716.5894
      2428.1284
  -8767640.15249  -6809296.84447  20436790.1904   20436788.3434
      -734.8804
 04  9 14 16 29 59.9990000  0  5G 1G20G11G23G25
 -10676097.12148  -8297146.29747  20124693.7694   20124692.3784
       271.9064
 -15777074.21148 -12286837.35945  20996462.3784   20996459.8194
      2240.8934
  -3067254.23049  -2373113.84845  21297941.4334   21297938.6714
     -1640.0924
  -8941880.80948  -6956113.40644  22159800.6054   22159796.7224
      2424.2394
  -8756481.22349  -6800601.56247  20438913.3474   20438911.6794
      -743.9294
 04  9 14 16 30 14.9990000  0  5G 1G20G11G23G25
 -10680093.98848  -8300260.73847  20123933.5114   20123932.0814
       266.4584
 -15810613.95348 -12312972.21545  20990080.0424   20990077.4684
      2235.9834
  -3042527.16049  -2353846.01245  21302646.8864   21302644.4954
     -1648.4714
  -8978185.72748  -6984402.95744  22152892.3394   22152887.7614
      2420.3284
  -8745186.08249  -6791800.15647  20441062.8004   20441060.8704
      -753.0094
 04  9 14 16 30 29.9990000  0  5G 1G20G11G23G25
 -10684009.59848  -8303311.85947  20123188.4014   20123186.7104
       261.0414
 -15844080.29348 -12339049.87945  20983711.0974   20983708.9834
      2231.0894
  -3017675.02749  -2334480.73445  21307376.0504   21307373.8944
     -1656.8094
  -9014432.32848  -7012647.03944  22145994.7764   22145989.9764
      2416.4404
  -8733755.26649  -6782893.02346  20443238.3784   20443236.0034
      -762.0544
 04  9 14 16 30 44.9990000  0  5G 1G20G11G23G25
 -10687843.36748  -8306299.20347  20122458.6054   20122457.0934
       255.5854
 -15877472.23449 -12365069.57046  20977357.0584   20977354.8354
      2226.1294
  -2992697.41049  -2315017.66445  21312129.1124   21312126.8004
     -1665.1744
  -9050619.80148  -7040845.06244  22139108.0264   22139103.5654
      2412.4984
  -8722188.32449  -6773879.82046  20445439.1444   20445436.6404
      -771.1294
 04  9 14 16 30 59.9990000  0  5G 1G20G11G23G25
 -10691595.92648  -8309223.27747  20121744.9094   20121742.9214
       250.1714
 -15910790.20348 -12391031.62946  20971016.8234   20971014.8514
      2221.1984
  -2967595.02749  -2295457.38345  21316906.0734   21316903.5544
     -1673.4924
  -9086748.57048  -7068997.35244  22132233.2064   22132228.3704
      2408.5854
  -8710485.96548  -6764761.10247  20447666.1204   20447664.2534
      -780.1574
 04  9 14 16 31 14.9990000  0  5G 1G20G11G23G25
 -10695268.26648  -8312084.84047  20121045.6984   20121043.9954
       244.8234
 -15944034.76649 -12416936.46946  20964690.7764   20964688.4684
      2216.3044
  -2942369.09049  -2275800.81245  21321706.0894   21321703.9404
     -1681.7294
  -9122819.66848  -7097104.68744  22125369.0504   22125364.6164
      2404.7404
  -8698649.28148  -6755537.69947  20449918.4724   20449916.3084
      -789.1124
 04  9 14 16 31 29.9990000  0  5G 1G20G11G23G25
 -10698859.93048  -8314883.54347  20120362.4094   20120360.3944
       239.4444
 -15977205.09448 -12442783.47746  20958378.8784   20958376.5734
      2211.3554
  -2917019.35249  -2256047.78545  21326529.9724   21326527.8434
     -1689.9834
  -9158832.48848  -7125166.60944  22118515.8784   22118512.1324
      2400.8554
  -8686677.79748  -6746209.27747  20452196.5894   20452194.2334
      -798.0994
 04  9 14 16 31 44.9990000  0  5G 1G20G11G23G25
 -10702369.80948  -8317618.51247  20119694.4804   20119692.5224
       233.9924
 -16010299.82048 -12468571.57046  20952080.5734   20952078.4374
      2206.3154
  -2891544.82848  -2236197.52345  21331377.9174   21331375.3554
     -1698.3024
  -9194785.83248  -7153182.18444  22111674.0344   22111670.1084
      2396.8904
  -8674570.50048  -6736775.01247  20454500.3394   20454498.7104
      -807.1534
 04  9 14 16 31 59.9990000  0  5G 1G20G11G23G25
 -10705798.90248  -8320290.53547  20119042.2694   20119040.4444
       228.6064
 -16043319.66448 -12494301.31646  20945797.2224   20945795.0624
      2201.3234
  -2865946.67648  -2216250.92245  21336248.8314   21336246.7694
     -1706.5434
  -9230680.45748  -7181152.00044  22104843.3624   22104840.1014
      2392.9754
  -8662328.44149  -6727235.75047  20456830.3154   20456828.3474
      -816.1374
 04  9 14 16 32 14.9990000  0  5G 1G20G11G23G25
 -10709147.31648  -8322899.68747  20118404.7764   20118403.1594
       223.2284
 -16076264.36748 -12519972.50846  20939528.1204   20939525.9374
      2196.3144
  -2840225.19148  -2196208.23045  21341143.7534   21341141.2884
     -1714.7664
  -9266516.46148  -7209076.13344  22098024.0974   22098020.2884
      2389.0674
  -8649952.04348  -6717591.80547  20459185.5974   20459183.2184
      -825.0934
 04  9 14 16 32 29.9990000  0  5G 1G20G11G23G25
 -10712414.69548  -8325445.69547  20117783.0114   20117781.0854
       217.8254
 -16109133.25048 -12545584.62146  20933273.5654   20933271.3824
      2191.2594
  -2814380.20348  -2176069.28145  21346061.5034   21346059.1324
     -1722.9994
  -9302293.39148  -7236954.25444  22091216.5114   22091212.2574
      2385.1294
  -8637440.91448  -6707842.87147  20461565.6984   20461564.4684
      -834.0754
 04  9 14 16 32 44.9990000  0  5G 1G20G11G23G25
 -10715600.86748  -8327928.42647  20117176.6904   20117174.7064
       212.4114
 -16141925.87548 -12571137.31246  20927033.2454   20927031.2654
      2186.1754
  -2788411.73448  -2155834.12145  21351003.5974   21351000.4994
     -1731.2314
  -9338010.88348  -7264786.06244  22084419.5264   22084415.5694
      2381.1664
  -8624794.92649  -6697988.85947  20463972.6904   20463970.4174
      -843.0664
 04  9 14 16 32 59.9990000  0  5G 1G20G11G23G25
 -10718705.19948  -8330347.37947  20116585.7224   20116584.4834
       206.9554
 -16174641.25848 -12596629.80946  20920808.0344   20920805.4724
      2181.0264
  -2762319.27348  -2135502.34445  21355969.0034   21355965.9994
     -1739.4974
  -9373668.17648  -7292570.94944  22077634.2764   22077630.1324
      2377.1534
  -8612013.56648  -6688029.34447  20466404.5584   20466402.9014
      -852.0914
 04  9 14 16 33 14.9990000  0  5G 1G20G11G23G25
 -10721728.04748  -8332702.84847  20116010.7764   20116009.1284
       201.5234
 -16207279.30548 -12622062.05946  20914596.9334   20914594.6674
      2175.8704
  -2736103.43048  -2115074.41445  21360957.4644   21360955.1714
     -1747.7234
  -9409265.53548  -7320309.15244  22070859.8234   22070856.1164
      2373.1574
  -8599097.23848  -6677964.66847  20468862.5654   20468860.6054
      -861.0894
 04  9 14 16 33 29.9990000  0  5G 1G20G11G23G25
 -10724670.14148  -8334995.38747  20115450.8394   20115448.9994
       196.1404
 -16239840.49648 -12647434.41046  20908400.5344   20908398.6754
      2170.7464
  -2709764.94548  -2094550.93045  21365969.1204   21365966.6794
     -1755.8994
  -9444803.63348  -7348001.16044  22064097.5424   22064093.2374
      2369.2074
  -8586046.75848  -6667795.46947  20471346.1754   20471344.4094
      -870.0324
 04  9 14 16 33 44.9990000  0  5G 1G20G11G23G25
 -10727531.31648  -8337224.87947  20114906.2764   20114905.1204
       190.7454
 -16272324.39848 -12672746.53946  20902219.2064   20902217.1404
      2165.5934
  -2683303.86348  -2073931.92245  21371004.8784   21371002.6054
     -1764.0724
  -9480282.18448  -7375646.76644  22057346.1594   22057341.9914
      2365.2374
  -8572862.05149  -6657521.66447  20473854.9334   20473852.9834
      -878.9804
 04  9 14 16 33 59.9990000  0  5G 1G20G11G23G25
 -10730311.81648  -8339391.49647  20114377.5194   20114375.8234
       185.3674
 -16304730.93048 -12697998.36746  20896052.4804   20896050.0544
      2160.4354
  -2656720.60548  -2053217.69945  21376063.4484   21376061.2024
     -1772.2174
  -9515701.18048  -7403245.97344  22050606.3784   22050601.9954
      2361.2664
  -8559543.43049  -6647143.52347  20476389.7374   20476387.4444
      -887.9084
 04  9 14 16 34 14.9990000  0  5G 1G20G11G23G25
 -10733011.25849  -8341494.95747  20113863.6904   20113862.1444
       179.9634
 -16337059.27748 -12723189.28946  20889900.4804   20889898.0894
      2155.2234
  -2630014.91848  -2032408.09045  21381145.3084   21381142.9334
     -1780.3794
  -9551060.14148  -7430798.40244  22043877.8864   22043872.8944
      2357.2644
  -8546090.56649  -6636660.75847  20478949.3624   20478947.4994
      -896.8584
 04  9 14 16 34 29.9990000  0  5G 1G20G11G23G25
 -10735630.33648  -8343535.80147  20113365.2924   20113363.4254
       174.6054
 -16369309.95748 -12748319.68046  20883763.4174   20883761.1284
      2150.0454
  -2603187.85948  -2011503.89545  21386250.9644   21386247.9334
     -1788.4714
  -9586359.72348  -7458304.55544  22037160.4724   22037155.9294
      2353.3054
  -8532504.28149  -6626074.04747  20481534.6364   20481532.9334
      -905.7524
 04  9 14 16 34 44.9990000  0  5G 1G20G11G23G25
 -10738168.73448  -8345513.77047  20112882.1444   20112880.3944
       169.2274
 -16401482.27048 -12773389.00446  20877641.1754   20877638.9564
      2144.8214
  -2576239.21548  -1990504.95745  21391378.7534   21391375.5934
     -1796.5764
  -9621599.52748  -7485764.13344  22030454.0504   22030449.9564
      2349.3204
  -8518784.42649  -6615383.24647  20484145.9564   20484143.6754
      -914.6574
 04  9 14 16 34 59.9990000  0  5G 1G20G11G23G25
 -10740625.59449  -8347428.20747  20112414.6204   20112413.0464
       163.7914
 -16433575.01248 -12798396.33246  20871534.4254   20871531.7334
      2139.5164
  -2549168.21148  -1969410.68045  21396530.3704   21396527.5194
     -1804.7344
  -9656778.50048  -7513176.30544  22023759.7454   22023755.0154
      2345.2654
  -8504930.10949  -6604587.68047  20486782.0654   20486780.1594
      -923.6214
 04  9 14 16 35 14.9990000  0  5G 1G20G11G23G25
 -10743001.44148  -8349279.50847  20111962.4724   20111960.8274
       158.3904
 -16465588.39548 -12823341.82846  20865442.4484   20865439.8274
      2134.2264
  -2521975.69548  -1948221.71545  21401705.2614   21401702.1244
     -1812.8344
  -9691897.03148  -7540541.40244  22017076.7614   22017072.5304
      2341.2354
  -8490942.07449  -6593687.91447  20489444.0114   20489441.8704
      -932.5364
 04  9 14 16 35 29.9990000  0  5G 1G20G11G23G25
 -10745295.64549  -8351067.21147  20111526.1754   20111524.2804
       152.9474
 -16497521.48448 -12848224.74246  20859365.5114   20859363.1754
      2128.8734
  -2494661.15248  -1926937.66845  21406902.2454   21406900.3084
     -1820.9704
  -9726954.46148  -7567858.86344  22010405.8234   22010401.4564
      2337.1624
  -8476819.77749  -6582683.52047  20492131.2844   20492128.8194
      -941.4864
 04  9 14 16 35 44.9990000  0  5G 1G20G11G23G25
 -10747509.16049  -8352792.02347  20111104.5264   20111102.9644
       147.5684
 -16529374.87548 -12873045.56646  20853304.1364   20853301.7964
      2123.5594
  -2467225.69548  -1905559.38745  21412123.1834   21412120.6904
     -1829.0304
  -9761951.64148  -7595129.37544  22003745.7764   22003741.9994
      2333.1454
  -8462564.15649  -6571575.25046  20494844.1594   20494841.8974
      -950.3754
 04  9 14 16 35 59.9990000  0  5G 1G20G11G23G25
 -10749641.87949  -8354453.87947  20110698.9484   20110697.3744
       142.1814
 -16561148.16448 -12897803.97346  20847258.0584   20847255.3704
      2118.2194
  -2439669.39848  -1884086.96545  21417367.3004   21417364.6714
     -1837.0864
  -9796888.29348  -7622352.74244  21997097.7224   21997093.7264
      2329.1104
  -8448175.33249  -6560363.17247  20497582.0584   20497579.7964
      -959.2554
 04  9 14 16 36 14.9990000  0  5G 1G20G11G23G25
 -10751694.95349  -8356053.68047  20110308.4254   20110306.1124
       136.8724
 -16592842.18748 -12922500.60546  20841226.8004   20841224.2264
      2112.9354
  -2411993.50448  -1862521.33645  21422633.7454   21422631.0194
     -1845.0604
  -9831765.41048  -7649529.69944  21990460.9724   21990457.1674
      2325.1414
  -8433654.47349  -6549048.22346  20500345.2224   20500342.7724
      -968.0574
 04  9 14 16 36 29.9990000  0  5G 1G20G11G23G25
 -10753669.17249  -8357592.03547  20109932.7614   20109930.9054
       131.6154
 -16624457.29348 -12947135.74646  20835210.8474   20835208.5114
      2107.6744
  -2384199.16848  -1840863.42645  21427922.5194   21427920.3824
     -1852.9564
  -9866583.69948  -7676660.82444  21983835.7224   21983831.8784
      2321.2194
  -8419002.54749  -6537631.13746  20503133.5974   20503130.8314
      -976.7954
 04  9 14 16 36 44.9990000  0  5G 1G20G11G23G25
 -10755564.22749  -8359068.70747  20109572.1054   20109570.5734
       126.3374
 -16655993.03549 -12971709.05546  20829209.5424   20829206.9484
      2102.3834
  -2356286.11348  -1819113.00845  21433234.4724   21433231.8824
     -1860.8704
  -9901342.77348  -7703745.80144  21977220.7304   21977216.5624
      2317.2724
  -8404219.35249  -6526111.76647  20505946.6124   20505944.5814
      -985.5464
 04  9 14 16 36 59.9990000  0  5G 1G20G11G23G25
 -10757381.00848  -8360484.36746  20109226.1364   20109224.2654
       121.1194
 -16687449.94948 -12996220.93046  20823223.6594   20823221.3084
      2097.1284
  -2328255.53148  -1797271.00845  21438568.4094   21438566.3474
     -1868.7054
  -9936043.39548  -7730785.23444  21970617.2374   21970613.3274
      2313.3754
  -8389305.89149  -6514490.89147  20508784.9484   20508782.5694
      -994.2314
 04  9 14 16 37 14.9990000  0  5G 1G20G11G23G25
 -10759119.45749  -8361838.99646  20108895.2694   20108893.6904
       115.8974
 -16718827.55548 -13020671.00846  20817252.5034   20817250.0264
      2091.8404
  -2300107.53948  -1775337.52045  21443924.1284   21443922.2574
     -1876.5334
  -9970685.49248  -7757779.06244  21964025.4874   21964021.2724
      2309.4734
  -8374262.32849  -6502768.62546  20511647.3624   20511644.5344
     -1002.9044
 04  9 14 16 37 29.9990000  0  5G 1G20G11G23G25
 -10760779.43748  -8363132.49647  20108579.6204   20108577.7024
       110.6654
 -16750125.45748 -13045058.97746  20811296.8944   20811294.2844
      2086.5274
  -2271842.17648  -1753312.57045  21449303.2144   21449301.6324
     -1884.3584
 -10005268.69548  -7784727.00044  21957444.4644   21957439.9914
      2305.5474
  -8359088.38749  -6490944.77347  20514534.9094   20514532.6124
     -1011.5964
 04  9 14 16 37 44.9990000  0  5G 1G20G11G23G25
 -10762361.62149  -8364365.36347  20108278.3474   20108276.6324
       105.4794
 -16781343.89548 -13069385.03146  20805356.0654   20805353.4874
      2081.2294
  -2243460.19948  -1731196.75445  21454704.5264   21454702.2334
     -1892.1324
 -10039793.55948  -7811629.49244  21950874.5034   21950870.1164
      2301.6584
  -8343784.77049  -6479019.88346  20517446.8944   20517445.1124
     -1020.2414
 04  9 14 16 37 59.9990000  0  5G 1G20G11G23G25
 -10763866.29749  -8365537.83247  20107991.9094   20107990.1244
       100.3124
 -16812482.89149 -13093649.17646  20799430.3624   20799428.0154
      2075.9334
  -2214962.14848  -1708990.49645  21460127.2844   21460125.2614
     -1899.8704
 -10074260.23448  -7838486.62944  21944315.7224   21944311.3474
      2297.7784
  -8328351.92649  -6466994.28547  20520383.9014   20520381.1404
     -1028.8564
 04  9 14 16 38 14.9990000  0  5G 1G20G11G23G25
 -10765293.11748  -8366649.64147  20107720.3864   20107718.7694
        95.1214
 -16843541.80548 -13117850.93446  20793520.1284   20793517.5114
      2070.5944
  -2186347.78548  -1686693.60545  21465572.1204   21465570.7304
     -1907.6244
 -10108668.34448  -7865298.12944  21937768.1984   21937763.5074
      2293.8744
  -8312789.76649  -6454867.93047  20523345.2064   20523343.1444
     -1037.4774
 04  9 14 16 38 29.9990000  0  5G 1G20G11G23G25
 -10766641.39149  -8367700.24647  20107464.0194   20107462.1634
        89.8854
 -16874519.56648 -13141989.43446  20787624.9014   20787622.9954
      2065.1844
  -2157616.76248  -1664305.80145  21471039.8004   21471037.3554
     -1915.4024
 -10143016.96148  -7892063.27044  21931231.6124   21931227.5544
      2289.9084
  -8297097.69149  -6442640.34047  20526331.3704   20526329.1244
     -1046.1384
 04  9 14 16 38 44.9990000  0  5G 1G20G11G23G25
 -10767911.75848  -8368690.14147  20107222.2144   20107221.0194
        84.6914
 -16905416.47348 -13166064.94146  20781745.9334   20781743.3124
      2059.7944
  -2128769.94148  -1641827.76645  21476529.7064   21476527.1554
     -1923.1214
 -10177306.68449  -7918782.53544  21924706.6594   21924702.1904
      2285.9824
  -8281276.34849  -6430312.01647  20529341.7694   20529339.8514
     -1054.7564
 04  9 14 16 38 59.9990000  0  5G 1G20G11G23G25
 -10769104.69949  -8369619.69947  20106995.4484   20106993.4644
        79.5294
 -16936232.60548 -13190077.50446  20775881.6054   20775878.9604
      2054.4094
  -2099807.89848  -1619259.94945  21482040.5814   21482038.6244
     -1930.8034
 -10211537.83249  -7945456.15244  21918192.5344   21918187.8864
      2282.0774
  -8265326.20349  -6417883.34047  20532377.4014   20532375.4294
     -1063.3434
 04  9 14 16 39 14.9990000  0  5G 1G20G11G23G25
 -10770220.20748  -8370488.92647  20106782.5734   20106781.1594
        74.3674
 -16966967.84048 -13214027.03546  20770032.9174   20770030.7844
      2049.0164
  -2070730.75848  -1596602.44945  21487573.7534   21487571.6514
     -1938.4764
 -10245710.36348  -7972084.09844  21911689.5814   21911684.9174
      2278.1694
  -8249247.67249  -6405354.60947  20535436.7924   20535435.0974
     -1071.9024
 04  9 14 16 39 29.9990000  0  5G 1G20G11G23G25
 -10771257.89548  -8371297.52047  20106585.5584   20106583.7724
        69.1794
 -16997621.47349 -13237912.97746  20764199.7764   20764197.4834
      2043.5764
  -2041538.46548  -1573855.21545  21493128.9644   21493127.0344
     -1946.1534
 -10279823.82049  -7998666.00444  21905198.6284   21905193.6514
      2274.2304
  -8233040.43449  -6392725.59847  20538520.8084   20538518.7264
     -1080.4834
 04  9 14 16 39 44.9990000  0  5G 1G20G11G23G25
 -10772217.85549  -8372045.54747  20106402.8784   20106401.0734
        63.9974
 -17028193.12949 -13261735.05146  20758382.3784   20758380.3154
      2038.1104
  -2012231.22748  -1551018.42645  21498705.6674   21498703.7454
     -1953.8164
 -10313878.11349  -8025201.81244  21898717.9804   21898713.6054
      2270.2864
  -8216704.53949  -6379996.33647  20541629.6204   20541627.7374
     -1089.0604
 04  9 14 16 39 59.9990000  0  5G 1G20G11G23G25
 -10773099.87149  -8372732.83647  20106234.7844   20106233.3044
        58.8014
 -17058682.30149 -13285492.84446  20752580.4334   20752578.0694
      2032.6114
  -1982809.04748  -1528092.05945  21504304.7224   21504302.3474
     -1961.4794
 -10347872.88348  -8051691.24244  21892248.9564   21892244.6054
      2266.3184
  -8200239.97349  -6367166.80547  20544762.6204   20544760.7224
     -1097.6384
 04  9 14 16 40 14.9990000  0  5G 1G20G11G23G25
 -10773903.34448  -8373358.91847  20106081.7374   20106080.6634
        53.5654
 -17089088.09849 -13309185.66446  20746794.1754   20746792.0224
      2027.0534
  -1953271.54748  -1505075.83645  21509925.5974   21509923.3974
     -1969.1674
 -10381807.44148  -8078133.74244  21885791.3864   21885787.0194
      2262.3044
  -8183646.18749  -6354236.57846  20547920.4724   20547918.3084
     -1106.2524
 04  9 14 16 40 29.9990000  0  5G 1G20G11G23G25
 -10774628.56648  -8373924.02747  20105944.3624   20105942.5654
        48.3484
 -17119410.37548 -13332813.40646  20741024.3394   20741021.9954
      2021.4854
  -1923619.09048  -1481970.04345  21515568.2224   21515566.0544
     -1976.8304
 -10415681.95349  -8104529.46544  21879345.5814   21879341.1834
      2258.3014
  -8166923.65249  -6341206.03147  20551102.4094   20551100.5224
     -1114.8364
 04  9 14 16 40 44.9990000  0  5G 1G20G11G23G25
 -10775276.52048  -8374428.91047  20105820.5894   20105819.0114
        43.1974
 -17149649.84849 -13356376.62546  20735269.7694   20735267.4764
      2015.9654
  -1893853.01248  -1458775.70345  21521232.5114   21521230.0584
     -1984.4054
 -10449497.28948  -8130879.06244  21872910.7454   21872906.4524
      2254.3564
  -8150073.28149  -6328075.87547  20554309.0504   20554307.4604
     -1123.3584
 04  9 14 16 40 59.9990000  0  5G 1G20G11G23G25
 -10775846.95349  -8374873.40247  20105711.7454   20105710.4014
        38.0294
 -17179805.98849 -13379874.91046  20729531.2304   20729529.3044
      2010.4094
  -1863973.17648  -1435492.71945  21526918.5654   21526916.1164
     -1991.9894
 -10483253.16448  -8157182.32444  21866486.6364   21866482.7064
      2250.3924
  -8133095.09449  -6314846.11747  20557540.1984   20557537.7104
     -1131.8794
 04  9 14 16 41 14.9990000  0  5G 1G20G11G23G25
 -10776340.23048  -8375257.78947  20105618.6364   20105616.6514
        32.8854
 -17209878.82048 -13403308.28146  20723808.6674   20723806.4484
      2004.8554
  -1833980.21548  -1412121.59045  21532625.8474   21532623.6124
     -1999.5314
 -10516949.71949  -8183439.36744  21860074.8944   21860070.6874
      2246.4374
  -8115989.59849  -6301517.16446  20560794.8154   20560792.5624
     -1140.3664
 04  9 14 16 41 29.9990000  0  5G 1G20G11G23G25
 -10776756.01248  -8375581.76647  20105538.9404   20105537.2064
        27.7194
 -17239867.66048 -13426676.20346  20718101.6284   20718099.4764
      1999.2564
  -1803873.91048  -1388662.14545  21538355.0584   21538352.9914
     -2007.0874
 -10550586.59049  -8209649.91445  21853673.8864   21853669.5814
      2242.4584
  -8098756.47349  -6288088.75847  20564074.5034   20564072.4174
     -1148.8754
 04  9 14 16 41 44.9990000  0  5G 1G20G11G23G25
 -10777094.46948  -8375845.51247  20105474.9804   20105473.1984
        22.5644
 -17269772.28149 -13449978.50446  20712410.9644   20712409.0894
      1993.6414
  -1773654.70748  -1365114.72745  21544105.3474   21544103.7304
     -2014.6144
 -10584163.77348  -8235813.93445  21847283.8864   21847279.8394
      2238.4794
  -8081396.10949  -6274561.20347  20567377.8944   20567376.0344
     -1157.3584
 04  9 14 16 41 59.9990000  0  5G 1G20G11G23G25
 -10777356.26649  -8376049.50847  20105425.1284   20105423.4134
        17.4534
 -17299593.14848 -13473215.54346  20706736.3704   20706734.1244
      1988.0584
  -1743323.39148  -1341479.94545  21549877.5194   21549874.9994
     -2022.0884
 -10617681.86348  -8261931.92244  21840905.6594   21840901.6874
      2234.5394
  -8063909.22749  -6260935.07046  20570705.8154   20570703.2694
     -1165.7924
 04  9 14 16 42 14.9990000  0  5G 1G20G11G23G25
 -10777540.68449  -8376193.20347  20105390.0194   20105388.3974
        12.2954
 -17329329.12148 -13496386.41446  20701077.5814   20701075.5464
      1982.3984
  -1712879.52348  -1317757.46145  21555670.4484   21555668.5384
     -2029.5914
 -10651139.93048  -8288003.14144  21834539.2614   21834534.8744
      2230.5384
  -8046295.20749  -6247209.84847  20574057.4254   20574055.8154
     -1174.2684
 04  9 14 16 42 29.9990000  0  5G 1G20G11G23G25
 -10777648.21549  -8376277.00447  20105369.4724   20105367.6284
         7.1694
 -17358980.34048 -13519491.26646  20695435.2304   20695433.1834
      1976.7484
  -1682323.77348  -1293947.80545  21561485.5584   21561483.0814
     -2037.0504
 -10684538.47349  -8314027.98044  21828183.5034   21828179.0814
      2226.5704
  -8028554.73449  -6233386.11747  20577433.5424   20577431.2104
     -1182.6984
 04  9 14 16 42 44.9990000  0  5G 1G20G11G23G25
 -10777679.54748  -8376301.41446  20105363.2144   20105361.7764
         2.0894
 -17388547.21548 -13542530.37946  20689808.9484   20689806.7574
      1971.1254
  -1651657.16048  -1270051.74245  21567321.3474   21567318.5384
     -2044.4414
 -10717878.00849  -8340006.83244  21821839.0504   21821834.7844
      2222.6364
  -8010688.72349  -6219464.54747  20580832.8784   20580830.9444
     -1191.0674
 04  9 14 16 42 59.9990000  0  5G 1G20G11G23G25
 -10777634.33649  -8376266.18447  20105371.7694   20105370.3904
        -3.0144
 -17418029.13349 -13565503.30546  20684198.5734   20684196.4134
      1965.4614
  -1620879.39148  -1246069.08645  21573177.8084   21573176.0384
     -2051.8514
 -10751158.00849  -8365939.29345  21815506.1834   21815501.9174
      2218.6674
  -7992696.73449  -6205444.81646  20584256.9094   20584254.7654
     -1199.4664
 04  9 14 16 43 14.9990000  0  5G 1G20G11G23G25
 -10777512.86749  -8376171.53547  20105395.0424   20105393.8904
        -8.0984
 -17447425.97748 -13588409.93046  20678604.4254   20678602.3124
      1959.7904
  -1589990.83648  -1222000.09045  21579055.7694   21579053.6514
     -2059.2374
 -10784378.69549  -8391825.53944  21809184.3154   21809180.5194
      2214.7134
  -7974579.19149  -6191327.26246  20587704.5734   20587702.1404
     -1207.8364
 04  9 14 16 43 29.9990000  0  5G 1G20G11G23G25
 -10777315.45748  -8376017.70747  20105432.6054   20105431.2614
       -13.1614
 -17476737.65648 -13611250.20346  20673026.8784   20673024.5224
      1954.1124
  -1558992.07448  -1197845.22745  21584954.4014   21584952.5464
     -2066.5844
 -10817540.41048  -8417665.82044  21802873.7844   21802870.3004
      2210.7814
  -7956336.61749  -6177112.25846  20591175.5894   20591173.8004
     -1216.1724
 04  9 14 16 43 44.9990000  0  5G 1G20G11G23G25
 -10777041.96948  -8375804.60247  20105484.7844   20105483.1054
       -18.2334
 -17505963.74648 -13634023.77346  20667465.1594   20667463.1054
      1948.4064
  -1527883.26648  -1173604.61345  21590874.2764   21590872.5814
     -2073.9214
 -10850642.81248  -8443459.88745  21796574.9254   21796570.6514
      2206.8274
  -7937968.92649  -6162799.78546  20594671.1054   20594669.5694
     -1224.5134
 04  9 14 16 43 59.9990000  0  5G 1G20G11G23G25
 -10776692.69148  -8375532.44547  20105551.4334   20105549.5584
       -23.2854
 -17535104.28948 -13656730.68046  20661920.2224   20661917.6674
      1942.7034
  -1496665.00448  -1149278.70745  21596815.0424   21596813.2764
     -2081.2174
 -10883686.03149  -8469207.84044  21790287.0194   21790282.6674
      2202.8814
  -7919476.57449  -6148390.15246  20598190.1284   20598188.0464
     -1232.8234
 04  9 14 16 44 14.9990000  0  5G 1G20G11G23G25
 -10776267.13749  -8375200.83647  20105632.2454   20105630.3004
       -28.3704
 -17564158.43449 -13679370.27046  20656391.2924   20656389.0854
      1936.9434
  -1465336.89848  -1124867.21145  21602776.5114   21602774.7454
     -2088.5404
 -10916669.52748  -8494909.25044  21784010.0424   21784006.2184
      2198.9004
  -7900859.08249  -6133883.02047  20601732.9644   20601730.5624
     -1241.1664
 04  9 14 16 44 29.9990000  0  5G 1G20G11G23G25
 -10775766.14549  -8374810.45347  20105727.6364   20105725.5814
       -33.3994
 -17593126.68048 -13701942.93446  20650879.1124   20650876.5344
      1931.2164
  -1433899.95348  -1100370.90645  21608758.8624   21608756.7334
     -2095.7964
 -10949593.86749  -8520564.57044  21777744.9484   21777740.5424
      2194.9564
  -7882117.56649  -6119279.24647  20605299.4334   20605297.5264
     -1249.4344
 04  9 14 16 44 44.9990000  0  5G 1G20G11G23G25
 -10775188.75448  -8374360.55547  20105837.8944   20105836.0894
       -38.4934
 -17622007.75448 -13724447.66446  20645382.8314   20645380.6874
      1925.4054
  -1402353.57048  -1075789.32445  21614762.0424   21614760.0344
     -2103.0924
 -10982458.22749  -8546173.16445  21771491.6904   21771486.6984
      2190.9574
  -7863251.28549  -6104578.24247  20608889.2374   20608887.2964
     -1257.7524
 04  9 14 16 44 59.9990000  0  5G 1G20G11G23G25
 -10774536.33649  -8373852.17647  20105961.5424   20105959.9404
       -43.4954
 -17650802.72348 -13746885.30546  20639903.6204   20639900.9994
      1919.6654
  -1370699.19948  -1051123.59045  21620785.2844   21620783.2694
     -2110.2914
 -11015263.72749  -8571735.87944  21765248.6204   21765244.0894
      2187.0334
  -7844261.61349  -6089781.10946  20612503.3704   20612501.2374
     -1265.9784
 04  9 14 16 45 14.9990000  0  5G 1G20G11G23G25
 -10773809.19949  -8373285.57847  20106100.0654   20106098.0694
       -48.4764
 -17679511.56248 -13769255.82046  20634440.6514   20634438.0424
      1913.9234
  -1338937.35548  -1026374.10944  21626829.7374   21626827.2884
     -2117.4564
 -11048010.71548  -8597253.00044  21759016.4954   21759011.9334
      2183.1334
  -7825149.00049  -6074888.14846  20616139.6284   20616138.1754
     -1274.1744
 04  9 14 16 45 29.9990000  0  5G 1G20G11G23G25
 -10773006.44149  -8372660.04347  20106252.9174   20106251.0654
       -53.5174
 -17708133.02348 -13791558.25846  20628993.9174   20628991.3434
      1908.0974
  -1307067.43748  -1001540.42645  21632894.2534   21632891.9834
     -2124.6614
 -11080697.93048  -8622723.56244  21752796.9254   21752792.8624
      2179.1484
  -7805912.68449  -6059898.82846  20619800.8474   20619799.1244
     -1282.4214
 04  9 14 16 45 44.9990000  0  5G 1G20G11G23G25
 -10772128.51248  -8371975.94947  20106419.7534   20106417.6834
       -58.5294
 -17736667.30548 -13813792.75446  20623564.0114   20623561.5734
      1902.2854
  -1275090.14548   -976623.06245  21638979.4404   21638976.9834
     -2131.8204
 -11113325.96149  -8648147.99245  21746588.1444   21746583.9994
      2175.2024
  -7786553.34449  -6044813.61347  20623484.5034   20623482.5224
     -1290.6234
 04  9 14 16 45 59.9990000  0  5G 1G20G11G23G25
 -10771175.40249  -8371233.26647  20106601.2374   20106599.3154
       -63.5414
 -17765113.91848 -13835958.94946  20618151.0344   20618148.0464
      1896.4414
  -1243005.57048   -951622.10245  21645084.9404   21645082.6364
     -2138.9724
 -11145894.68449  -8673526.21145  21740390.0734   21740386.1944
      2171.2484
  -7767071.08649  -6029632.65247  20627192.1674   20627190.0034
     -1298.8174
 04  9 14 16 46 14.9990000  0  5G 1G20G11G23G25
 -10770146.96948  -8370431.89147  20106796.9804   20106795.0194
       -68.5624
 -17793472.45348 -13858056.50446  20612754.0894   20612751.4174
      1890.5694
  -1210813.82048   -926537.63745  21651210.8474   21651208.6674
     -2146.1174
 -11178403.71149  -8698857.91045  21734204.0894   21734199.7104
      2167.2684
  -7747465.75849  -6014355.77747  20630922.5974   20630920.9764
     -1307.0224
 04  9 14 16 46 29.9990000  0  5G 1G20G11G23G25
 -10769043.97749  -8369572.42247  20107006.9334   20107005.3554
       -73.5334
 -17821743.41448 -13880085.83246  20607374.6204   20607371.6904
      1884.7314
  -1178515.91848   -901370.44944  21657356.5814   21657354.8434
     -2153.1934
 -11210853.74649  -8724143.64844  21728028.6834   21728024.7804
      2163.3364
  -7727738.22749  -5998983.66446  20634676.4724   20634674.4804
     -1315.1694
 04  9 14 16 46 44.9990000  0  5G 1G20G11G23G25
 -10767866.30148  -8368654.75847  20107230.9874   20107229.3864
       -78.5124
 -17849926.25048 -13902046.47346  20602011.5114   20602009.2104
      1878.8564
  -1146111.96948   -876120.62545  21663523.5034   21663521.3274
     -2160.2634
 -11243244.39549  -8749383.10245  21721865.4334   21721861.0934
      2159.3774
  -7707888.45349  -5983516.32446  20638454.1904   20638451.9334
     -1323.3184
 04  9 14 16 46 59.9990000  0  5G 1G20G11G23G25
 -10766613.95349  -8367678.89847  20107469.3314   20107467.7224
       -83.4904
 -17878020.73048 -13923938.27346  20596665.1674   20596662.7144
      1872.9654
  -1113602.14848   -850788.32045  21669709.5734   21669707.4374
     -2167.3214
 -11275575.66049  -8774576.29345  21715712.7844   21715708.4804
      2155.4184
  -7687916.74249  -5967953.95746  20642254.7764   20642252.5774
     -1331.4474
 04  9 14 16 47 14.9990000  0  5G 1G20G11G23G25
 -10765286.23049  -8366644.30947  20107721.8624   20107720.0464
       -88.5154
 -17906025.73448 -13945760.34846  20591335.6984   20591333.5774
      1867.0004
  -1080985.96948   -825373.12944  21675916.1444   21675914.0194
     -2174.4124
 -11307846.78949  -8799722.60245  21709571.6834   21709567.9834
      2151.4094
  -7667822.48449  -5952296.09847  20646078.5974   20646076.0344
     -1339.6174
 04  9 14 16 47 29.9990000  0  5G 1G20G11G23G25
 -10763884.41049  -8365551.98847  20107988.5114   20107987.0624
       -93.4554
 -17933942.33248 -13967513.53546  20586023.8624   20586021.0074
      1861.1074
  -1048265.02048   -799876.28144  21682142.6674   21682140.5114
     -2181.3974
 -11340058.98849  -8824823.02745  21703441.9874   21703437.9174
      2147.4804
  -7647607.17249  -5936543.90247  20649925.0734   20649922.8124
     -1347.6874
 04  9 14 16 47 44.9990000  0  5G 1G20G11G23G25
 -10762408.70348  -8364402.09447  20108269.4724   20108267.8664
       -98.3804
 -17961770.24248 -13989197.61746  20580728.3314   20580725.6834
      1855.1944
  -1015439.64548   -774298.08245  21688389.0814   21688387.2454
     -2188.3584
 -11372212.25049  -8849877.51245  21697323.6284   21697319.0854
      2143.5514
  -7627271.09449  -5920697.61746  20653794.9564   20653793.0694
     -1355.7394
 04  9 14 16 47 59.9990000  0  5G 1G20G11G23G25
 -10760858.94548  -8363194.49247  20108564.1284   20108562.9134
      -103.3174
 -17989509.01648 -14010812.25046  20575449.7224   20575447.2804
      1849.2524
   -982509.89148   -748638.54745  21694655.8314   21694653.5624
     -2195.3174
 -11404306.43749  -8874885.94145  21691215.6754   21691211.6874
      2139.6134
  -7606814.29349  -5904757.26246  20657687.5654   20657685.6904
     -1363.7874
 04  9 14 16 48 14.9990000  0  5G 1G20G11G23G25
 -10759235.35549  -8361929.35247  20108873.4254   20108871.5544
      -108.2394
 -18017158.59848 -14032357.36346  20570188.2764   20570185.3944
      1843.3054
   -949476.13748   -722897.97745  21700941.6444   21700939.8744
     -2202.2504
 -11436341.50449  -8899848.34045  21685120.0734   21685116.0344
      2135.6714
  -7586236.97749  -5888722.99247  20661603.6204   20661601.5264
     -1371.8214
 04  9 14 16 48 29.9990000  0  5G 1G20G11G23G25
 -10757538.51248  -8360607.12947  20109196.5034   20109194.4134
      -113.1234
 -18044719.18448 -14053833.15246  20564943.7224   20564941.1874
      1837.3724
   -916339.28548   -697077.06645  21707247.6444   21707245.7924
     -2209.1234
 -11468317.95749  -8924765.05145  21679035.1984   21679030.7924
      2131.7644
  -7565540.02049  -5872595.49246  20665541.8234   20665540.0114
     -1379.7974
 04  9 14 16 48 44.9990000  0  5G 1G20G11G23G25
 -10755769.08249  -8359228.35947  20109532.8624   20109531.1054
      -117.9624
 -18072191.18448 -14075239.89546  20559715.9404   20559713.4874
      1831.4674
   -883100.12148   -671176.42245  21713572.7764   21713570.7304
     -2215.9444
 -11500236.38749  -8949636.54345  21672961.2454   21672957.1634
      2127.8954
  -7544724.19149  -5856375.36746  20669502.8784   20669501.2964
     -1387.7224
 04  9 14 16 48 59.9990000  0  5G 1G20G11G23G25
 -10753925.86749  -8357792.09447  20109883.8154   20109882.2494
      -122.8814
 -18099573.08648 -14096576.44546  20554505.3624   20554502.8584
      1825.4604
   -849757.85548   -645195.45345  21719917.4954   21719915.8514
     -2222.8184
 -11532095.49249  -8974461.81645  21666898.4954   21666894.2104
      2123.9404
  -7523788.44549  -5840061.81646  20673487.2844   20673485.3704
     -1395.7164
 04  9 14 16 49 14.9990000  0  5G 1G20G11G23G25
 -10752009.85549  -8356299.10547  20110248.0584   20110246.7764
      -127.7344
 -18126865.53948 -14117843.29346  20549311.8004   20549308.8904
      1819.4974
   -816313.70748   -619135.09845  21726281.6364   21726279.9644
     -2229.6104
 -11563896.20748  -8999241.59045  21660847.2764   21660842.6834
      2120.0484
  -7502733.90649  -5823655.68046  20677493.6984   20677491.5154
     -1403.6364
 04  9 14 16 49 29.9990000  0  5G 1G20G11G23G25
 -10750020.89849  -8354749.27047  20110627.0114   20110625.2924
      -132.5974
 -18154067.99648 -14139040.01246  20544135.0424   20544132.7804
      1813.4974
   -782767.66048   -592995.33644  21732664.9954   21732663.2724
     -2236.4034
 -11595638.20749  -9023975.60945  21654807.3084   21654802.8744
      2116.1334
  -7481560.47749  -5807156.91046  20681522.6834   20681521.1874
     -1411.5624
 04  9 14 16 49 44.9990000  0  5G 1G20G11G23G25
 -10747959.14549  -8353142.70347  20111019.2304   20111017.4604
      -137.4504
 -18181180.34848 -14160166.51646  20538976.0114   20538973.4834
      1807.4904
   -749120.15648   -566776.53544  21739067.8314   21739066.3394
     -2243.1674
 -11627321.59849  -9048663.96145  21648778.1514   21648773.4054
      2112.2264
  -7460268.44549  -5790565.72746  20685574.5114   20685572.3084
     -1419.4694
 04  9 14 16 49 59.9990000  0  5G 1G20G11G23G25
 -10745825.00049  -8351479.73847  20111425.1904   20111423.6944
      -142.2764
 -18208202.59048 -14181222.80546  20533833.5734   20533830.7924
      1801.4834
   -715371.80948   -540479.12544  21745490.2144   21745488.4094
     -2249.8904
 -11658946.62149  -9073306.83645  21642759.7924   21642755.0344
      2108.3354
  -7438858.51249  -5773882.66046  20689648.6834   20689646.9444
     -1427.3294
 04  9 14 16 50 14.9990000  0  5G 1G20G11G23G25
 -10743619.33249  -8349761.03547  20111844.7064   20111843.3354
      -147.0454
 -18235135.30549 -14202209.34446  20528708.7224   20528706.0074
      1795.5144
   -681523.55948   -514103.89144  21751931.3474   21751929.4294
     -2256.5504
 -11690514.00449  -9097904.78545  21636752.9094   21636748.5194
      2104.4924
  -7417331.64549  -5757108.48046  20693745.1674   20693743.0854
     -1435.1244
 04  9 14 16 50 29.9990000  0  5G 1G20G11G23G25
 -10741341.75849  -8347986.30947  20112278.4564   20112276.8474
      -151.8384
 -18261977.87948 -14223125.62146  20523600.3554   20523598.1164
      1789.5054
   -647575.15648   -487650.59844  21758391.5194   21758389.6164
     -2263.2274
 -11722023.24248  -9122457.42645  21630756.3234   21630752.2414
      2100.6164
  -7395687.53549  -5740242.94946  20697864.0424   20697861.9254
     -1442.9414
 04  9 14 16 50 44.9990000  0  5G 1G20G11G23G25
 -10738992.00849  -8346155.33647  20112725.5654   20112723.9334
      -156.6504
 -18288729.55149 -14243971.07846  20518510.0344   20518507.5384
      1783.4454
   -613526.80148   -461119.42644  21764870.6054   21764868.5584
     -2269.8904
 -11753474.05549  -9146964.55145  21624771.3864   21624767.4254
      2096.7214
  -7373926.03949  -5723285.93446  20702004.9334   20702002.9954
     -1450.7664
 04  9 14 16 50 59.9990000  0  5G 1G20G11G23G25
 -10736570.42649  -8344268.38347  20113186.0814   20113184.6594
      -161.4394
 -18315390.39149 -14264745.75046  20513436.4564   20513434.0224
      1777.3894
   -579379.10248   -434510.84844  21771368.6674   21771366.7804
     -2276.5134
 -11784866.66449  -9171426.31245  21618797.9724   21618793.4644
      2092.8414
  -7352047.69149  -5706237.89546  20706168.3784   20706166.2264
     -1458.5574
 04  9 14 16 51 14.9990000  0  5G 1G20G11G23G25
 -10734076.93449  -8342325.40247  20113660.8784   20113658.9644
      -166.2334
 -18341960.06649 -14285449.39846  20508380.3944   20508377.9834
      1771.3124
   -545132.20348   -407824.97344  21777886.1204   21777883.9604
     -2283.1274
 -11816200.84049  -9195842.55545  21612835.1364   21612830.8554
      2088.9454
  -7330052.59849  -5689098.85546  20710353.8784   20710351.7964
     -1466.3404
 04  9 14 16 51 29.9990000  0  5G 1G20G11G23G25
 -10731512.07849  -8340326.81647  20114149.0734   20114147.0264
      -170.9904
 -18368438.76248 -14306082.14546  20503341.6444   20503338.8944
      1765.2464
   -510786.86748   -381062.38744  21784422.0114   21784419.8664
     -2289.6894
 -11847477.10549  -9220213.66045  21606883.5654   21606879.3314
      2085.0844
  -7307941.39849  -5671869.35546  20714561.4724   20714559.4054
     -1474.0804
 04  9 14 16 51 44.9990000  0  5G 1G20G11G23G25
 -10728875.25849  -8338272.15247  20114650.7694   20114648.7884
      -175.7884
 -18394825.66049 -14326643.36346  20498320.4094   20498318.1084
      1759.1274
   -476342.59848   -354222.70344  21790975.9484   21790974.2724
     -2296.2854
 -11878694.73049  -9244539.07445  21600942.5974   21600938.7764
      2081.1754
  -7285713.67649  -5654549.05946  20718791.4644   20718789.1634
     -1481.8484
 04  9 14 16 51 59.9990000  0  5G 1G20G11G23G25
 -10726166.45349  -8336161.39847  20115165.9644   20115164.8234
      -180.5874
 -18421120.28149 -14347132.67246  20493316.8084   20493314.1754
      1752.9754
   -441799.73448   -327306.19944  21797549.6124   21797547.9524
     -2302.8584
 -11909853.43749  -9268818.57045  21595013.4564   21595009.4404
      2077.2474
  -7263369.66049  -5637138.13746  20723042.9174   20723041.3624
     -1489.6014
 04  9 14 16 52 14.9990000  0  5G 1G20G11G23G25
 -10723385.30949  -8333994.27047  20115695.2924   20115693.8234
      -185.4104
 -18447321.90648 -14367549.52046  20488330.6124   20488328.4604
      1746.7754
   -407158.17248   -300312.78544  21804141.9564   21804139.7924
     -2309.4374
 -11940952.82849  -9293051.85545  21589095.3394   21589091.2264
      2073.2934
  -7240908.97349  -5619636.32046  20727317.5584   20727315.9834
     -1497.3794
 04  9 14 16 52 29.9990000  0  5G 1G20G11G23G25
 -10720532.50049  -8331771.30947  20116238.1364   20116236.5544
      -190.1874
 -18473430.95349 -14387894.23446  20483362.5734   20483360.0464
      1740.6034
   -372418.83248   -273243.19544  21810752.1594   21810749.9644
     -2315.9564
 -11971993.52749  -9317239.40645  21583188.7844   21583184.0734
      2069.3804
  -7218332.48849  -5602044.24247  20731613.2064   20731611.7104
     -1505.0994
 04  9 14 16 52 44.9990000  0  5G 1G20G11G23G25
 -10717607.40249  -8329492.00847  20116794.8154   20116792.8154
      -195.0074
 -18499446.35249 -14408165.96946  20478411.5344   20478409.1014
      1734.3604
   -337581.21148   -246097.00444  21817381.4484   21817379.4724
     -2322.5084
 -12002974.78149  -9341380.63745  21577293.0344   21577288.3744
      2065.4174
  -7195639.53949  -5584361.44146  20735931.9014   20735930.0074
     -1512.8634
 04  9 14 16 52 59.9990000  0  5G 1G20G11G23G25
 -10714609.71549  -8327156.15247  20117365.3554   20117363.5584
      -199.8464
 -18525367.62949 -14428364.36746  20473479.2374   20473476.6164
      1728.0854
   -302645.10948   -218874.08644  21824029.6754   21824027.6084
     -2329.0734
 -12033896.19549  -9365475.24645  21571408.9724   21571404.5894
      2061.4284
  -7172830.31649  -5566588.03147  20740272.2924   20740270.4094
     -1520.6154
 04  9 14 16 53 14.9990000  0  6G 1G20G11G16G23G25
 -10711539.62149  -8324763.86347  20117949.3474   20117948.0504
      -204.6734
 -18551194.59049 -14448489.25846  20468564.2224   20468561.8704
      1721.7974
   -267611.18048   -191574.93744  21830696.4334   21830694.4334
     -2335.5954
   -107450.79357    -70865.63752  23742261.0734   23742261.4134

 -12064757.85249  -9389523.28145  21565536.5344   21565532.0814
      2057.4444
  -7149905.10949  -5548724.23446  20744634.9334   20744633.0774
     -1528.3474
 04  9 14 16 53 29.9990000  0  6G 1G20G11G16G23G25
 -10708398.37549  -8322316.14547  20118547.4404   20118545.9054
      -209.4164
 -18576928.22349 -14468541.44146  20463667.4954   20463665.0734
      1715.5764
   -232480.93048   -164200.72344  21837381.6204   21837379.5544
     -2342.0174
   -151671.59047   -105323.32042  23733846.2764   23733845.8744
      2948.0534
 -12095560.94149  -9413525.68045  21559674.7454   21559670.5034
      2053.5394
  -7126865.35549  -5530771.18746  20749019.1594   20749017.1164
     -1535.9844
 04  9 14 16 53 44.9990000  0  6G 1G20G11G16G23G25
 -10705185.31249  -8319812.46147  20119159.2764   20119157.1284
      -214.2044
 -18602567.56249 -14488520.14546  20458788.4954   20458785.7844
      1709.2894
   -197253.90648   -136751.11744  21844085.1124   21844083.1014
     -2348.4684
   -195862.44547   -139757.72742  23725436.9724   23725436.2694
      2946.0574
 -12126304.62549  -9437481.78545  21553824.2764   21553820.0504
      2049.5794
  -7103710.38349  -5512728.34846  20753425.1594   20753423.0814
     -1543.6654
 04  9 14 16 53 59.9990000  0  6G 1G20G11G16G23G25
 -10701900.96149  -8317253.23046  20119783.7374   20119781.9214
      -218.9574
 -18628112.79349 -14508425.52046  20453927.3394   20453924.7724
      1703.0154
   -161930.82048   -109226.64144  21850806.8084   21850804.3664
     -2354.8724
   -240023.60246   -174168.99242  23717033.8084   23717033.1364
      2944.0774
 -12156989.37148  -9461391.95345  21547985.0194   21547980.9134
      2045.6504
  -7080440.90649  -5494596.30146  20757853.5424   20757851.3474
     -1551.2984
 04  9 14 16 54 14.9990000  0  6G 1G20G11G16G23G25
 -10698545.89149  -8314638.89147  20120422.3004   20120420.1554
      -223.6714
 -18653564.07049 -14528257.67646  20449084.2064   20449081.4644
      1696.7524
   -126512.55548    -81628.00844  21857546.8864   21857544.7104
     -2361.2184
   -284155.09846   -208557.11342  23708635.0504   23708635.1284
      2942.1004
 -12187615.59849  -9485256.54745  21542157.0344   21542152.9874
      2041.7484
  -7057057.68449  -5476375.60946  20762302.9404   20762300.3234
     -1558.8824
 04  9 14 16 54 29.9990000  0  6G 1G20G11G16G23G25
 -10695118.37949  -8311968.10247  20121074.5734   20121072.9294
      -228.5014
 -18678919.36349 -14548015.05146  20444259.1984   20444256.8124
      1690.3534
    -90997.59048    -53954.01644  21864305.1444   21864303.1634
     -2367.6644
   -328254.68746   -242920.40642  23700243.1364   23700243.6324
      2939.9734
 -12218181.57449  -9509074.17245  21536340.6204   21536336.5584
      2037.7324
  -7033559.12549  -5458065.04746  20766774.6364   20766772.4094
     -1566.5714
 04  9 14 16 54 44.9990000  0  6G 1G20G11G16G23G25
 -10691618.15649  -8309240.65647  20121740.4094   20121738.3314
      -233.3484
 -18704178.06649 -14567697.15646  20439452.5584   20439450.2884
      1683.9144
    -55385.94948    -26204.70744  21871081.6204   21871079.9174
     -2374.1094
   -372321.74646   -277258.33642  23691857.8394   23691857.4804
      2937.8044
 -12248686.85249  -9532844.51245  21530535.7374   21530531.4404
      2033.6854
  -7009945.19549  -5439664.59446  20771268.6904   20771266.5034
     -1574.2624
 04  9 14 16 54 59.9990000  0  6G 1G20G11G16G23G25
 -10688044.78549  -8306456.20747  20122419.9564   20122418.1874
      -238.2254
 -18729339.45749 -14587303.42646  20434664.6124   20434661.9684
      1677.4264
    -19677.30148      1620.20344  21877876.9954   21877874.9404
     -2380.5774
   -416355.28946   -311570.14842  23683479.2224   23683477.6404
      2935.5704
 -12279130.89549  -9556567.14145  21524742.1364   21524737.7964
      2029.6034
  -6986215.62549  -5421174.01246  20775783.8864   20775781.4834
     -1581.9714
 04  9 14 16 55 14.9990000  0  6G 1G20G11G16G23G25
 -10684398.43449  -8303614.89546  20123113.9484   20123112.5934
      -243.0904
 -18754403.31249 -14606833.69946  20429894.8624   20429892.5504
      1670.9244
     16128.08648     29520.48044  21884690.4094   21884688.7454
     -2387.0264
   -460355.12947   -345855.70342  23675106.1364   23675105.8554
      2933.3234
 -12309513.77049  -9580242.10245  21518960.3474   21518956.2494
      2025.5254
  -6962370.63749  -5402593.51646  20780321.6204   20780318.9294
     -1589.6664
 04  9 14 16 55 29.9990000  0  6G 1G20G11G16G23G25
 -10680678.72349  -8300716.42247  20123822.0894   20123820.5504
      -247.9814
 -18779369.00049 -14626287.48046  20425144.1904   20425141.7724
      1664.3794
     52030.03548     57496.00844  21891522.1284   21891520.4294
     -2393.4634
   -504320.42247   -380114.32442  23666740.1284   23666739.2104
      2931.0204
 -12339834.94149  -9603868.97745  21513190.6514   21513186.5034
      2021.4114
  -6938410.01649  -5383922.91446  20784881.1444   20784879.5344
     -1597.3754
 04  9 14 16 55 44.9990000  0  6G 1G20G11G16G23G25
 -10676885.55149  -8297760.69947  20124544.0894   20124542.3194
      -252.8784
 -18804236.10949 -14645664.44546  20420412.1204   20420409.8234
      1657.8074
     88028.40248     85546.67244  21898372.4874   21898370.9134
     -2399.8914
   -548250.45747   -414345.47742  23658380.4174   23658379.6634
      2928.6694
 -12370094.14849  -9627447.57445  21507433.0264   21507428.8434
      2017.2804
  -6914333.78549  -5365162.21946  20789462.5814   20789460.4214
     -1605.0824
 04  9 14 16 55 59.9990000  0  6G 1G20G11G16G23G25
 -10673018.65649  -8294747.53147  20125279.7614   20125278.1554
      -257.7934
 -18829004.01249 -14664964.10246  20415699.0894   20415696.5464
      1651.1934
    124123.29748    113672.54344  21905240.8154   21905239.0264
     -2406.3264
   -592144.64546   -448548.69142  23650026.8394   23650026.8314
      2926.2794
 -12400291.24249  -9650977.76645  21501686.2614   21501682.3124
      2013.1404
  -6890141.94549  -5346311.43746  20794066.0584   20794063.9874
     -1612.7894
 04  9 14 16 56 14.9990000  0  6G 1G20G11G16G23G25
 -10669078.25049  -8291677.09447  20126029.6444   20126028.3234
      -262.6944
 -18853672.59849 -14684186.38346  20411004.6284   20411002.5544
      1644.5724
    160314.32848    141873.33644  21912128.3474   21912126.2264
     -2412.7354
   -636002.67647   -482723.74242  23641681.3554   23641680.8584
      2923.8694
 -12430426.27749  -9674459.59445  21495951.7224   21495947.6794
      2009.0024
  -6865834.85249  -5327370.85546  20798691.6594   20798690.4684
     -1620.4734
 04  9 14 16 56 29.9990000  0  6G 1G20G11G16G23G25
 -10665064.39849  -8288549.41847  20126793.3784   20126791.7614
      -267.5904
 -18878241.63749 -14703331.08246  20406329.4874   20406326.9994
      1637.9364
    196601.19148    170148.79744  21919033.3314   21919031.1794
     -2419.1244
   -679824.10947   -516870.28542  23633342.0034   23633341.3234
      2921.4294
 -12460499.07449  -9697892.92645  21490228.8474   21490224.9604
      2004.8534
  -6841412.82849  -5308340.72746  20803338.9254   20803337.0654
     -1628.1354
 04  9 14 16 56 44.9990000  0  6G 1G20G11G16G23G25
 -10660977.94949  -8285365.16847  20127571.2064   20127569.3474
      -272.4304
 -18902711.71949 -14722398.67646  20401673.1364   20401670.6984
      1631.3394
    232982.54748    198497.88744  21925955.9874   21925954.4254
     -2425.4244
   -723609.39846   -550988.64842  23625008.5734   23625009.3744
      2919.0194
 -12490510.48049  -9721278.41045  21484517.7924   21484513.8704
      2000.7604
  -6816876.80149  -5289221.73846  20808008.1674   20808006.0464
     -1635.7354
 04  9 14 16 56 59.9990000  0  6G 1G20G11G16G23G25
 -10656818.48049  -8282124.02347  20128362.6124   20128360.6674
      -277.2984
 -18927082.05949 -14741388.55146  20397035.2144   20397033.2574
      1624.6894
    269458.85948    226920.97744  21932897.6124   21932895.6244
     -2431.7544
   -767357.65647   -585078.15242  23616684.6514   23616684.2764
      2916.5514
 -12520460.04749  -9744615.72745  21478819.0264   21478814.7804
      1996.6384
  -6792226.37549  -5270013.62146  20812698.9254   20812697.7224
     -1643.3624
 04  9 14 16 57 14.9990000  0  6G 1G20G11G16G23G25
 -10652585.80549  -8278825.83247  20129168.0734   20129166.4804
      -282.1784
 -18951352.14849 -14760300.30946  20392417.0034   20392414.6794
      1618.0064
    306030.00048    255417.94944  21939857.1124   21939855.0974
     -2438.0764
   -811068.21547   -619138.32842  23608366.9484   23608366.2614
      2914.0374
 -12550347.30949  -9767904.49645  21473131.2694   21473127.3704
      1992.4844
  -6767461.60249  -5250716.39546  20817411.2924   20817409.9564
     -1650.9854
 04  9 14 16 57 29.9990000  0  6G 1G20G11G16G23G25
 -10648280.71949  -8275471.22347  20129987.4644   20129985.8584
      -287.0064
 -18975522.30949 -14779134.19946  20387817.5194   20387815.2144
      1611.3444
    342694.94148    283988.01644  21946834.0114   21946832.0544
     -2444.3294
   -854741.33247   -653169.27042  23600056.6204   23600055.1714
      2911.5414
 -12580172.97349  -9791145.26645  21467455.8154   21467451.5694
      1988.3784
  -6742583.54749  -5231330.91046  20822145.6754   20822143.7104
     -1658.5374
 04  9 14 16 57 44.9990000  0  6G 1G20G11G16G23G25
 -10643902.88349  -8272059.92647  20130820.2144   20130818.7024
      -291.8564
 -18999592.03949 -14797889.82846  20383237.2144   20383234.9994
      1604.6494
    379453.60548    312631.10544  21953828.7454   21953827.4094
     -2450.5784
   -898376.28547   -687170.52042  23591752.7304   23591752.1834
      2908.9974
 -12609936.76249  -9814337.81645  21461791.9404   21461787.7264
      1984.2534
  -6717591.94549  -5211856.94146  20826901.2694   20826899.2884
     -1666.1074
 04  9 14 16 57 59.9990000  0  6G 1G20G11G16G23G25
 -10639452.00449  -8268591.70747  20131667.3314   20131665.7724
      -296.7254
 -19023560.60549 -14816566.63346  20378676.2764   20378674.1754
      1597.9044
    416306.21948    341347.41444  21960841.6594   21960840.2884
     -2456.8414
   -941972.31247   -721141.38342  23583456.6834   23583456.0654
      2906.4024
 -12639638.09849  -9837481.70745  21456139.8864   21456135.7454
      1980.0894
  -6692486.64149  -5192294.37946  20831678.8394   20831676.3354
     -1673.6874
 04  9 14 16 58 14.9990000  0  6G 1G20G11G16G23G25
 -10634927.94549  -8265066.46147  20132528.1284   20132526.4444
      -301.6044
 -19047427.57449 -14835164.27746  20374134.5034   20374132.2454
      1591.1314
    453252.64548    370136.80544  21967872.5344   21967870.6594
     -2463.0954
   -985528.75047   -755081.43442  23575168.6054   23575167.5504
      2903.7624
 -12669276.76649  -9860576.76245  21450500.0654   21450495.9404
      1975.9114
  -6667267.65649  -5172643.21946  20836477.3944   20836475.4994
     -1681.2664
 04  9 14 16 58 29.9990000  0  6G 1G20G11G16G23G25
 -10630332.27049  -8261485.41847  20133402.9014   20133401.1444
      -306.3784
 -19071194.36749 -14853683.85246  20369611.7534   20369609.8234
      1584.4534
    490290.96548    398997.81644  21974920.5424   21974918.8514
     -2469.2214
  -1029046.75847   -788991.53542  23566887.8944   23566885.6594
      2901.2014
 -12698854.30949  -9883624.19145  21444871.5344   21444867.0544
      1971.8364
  -6641936.89849  -5152904.96946  20841297.9804   20841295.7964
     -1688.7174
 04  9 14 16 58 44.9990000  0  6G 1G20G11G16G23G25
 -10625663.79749  -8257847.64847  20134290.8864   20134289.4094
      -311.2324
 -19094859.37549 -14872124.12147  20365108.4804   20365106.3434
      1577.6674
    527422.18448    427931.22744  21981986.4484   21981984.5304
     -2475.4154
  -1072524.69147   -822870.41042  23558613.9484   23558612.7454
      2898.5294
 -12728369.48049  -9906623.02045  21439254.6514   21439250.5934
      1967.6784
  -6616493.35249  -5133078.83646  20846139.5504   20846137.3394
     -1696.2364
 04  9 14 16 58 59.9990000  0  6G 1G20G11G16G23G25
 -10620923.14849  -8254153.63747  20135193.0584   20135191.5114
      -316.0434
 -19118422.94949 -14890485.33646  20360624.4874   20360622.1834
      1570.9054
    564645.41048    456936.32044  21989069.9404   21989067.7804
     -2481.5484
  -1115962.79747   -856718.25442  23550347.9404   23550346.7104
      2895.8744
 -12757822.64549  -9929573.52345  21433650.2454   21433646.0154
      1963.5444
  -6590937.64549  -5113165.31246  20851002.9644   20851000.8824
     -1703.7144
 04  9 14 16 59 14.9990000  0  6G 1G20G11G16G23G25
 -10616110.23849  -8250403.31647  20136109.0814   20136107.4334
      -320.8614
 -19141884.57849 -14908767.13346  20356159.6834   20356157.4374
      1564.1094
    601960.47348    486012.97344  21996170.6834   21996168.5074
     -2487.6714
  -1159360.44947   -890534.57842  23542089.1674   23542087.9444
      2893.1774
 -12787213.74249  -9952475.66445  21428057.4094   21428053.0734
      1959.4074
  -6565269.86749  -5093164.44546  20855887.2924   20855885.0694
     -1711.1854
 04  9 14 16 59 29.9990000  0  6G 1G20G11G16G23G25
 -10611226.39149  -8246597.72347  20137038.5424   20137036.6674
      -325.5904
 -19165245.28149 -14926970.27046  20351714.6834   20351712.1634
      1557.3804
    639365.76648    515159.93444  22003289.0034   22003286.9724
     -2493.6864
  -1202718.58647   -924320.09042  23533838.8154   23533838.1404
      2890.5424
 -12816544.03149  -9975330.42245  21422475.9174   21422471.3664
      1955.3534
  -6539491.56249  -5073077.46146  20860792.4564   20860790.8514
     -1718.5544
 04  9 14 16 59 44.9990000  0  6G 1G20G11G16G23G25
 -10606270.69549  -8242736.15247  20137981.7614   20137979.9954
      -330.3804
 -19188503.87549 -14945093.85246  20347288.3234   20347286.0934
      1550.5734
    676861.95748    544377.72744  22010424.0344   22010422.4914
     -2499.7464
  -1246035.80547   -958073.68442  23525595.6984   23525595.4684
      2887.8154
 -12845812.44949  -9998136.96945  21416906.1284   21416901.9444
      1951.2284
  -6513601.93449  -5052903.74246  20865719.5114   20865717.9684
     -1725.9754
 04  9 14 16 59 59.9990000  0  6G 1G20G11G16G23G25
 -10601243.60549  -8238818.93047  20138938.0654   20138936.8554
      -335.1394
 -19211660.54349 -14963138.00446  20342882.0034   20342879.3784
      1543.7784
    714448.39548    573665.85544  22017576.6514   22017574.8004
     -2505.7624
  -1289312.02047   -991795.42242  23517359.2694   23517360.3314
      2885.0814
 -12875019.25049 -10020895.50445  21411347.9564   21411344.0154
      1947.1204
  -6487601.74249  -5032643.84046  20870666.8624   20870665.0344
     -1733.3464
 04  9 14 17  0 14.9990000  0  6G 1G20G11G16G23G25
 -10596146.00849  -8234846.78547  20139908.1204   20139906.6514
      -339.8404
 -19234715.82449 -14981103.15646  20338494.7694   20338492.4254
      1537.0194
    752123.89548    603023.36744  22024745.9874   22024744.6324
     -2511.7004
  -1332547.66046  -1025485.50442  23509132.8704   23509131.8664
      2882.3764
 -12904165.32449 -10043606.71945  21405801.9174   21405797.8904
      1943.0724
  -6461492.07049  -5012298.66046  20875635.9094   20875633.5224
     -1740.6454
 04  9 14 17  0 29.9990000  0  6G 1G20G11G16G23G25
 -10590976.96549  -8230818.96147  20140891.9404   20140890.1904
      -344.6034
 -19257668.41449 -14998988.28946  20334126.9644   20334124.3584
      1530.1734
    789889.03148    632450.72344  22031932.4804   22031931.0114
     -2517.6764
  -1375741.39146  -1059142.91442  23500912.7144   23500911.7184
      2879.5824
 -12933249.62549 -10066269.80145  21400267.5974   21400263.0464
      1938.9534
  -6435272.04749  -4991867.47346  20880625.0974   20880623.4604
     -1748.0024
 04  9 14 17  0 44.9990000  0  6G 1G20G11G16G23G25
 -10585737.51649  -8226736.27047  20141888.7924   20141887.3314
      -349.2974
 -19280519.03549 -15016793.96946  20329778.5734   20329776.2024
      1523.3754
    827742.74248    661947.10244  22039135.9404   22039133.9174
     -2523.5814
  -1418893.75046  -1092768.12142  23492701.0504   23492699.5074
      2876.8244
 -12962273.13749 -10088885.51245  21394744.7844   21394740.3904
      1934.9014
  -6408942.84449  -4971351.21146  20885635.3314   20885632.9684
     -1755.2804
 04  9 14 17  0 59.9990000  0  6G 1G20G11G16G23G25
 -10580427.72749  -8222598.77347  20142899.1904   20142897.6164
      -353.9864
 -19303267.50049 -15034520.04347  20325449.9334   20325447.2454
      1516.5644
    865684.52048    691512.10544  22046356.0584   22046354.5074
     -2529.4524
  -1462004.23446  -1126360.68442  23484497.8154   23484495.5734
      2874.0324
 -12991235.79349 -10111453.80145  21389233.1674   21389228.8864
      1930.8444
  -6382504.68449  -4950750.06246  20890666.9014   20890664.3554
     -1762.5444
 04  9 14 17  1 14.9990000  0  6G 1G20G11G16G23G25
 -10575047.19549  -8218406.15647  20143923.3864   20143921.2374
      -358.7024
 -19325913.00049 -15052165.88746  20321140.6674   20321137.9644
      1509.7004
    903714.52748    721145.86344  22053592.5734   22053591.0624
     -2535.3344
  -1505072.10947  -1159920.03142  23476302.1284   23476300.0584
      2871.1924
 -13020137.03949 -10133974.23445  21383733.2144   21383728.8514
      1926.7504
  -6355957.40249  -4930063.86746  20895718.1204   20895716.1514
     -1769.8194
 04  9 14 17  1 29.9990000  0  6G 1G20G11G16G23G25
 -10569595.80549  -8214158.32447  20144960.3704   20144958.6594
      -363.4264
 -19348455.19549 -15069731.22746  20316851.0504   20316848.1984
      1502.8134
    941832.70748    750848.31644  22060846.4804   22060844.6984
     -2541.2124
  -1548096.75847  -1193445.71142  23468115.1834   23468113.8394
      2868.3104
 -13048976.64549 -10156446.64845  21378245.3554   21378241.0194
      1922.6404
  -6329301.07849  -4909292.71946  20900790.9644   20900788.6834
     -1777.0884
 04  9 14 17  1 44.9990000  0  6G 1G20G11G16G23G25
 -10564073.80949  -8209855.47746  20146011.4484   20146009.6204
      -368.1334
 -19370893.93449 -15087215.96546  20312581.0344   20312578.2724
      1495.9164
    980038.55948    780619.09044  22068116.7454   22068114.9134
     -2547.0574
  -1591078.06247  -1226937.58242  23459935.3154   23459935.1284
      2865.4204
 -13077754.81649 -10178871.18045  21372768.9804   21372764.5114
      1918.5454
  -6302536.12549  -4888436.91446  20905883.8314   20905881.4404
     -1784.3304
